[[{"header":{"parameterUnit":"m.s-1","parameterCategory":1,"la1":31.0,"la2":29.5877,"lo1":-88.7671,"lo2":-86.6584,"dy":0.0162,"dx":0.0185,"nx":115,"ny":88,"refTime":"2023-11-08T06:00:00:Z","depth":0,"parameterNumber":2,"parameterNumberName":"U-component_of_WINDS"},"data":[0.0,0.0,0.0,0.0,0.0,0.0,0.0,0.0,0.0,0.0,0.0,0.0,0.0,0.0,0.0,0.0,0.0,0.0,0.0,0.0,0.0,0.0,0.0,0.0,0.0,0.0,0.0,0.0,0.0,0.0,0.0,0.0,0.0,0.0,0.0,0.0,0.0,0.0,0.0,0.0,0.0,0.0,0.0,0.0,0.0,0.0,0.0,0.0,0.0,0.0,0.0,0.0,0.0,0.0,0.0,0.0,0.0,0.0,0.0,0.0,0.0,0.0,0.0,0.0,0.0,0.0,0.0,0.0,0.0,0.0,0.0,0.0,0.0,0.0,0.0,0.0,0.0,0.0,0.0,0.0,0.0,0.0,0.0,0.0,0.0,0.0,0.0,0.0,0.0,0.0,0.0,0.0,0.0,0.0,0.0,0.0,0.0,0.0,0.0,0.0,0.0,0.0,0.0,0.0,0.0,0.0,0.0,0.0,0.0,0.0,0.0,0.0,0.0,0.0,0.0,0.0,0.0,0.0,0.0,0.0,0.0,0.0,0.0,0.0,0.0,0.0,0.0,0.0,0.0,0.0,0.0,0.0,0.0,0.0,0.0,0.0,0.0,0.0,0.0,0.0,0.0,0.0,0.0,0.0,0.0,0.0,0.0,0.0,0.0,0.0,0.0,0.0,0.0,0.0,0.0,0.0,0.0,0.0,0.0,0.0,0.0,0.0,0.0,0.0,0.0,0.0,0.0,0.0,0.0,0.0,0.0,0.0,0.0,0.0,0.0,0.0,0.0,0.0,0.0,0.0,0.0,0.0,0.0,0.0,0.0,0.0,0.0,0.0,0.0,0.0,0.0,0.0,0.0,0.0,0.0,0.0,0.0,0.0,0.0,0.0,0.0,0.0,0.0,0.0,0.0,0.0,0.0,0.0,0.0,0.0,0.0,0.0,0.0,0.0,0.0,0.0,0.0,0.0,0.0,0.0,0.0,0.0,0.0,0.0,0.0,0.0,0.0,0.0,0.0,0.0,0.0,0.0,0.0,0.0,0.0,0.0,0.0,0.0,0.0,0.0,0.0,0.0,0.0,0.0,0.0,0.0,0.0,0.0,0.0,0.0,0.0,0.0,0.0,0.0,0.0,0.0,0.0,0.0,0.0,0.0,0.0,0.0,0.0,0.0,0.0,0.0,0.0,0.0,0.0,0.0,0.0,0.0,0.0,0.0,0.0,0.0,0.0,0.0,0.0,0.0,0.0,0.0,0.0,0.0,0.0,0.0,0.0,0.0,0.0,0.0,0.0,0.0,0.0,0.0,0.0,0.0,0.0,0.0,0.0,0.0,0.0,0.0,0.0,0.0,0.0,0.0,0.0,0.0,0.0,0.0,0.0,0.0,0.0,0.0,0.0,0.0,0.0,0.0,0.0,0.0,0.0,0.0,0.0,0.0,0.0,0.0,0.0,0.0,0.0,0.0,0.0,0.0,0.0,0.0,0.0,0.0,0.0,0.0,0.0,0.0,0.0,0.0,0.0,0.0,0.0,0.0,0.0,0.0,0.0,0.0,0.0,0.0,0.0,0.0,0.0,0.0,0.0,0.0,0.0,0.0,0.0,0.0,0.0,0.0,0.0,0.0,0.0,0.0,0.0,0.0,0.0,0.0,0.0,0.0,0.0,0.0,0.0,0.0,0.0,0.0,0.0,0.0,0.0,0.0,0.0,0.0,0.0,0.0,0.0,0.0,0.0,0.0,0.0,0.0,0.0,0.0,0.0,0.0,0.0,0.0,0.0,0.0,0.0,0.0,0.0,0.0,0.0,0.0,0.0,0.0,0.0,0.0,0.0,0.0,0.0,0.0,0.0,0.0,0.0,0.0,0.0,0.0,0.0,0.0,0.0,0.0,0.0,0.0,0.0,0.0,0.0,0.0,0.0,0.0,0.0,0.0,0.0,0.0,0.0,0.0,0.0,0.0,0.0,0.0,0.0,0.0,0.0,0.0,0.0,0.0,0.0,0.0,0.0,0.0,0.0,0.0,0.0,0.0,0.0,0.0,0.0,0.0,0.0,0.0,0.0,0.0,0.0,0.0,0.0,0.0,0.0,0.0,0.0,0.0,0.0,0.0,0.0,0.0,0.0,0.0,0.0,0.0,0.0,0.0,0.0,0.0,0.0,0.0,0.0,0.0,0.0,0.0,0.0,0.0,0.0,0.0,0.0,0.0,0.0,0.0,0.0,0.0,0.0,0.0,0.0,0.0,0.0,0.0,0.0,0.0,0.0,0.0,0.0,0.0,0.0,0.0,0.0,0.0,0.0,0.0,0.0,0.0,0.0,0.0,0.0,0.0,0.0,0.0,0.0,0.0,0.0,0.0,0.0,0.0,0.0,0.0,0.0,0.0,0.0,0.0,0.0,0.0,0.0,0.0,0.0,0.0,0.0,0.0,0.0,0.0,0.0,0.0,0.0,0.0,0.0,0.0,0.0,0.0,0.0,0.0,0.0,0.0,0.0,0.0,0.0,0.0,0.0,0.0,0.0,0.0,0.0,0.0,0.0,0.0,0.0,0.0,0.0,0.0,0.0,0.0,0.0,0.0,0.0,0.0,0.0,0.0,0.0,0.0,0.0,0.0,0.0,0.0,0.0,0.0,0.0,0.0,0.0,0.0,0.0,0.0,0.0,0.0,0.0,0.0,0.0,0.0,0.0,0.0,0.0,0.0,0.0,0.0,0.0,0.0,0.0,0.0,0.0,0.0,0.0,0.0,0.0,0.0,0.0,0.0,0.0,0.0,0.0,0.0,0.0,0.0,0.0,0.0,0.0,0.0,0.0,0.0,0.0,0.0,0.0,0.0,0.0,0.0,0.0,0.0,0.0,0.0,0.0,0.0,0.0,0.0,0.0,0.0,0.0,0.0,0.0,0.0,0.0,0.0,0.0,0.0,0.0,0.0,0.0,0.0,0.0,0.0,0.0,0.0,0.0,0.0,0.0,0.0,0.0,0.0,0.0,0.0,0.0,0.0,0.0,0.0,0.0,0.0,0.0,0.0,0.0,0.0,0.0,0.0,0.0,0.0,0.0,0.0,0.0,0.0,0.0,0.0,0.0,0.0,0.0,0.0,0.0,0.0,0.0,0.0,0.0,0.0,0.0,0.0,0.0,0.0,0.0,0.0,0.0,0.0,0.0,0.0,0.0,0.0,0.0,0.0,0.0,0.0,0.0,0.0,0.0,0.0,0.0,0.0,0.0,0.0,0.0,0.0,0.0,0.0,0.0,0.0,0.0,0.0,0.0,0.0,0.0,0.0,0.0,0.0,0.0,0.0,0.0,0.0,0.0,0.0,0.0,0.0,0.0,0.0,0.0,0.0,0.0,0.0,0.0,0.0,0.0,0.0,0.0,0.0,0.0,0.0,0.0,0.0,0.0,0.0,0.0,0.0,0.0,0.0,0.0,0.0,0.0,0.0,0.0,0.0,0.0,0.0,0.0,0.0,0.0,0.0,0.0,0.0,0.0,0.0,0.0,0.0,0.0,0.0,0.0,0.0,0.0,0.0,0.0,0.0,0.0,0.0,0.0,0.0,0.0,0.0,0.0,0.0,0.0,0.0,0.0,0.0,0.0,0.0,0.0,0.0,0.0,0.0,0.0,0.0,0.0,0.0,0.0,0.0,0.0,0.0,0.0,0.0,0.0,0.0,0.0,0.0,0.0,0.0,0.0,0.0,0.0,0.0,0.0,0.0,0.0,0.0,0.0,0.0,0.0,0.0,0.0,0.0,0.0,0.0,0.0,0.0,0.0,0.0,0.0,0.0,0.0,0.0,0.0,0.0,0.0,0.0,0.0,0.0,0.0,0.0,0.0,0.0,0.0,0.0,0.0,0.0,0.0,0.0,0.0,0.0,0.0,0.0,0.0,0.0,0.0,0.0,0.0,0.0,0.0,0.0,0.0,0.0,0.0,0.0,0.0,0.0,0.0,0.0,0.0,0.0,0.0,0.0,0.0,0.0,0.0,0.0,0.0,0.0,0.0,0.0,0.0,0.0,0.0,0.0,0.0,0.0,0.0,0.0,0.0,0.0,0.0,0.0,0.0,0.0,0.0,0.0,0.0,0.0,0.0,0.0,0.0,0.0,0.0,0.0,0.0,0.0,0.0,0.0,0.0,0.0,0.0,0.0,0.0,0.0,0.0,0.0,0.0,0.0,0.0,0.0,0.0,0.0,0.0,0.0,0.0,0.0,0.0,0.0,0.0,0.0,0.0,0.0,0.0,0.0,0.0,0.0,0.0,0.0,0.0,0.0,2.3095,0.0,0.0,0.0,0.0,0.0,0.0,0.0,0.0,0.0,0.0,0.0,0.0,0.0,0.0,0.0,0.0,0.0,0.0,0.0,0.0,0.0,0.0,0.0,0.0,0.0,0.0,0.0,0.0,0.0,0.0,0.0,0.0,0.0,0.0,0.0,0.0,0.0,0.0,0.0,0.0,0.0,0.0,0.0,0.0,0.0,0.0,0.0,0.0,0.0,0.0,0.0,0.0,0.0,0.0,0.0,0.0,0.0,0.0,0.0,0.0,0.0,0.0,0.0,0.0,0.0,0.0,0.0,0.0,0.0,0.0,0.0,0.0,0.0,0.0,0.0,0.0,0.0,0.0,0.0,0.0,0.0,0.0,0.0,0.0,0.0,0.0,0.0,0.0,0.0,0.0,0.0,0.0,0.0,0.0,0.0,0.0,0.0,0.0,0.0,0.0,0.0,0.0,0.0,0.0,0.0,0.0,0.0,0.0,0.0,0.0,2.3095,2.3095,2.3095,2.3095,2.3108,0.0,0.0,0.0,0.0,0.0,0.0,0.0,0.0,0.0,0.0,0.0,0.0,0.0,0.0,0.0,0.0,0.0,0.0,0.0,0.0,0.0,0.0,0.0,0.0,0.0,0.0,0.0,0.0,0.0,0.0,0.0,0.0,0.0,0.0,0.0,0.0,0.0,0.0,0.0,0.0,0.0,0.0,0.0,0.0,0.0,0.0,0.0,0.0,0.0,0.0,0.0,0.0,0.0,0.0,0.0,0.0,0.0,0.0,0.0,0.0,0.0,0.0,0.0,0.0,0.0,0.0,0.0,0.0,0.0,0.0,0.0,0.0,0.0,0.0,0.0,0.0,0.0,0.0,0.0,0.0,0.0,0.0,0.0,0.0,0.0,0.0,0.0,0.0,0.0,0.0,0.0,0.0,0.0,0.0,0.0,0.0,0.0,0.0,0.0,0.0,0.0,0.0,0.0,0.0,0.0,0.0,0.0,0.0,0.0,0.0,0.0,0.0,2.3095,2.3095,2.3095,0.0,0.0,0.0,0.0,0.0,0.0,0.0,0.0,0.0,0.0,0.0,0.0,0.0,0.0,0.0,0.0,0.0,0.0,0.0,0.0,0.0,0.0,0.0,0.0,0.0,0.0,0.0,0.0,0.0,0.0,0.0,0.0,0.0,0.0,0.0,0.0,0.0,0.0,0.0,0.0,0.0,0.0,0.0,0.0,0.0,0.0,0.0,0.0,0.0,0.0,0.0,0.0,0.0,0.0,0.0,0.0,0.0,0.0,0.0,0.0,0.0,0.0,0.0,0.0,0.0,0.0,0.0,0.0,0.0,0.0,0.0,0.0,0.0,0.0,0.0,0.0,0.0,0.0,0.0,0.0,0.0,0.0,0.0,0.0,0.0,0.0,0.0,0.0,0.0,0.0,0.0,0.0,0.0,0.0,0.0,0.0,0.0,0.0,0.0,0.0,0.0,0.0,0.0,0.0,0.0,0.0,0.0,0.0,0.0,0.0,2.3095,2.3095,2.3095,0.0,2.3093,0.0,0.0,0.0,0.0,0.0,0.0,0.0,0.0,0.0,0.0,0.0,0.0,0.0,0.0,0.0,0.0,0.0,0.0,0.0,0.0,0.0,0.0,0.0,0.0,0.0,0.0,0.0,0.0,0.0,0.0,0.0,0.0,0.0,0.0,0.0,0.0,0.0,0.0,0.0,0.0,0.0,0.0,0.0,0.0,0.0,0.0,0.0,0.0,0.0,0.0,0.0,0.0,0.0,0.0,0.0,0.0,0.0,0.0,0.0,0.0,0.0,0.0,0.0,0.0,0.0,0.0,0.0,0.0,0.0,0.0,0.0,0.0,0.0,0.0,0.0,0.0,0.0,0.0,0.0,0.0,0.0,0.0,0.0,0.0,0.0,0.0,0.0,0.0,0.0,0.0,0.0,0.0,0.0,0.0,0.0,0.0,0.0,0.0,0.0,0.0,0.0,0.0,0.0,0.0,0.0,0.0,0.0,0.0,0.0,0.0,2.3095,2.3095,2.3095,2.3095,0.0,0.0,0.0,0.0,0.0,0.0,0.0,0.0,0.0,0.0,0.0,0.0,0.0,0.0,0.0,0.0,0.0,0.0,0.0,0.0,0.0,0.0,0.0,0.0,0.0,0.0,0.0,0.0,0.0,0.0,0.0,0.0,0.0,0.0,0.0,0.0,0.0,0.0,0.0,0.0,0.0,0.0,0.0,0.0,0.0,0.0,0.0,0.0,0.0,0.0,0.0,0.0,0.0,0.0,0.0,0.0,0.0,0.0,0.0,0.0,0.0,0.0,0.0,0.0,0.0,0.0,0.0,0.0,0.0,0.0,0.0,0.0,0.0,0.0,0.0,0.0,0.0,0.0,0.0,0.0,0.0,0.0,0.0,0.0,0.0,0.0,0.0,0.0,0.0,0.0,0.0,0.0,0.0,0.0,0.0,0.0,0.0,0.0,0.0,0.0,0.0,0.0,0.0,0.0,0.0,0.0,0.0,0.0,0.0,0.0,2.3095,2.3095,2.3095,2.3095,2.3095,2.3095,0.0,0.0,0.0,0.0,0.0,0.0,0.0,0.0,0.0,0.0,0.0,0.0,0.0,0.0,0.0,0.0,0.0,0.0,0.0,0.0,0.0,0.0,0.0,0.0,0.0,0.0,0.0,0.0,0.0,0.0,0.0,0.0,0.0,0.0,0.0,0.0,0.0,0.0,0.0,0.0,0.0,0.0,0.0,0.0,0.0,0.0,0.0,0.0,0.0,0.0,0.0,0.0,0.0,0.0,0.0,0.0,0.0,0.0,0.0,0.0,0.0,0.0,0.0,0.0,0.0,0.0,0.0,0.0,0.0,0.0,0.0,0.0,0.0,0.0,0.0,0.0,0.0,0.0,0.0,0.0,0.0,0.0,0.0,0.0,0.0,0.0,0.0,0.0,0.0,0.0,0.0,0.0,0.0,0.0,0.0,0.0,0.0,0.0,0.0,0.0,0.0,0.0,0.0,0.0,0.0,0.0,0.0,0.0,2.3095,2.3095,2.3095,2.3095,2.3095,2.3108,0.0,0.0,0.0,0.0,0.0,0.0,0.0,0.0,0.0,0.0,0.0,0.0,0.0,0.0,0.0,0.0,0.0,0.0,0.0,0.0,0.0,0.0,0.0,0.0,0.0,0.0,0.0,0.0,0.0,0.0,0.0,0.0,0.0,0.0,0.0,0.0,0.0,0.0,0.0,0.0,0.0,0.0,0.0,0.0,0.0,0.0,0.0,0.0,0.0,0.0,0.0,0.0,0.0,0.0,0.0,0.0,0.0,0.0,0.0,0.0,0.0,0.0,0.0,0.0,0.0,0.0,0.0,0.0,0.0,0.0,0.0,0.0,0.0,0.0,0.0,0.0,0.0,0.0,0.0,0.0,0.0,0.0,0.0,0.0,0.0,0.0,0.0,0.0,0.0,0.0,0.0,0.0,0.0,0.0,0.0,0.0,0.0,0.0,0.0,0.0,0.0,0.0,0.0,0.0,0.0,0.0,0.0,0.0,0.0,2.3095,2.3095,2.3095,2.3095,2.3095,2.3271,0.0,0.0,0.0,0.0,0.0,0.0,0.0,0.0,0.0,0.0,0.0,0.0,0.0,0.0,0.0,0.0,0.0,0.0,0.0,0.0,0.0,0.0,0.0,0.0,0.0,0.0,0.0,0.0,0.0,0.0,0.0,0.0,0.0,0.0,0.0,0.0,0.0,0.0,0.0,0.0,0.0,0.0,0.0,0.0,0.0,0.0,0.0,0.0,0.0,0.0,0.0,0.0,0.0,0.0,0.0,0.0,0.0,0.0,0.0,0.0,0.0,0.0,0.0,0.0,0.0,0.0,0.0,0.0,0.0,0.0,0.0,0.0,0.0,0.0,0.0,0.0,0.0,0.0,0.0,0.0,0.0,0.0,0.0,0.0,0.0,0.0,0.0,0.0,0.0,0.0,0.0,0.0,0.0,0.0,0.0,0.0,0.0,0.0,0.0,0.0,0.0,0.0,0.0,0.0,0.0,0.0,0.0,0.0,0.0,2.3095,0.0,2.3095,2.3093,2.3283,2.3587,0.0,0.0,0.0,0.0,0.0,0.0,0.0,0.0,0.0,0.0,0.0,0.0,0.0,0.0,0.0,0.0,0.0,0.0,0.0,0.0,0.0,0.0,0.0,0.0,0.0,0.0,0.0,0.0,0.0,0.0,0.0,0.0,0.0,0.0,0.0,0.0,0.0,0.0,0.0,0.0,0.0,0.0,0.0,0.0,0.0,0.0,0.0,0.0,0.0,0.0,0.0,0.0,0.0,0.0,0.0,0.0,0.0,0.0,0.0,0.0,0.0,0.0,0.0,0.0,0.0,0.0,0.0,0.0,0.0,0.0,0.0,0.0,0.0,0.0,0.0,0.0,0.0,0.0,0.0,0.0,0.0,0.0,0.0,0.0,0.0,0.0,0.0,0.0,0.0,0.0,0.0,0.0,0.0,0.0,0.0,0.0,0.0,0.0,0.0,0.0,0.0,0.0,0.0,0.0,0.0,0.0,0.0,0.0,2.3105,2.3095,2.312,2.3145,2.312,2.3687,2.4017,0.0,0.0,0.0,0.0,0.0,0.0,0.0,0.0,0.0,0.0,0.0,0.0,0.0,0.0,0.0,0.0,0.0,0.0,0.0,0.0,0.0,0.0,0.0,0.0,0.0,0.0,0.0,0.0,0.0,0.0,0.0,0.0,0.0,0.0,0.0,0.0,0.0,0.0,0.0,0.0,0.0,0.0,0.0,0.0,0.0,0.0,0.0,0.0,0.0,0.0,0.0,0.0,0.0,0.0,0.0,0.0,0.0,0.0,0.0,0.0,0.0,0.0,0.0,0.0,0.0,0.0,0.0,0.0,0.0,0.0,0.0,0.0,0.0,0.0,0.0,0.0,0.0,0.0,0.0,0.0,0.0,0.0,0.0,0.0,0.0,0.0,0.0,0.0,0.0,0.0,0.0,0.0,0.0,0.0,0.0,0.0,0.0,0.0,0.0,0.0,0.0,0.0,0.0,0.0,0.0,0.0,0.0,0.0,0.0,2.3133,2.3512,2.3728,2.3725,2.4264,2.4732,0.0,0.0,0.0,0.0,0.0,0.0,0.0,0.0,0.0,0.0,0.0,0.0,0.0,0.0,0.0,0.0,0.0,0.0,0.0,0.0,0.0,0.0,0.0,0.0,0.0,0.0,0.0,0.0,0.0,0.0,0.0,0.0,0.0,0.0,0.0,0.0,0.0,0.0,0.0,0.0,0.0,0.0,0.0,0.0,0.0,0.0,0.0,0.0,0.0,0.0,0.0,0.0,0.0,0.0,0.0,0.0,0.0,0.0,0.0,0.0,0.0,0.0,0.0,0.0,0.0,0.0,0.0,0.0,0.0,0.0,0.0,0.0,0.0,0.0,0.0,0.0,0.0,0.0,0.0,0.0,0.0,0.0,0.0,0.0,0.0,0.0,0.0,0.0,0.0,0.0,0.0,0.0,0.0,0.0,0.0,0.0,0.0,0.0,0.0,0.0,0.0,0.0,0.0,0.0,0.0,0.0,0.0,0.0,0.0,2.376,2.4101,2.4305,2.4293,2.4833,2.5259,2.5586,0.0,0.0,0.0,0.0,0.0,0.0,0.0,0.0,0.0,0.0,0.0,0.0,0.0,0.0,0.0,0.0,0.0,0.0,0.0,0.0,0.0,0.0,0.0,0.0,0.0,0.0,0.0,0.0,0.0,0.0,0.0,0.0,0.0,0.0,0.0,0.0,0.0,0.0,0.0,0.0,0.0,0.0,0.0,0.0,0.0,0.0,0.0,0.0,0.0,0.0,0.0,0.0,0.0,0.0,0.0,0.0,0.0,0.0,0.0,0.0,0.0,0.0,0.0,0.0,0.0,0.0,0.0,0.0,0.0,0.0,0.0,0.0,0.0,0.0,0.0,0.0,0.0,0.0,0.0,0.0,0.0,0.0,0.0,0.0,0.0,0.0,0.0,0.0,0.0,0.0,0.0,0.0,0.0,0.0,0.0,0.0,0.0,0.0,0.0,0.0,0.0,0.0,0.0,0.0,0.0,0.0,0.0,0.0,2.4838,2.4892,2.4879,2.485,2.5372,2.5665,0.0,0.0,0.0,0.0,0.0,0.0,0.0,0.0,0.0,0.0,0.0,0.0,0.0,0.0,0.0,0.0,0.0,0.0,0.0,0.0,0.0,0.0,0.0,0.0,0.0,0.0,0.0,0.0,0.0,0.0,0.0,0.0,0.0,0.0,0.0,0.0,0.0,0.0,0.0,0.0,0.0,0.0,0.0,0.0,0.0,0.0,0.0,0.0,0.0,0.0,0.0,0.0,0.0,0.0,0.0,0.0,0.0,0.0,0.0,0.0,0.0,0.0,0.0,0.0,0.0,0.0,0.0,0.0,0.0,0.0,0.0,0.0,0.0,0.0,0.0,0.0,0.0,0.0,0.0,0.0,0.0,0.0,0.0,0.0,0.0,0.0,0.0,0.0,0.0,0.0,0.0,0.0,0.0,0.0,0.0,0.0,0.0,0.0,0.0,0.0,0.0,0.0,0.0,0.0,0.0,0.0,0.0,0.0,0.0,2.541,2.5829,2.5854,2.5435,2.5954,2.6273,0.0,0.0,0.0,0.0,0.0,0.0,0.0,0.0,0.0,0.0,0.0,0.0,0.0,0.0,0.0,0.0,0.0,0.0,0.0,0.0,0.0,0.0,0.0,0.0,0.0,0.0,0.0,0.0,0.0,0.0,0.0,0.0,0.0,0.0,0.0,0.0,0.0,0.0,0.0,0.0,0.0,0.0,0.0,0.0,0.0,0.0,0.0,0.0,0.0,0.0,0.0,0.0,0.0,0.0,0.0,0.0,0.0,0.0,0.0,0.0,0.0,0.0,0.0,0.0,0.0,0.0,0.0,0.0,0.0,0.0,0.0,0.0,0.0,0.0,0.0,0.0,0.0,0.0,0.0,0.0,0.0,0.0,0.0,0.0,0.0,0.0,0.0,0.0,0.0,0.0,0.0,0.0,0.0,0.0,0.0,0.0,0.0,0.0,0.0,0.0,0.0,0.0,0.0,0.0,0.0,0.0,0.0,0.0,2.5979,2.5979,2.6323,2.6336,2.5992,2.6311,2.6487,0.0,0.0,0.0,0.0,0.0,0.0,0.0,0.0,0.0,0.0,0.0,0.0,0.0,0.0,0.0,0.0,0.0,0.0,0.0,0.0,0.0,0.0,0.0,0.0,0.0,0.0,0.0,0.0,0.0,0.0,0.0,0.0,0.0,0.0,0.0,0.0,0.0,0.0,0.0,0.0,0.0,0.0,0.0,0.0,0.0,0.0,0.0,0.0,0.0,0.0,0.0,0.0,0.0,0.0,0.0,0.0,0.0,0.0,0.0,0.0,0.0,0.0,0.0,0.0,0.0,0.0,0.0,0.0,0.0,0.0,0.0,0.0,0.0,0.0,0.0,0.0,0.0,0.0,0.0,0.0,0.0,0.0,0.0,0.0,0.0,0.0,0.0,0.0,0.0,0.0,0.0,0.0,0.0,0.0,0.0,0.0,0.0,0.0,0.0,0.0,0.0,0.0,0.0,0.0,0.0,0.0,0.0,0.0,2.6487,2.6487,2.6487,2.6487,2.6487,2.6487,2.6487,0.0,0.0,0.0,0.0,0.0,0.0,0.0,0.0,0.0,0.0,0.0,0.0,0.0,0.0,0.0,0.0,0.0,0.0,0.0,0.0,0.0,0.0,0.0,0.0,0.0,0.0,0.0,0.0,0.0,0.0,0.0,0.0,0.0,0.0,0.0,0.0,0.0,0.0,0.0,0.0,0.0,0.0,0.0,0.0,0.0,0.0,0.0,0.0,0.0,0.0,0.0,0.0,0.0,0.0,0.0,0.0,0.0,0.0,0.0,0.0,0.0,0.0,0.0,0.0,0.0,0.0,0.0,0.0,0.0,0.0,0.0,0.0,0.0,0.0,0.0,0.0,0.0,0.0,0.0,0.0,0.0,0.0,0.0,0.0,0.0,0.0,0.0,0.0,0.0,0.0,0.0,0.0,0.0,0.0,0.0,0.0,0.0,0.0,0.0,0.0,0.0,0.0,0.0,0.0,0.0,0.0,0.0,0.0,2.6487,2.6487,2.6487,2.6487,2.6487,2.6487,2.6487,0.0,0.0,0.0,0.0,0.0,0.0,0.0,0.0,0.0,0.0,0.0,0.0,0.0,0.0,0.0,0.0,0.0,0.0,0.0,0.0,0.0,0.0,0.0,0.0,0.0,0.0,0.0,0.0,0.0,0.0,0.0,0.0,0.0,0.0,0.0,0.0,0.0,0.0,0.0,0.0,0.0,0.0,0.0,0.0,0.0,0.0,0.0,0.0,2.3594,0.0,0.0,0.0,0.0,0.0,0.0,0.0,0.0,0.0,0.0,0.0,0.0,0.0,0.0,0.0,0.0,0.0,0.0,0.0,0.0,0.0,0.0,0.0,0.0,0.0,0.0,0.0,0.0,0.0,0.0,0.0,0.0,0.0,0.0,0.0,0.0,0.0,0.0,0.0,0.0,0.0,0.0,0.0,0.0,0.0,0.0,0.0,0.0,0.0,0.0,0.0,0.0,0.0,0.0,0.0,0.0,0.0,0.0,0.0,2.6487,2.6487,2.6487,2.6487,2.6487,2.6487,2.6487,0.0,0.0,0.0,0.0,0.0,0.0,0.0,0.0,0.0,0.0,0.0,0.0,0.0,0.0,0.0,0.0,0.0,0.0,0.0,0.0,0.0,0.0,0.0,0.0,0.0,0.0,0.0,0.0,0.0,0.0,0.0,0.0,0.0,0.0,0.0,0.0,0.0,0.0,0.0,0.0,0.0,0.0,0.0,0.0,0.0,0.0,0.0,0.0,0.0,0.0,0.0,0.0,0.0,0.0,0.0,0.0,0.0,0.0,0.0,0.0,0.0,0.0,0.0,0.0,0.0,0.0,0.0,0.0,0.0,0.0,0.0,0.0,0.0,0.0,0.0,0.0,0.0,0.0,0.0,0.0,0.0,0.0,0.0,0.0,0.0,0.0,0.0,0.0,0.0,0.0,0.0,0.0,0.0,0.0,0.0,0.0,0.0,0.0,0.0,0.0,0.0,0.0,0.0,0.0,0.0,0.0,0.0,2.6487,2.6487,2.6499,2.6575,2.6642,2.6625,2.6683,2.6686,2.6698,0.0,0.0,0.0,0.0,0.0,0.0,0.0,0.0,0.0,0.0,0.0,0.0,0.0,0.0,0.0,0.0,0.0,0.0,0.0,0.0,0.0,0.0,0.0,0.0,0.0,0.0,0.0,0.0,0.0,0.0,0.0,0.0,0.0,0.0,0.0,0.0,0.0,0.0,2.3101,2.3101,0.0,0.0,0.0,0.0,0.0,0.0,0.0,0.0,2.4287,0.0,0.0,0.0,0.0,0.0,0.0,0.0,0.0,0.0,0.0,0.0,0.0,0.0,0.0,0.0,0.0,0.0,0.0,0.0,0.0,0.0,0.0,0.0,0.0,0.0,0.0,0.0,0.0,0.0,0.0,0.0,0.0,0.0,0.0,0.0,0.0,0.0,0.0,0.0,0.0,0.0,0.0,0.0,0.0,0.0,0.0,0.0,0.0,0.0,0.0,0.0,0.0,0.0,0.0,0.0,0.0,2.6487,2.6487,2.6487,2.6499,2.6939,2.7173,2.7173,2.7445,2.7586,2.7548,0.0,0.0,0.0,0.0,0.0,0.0,0.0,0.0,0.0,0.0,0.0,0.0,0.0,0.0,0.0,0.0,0.0,0.0,0.0,0.0,0.0,0.0,0.0,0.0,0.0,0.0,0.0,0.0,0.0,0.0,0.0,0.0,0.0,0.0,0.0,0.0,0.0,0.0,0.0,2.3101,2.3101,0.0,0.0,0.0,0.0,0.0,0.0,0.0,0.0,2.5112,0.0,0.0,0.0,0.0,0.0,0.0,0.0,0.0,0.0,0.0,0.0,0.0,0.0,0.0,0.0,0.0,0.0,0.0,0.0,0.0,0.0,0.0,0.0,0.0,0.0,0.0,0.0,0.0,0.0,0.0,0.0,0.0,0.0,0.0,0.0,0.0,0.0,0.0,0.0,0.0,0.0,0.0,0.0,0.0,0.0,0.0,0.0,0.0,0.0,0.0,0.0,0.0,0.0,0.0,0.0,2.6746,2.692,2.7021,2.7015,2.7276,2.74,2.7413,2.7459,2.7471,0.0,0.0,0.0,0.0,0.0,0.0,0.0,0.0,0.0,0.0,0.0,0.0,0.0,0.0,0.0,0.0,0.0,0.0,0.0,0.0,0.0,0.0,0.0,0.0,0.0,0.0,0.0,0.0,0.0,0.0,0.0,0.0,0.0,0.0,0.0,0.0,0.0,0.0,0.0,0.0,2.3308,2.3454,2.3454,0.0,0.0,0.0,0.0,0.0,0.0,2.5287,2.5464,0.0,0.0,0.0,0.0,0.0,0.0,0.0,0.0,0.0,0.0,0.0,0.0,0.0,0.0,0.0,0.0,0.0,0.0,0.0,0.0,0.0,0.0,0.0,0.0,0.0,0.0,0.0,0.0,0.0,0.0,0.0,0.0,0.0,0.0,0.0,0.0,0.0,0.0,0.0,0.0,0.0,0.0,0.0,0.0,0.0,0.0,0.0,0.0,0.0,0.0,0.0,0.0,0.0,0.0,0.0,2.7051,2.7299,2.7428,2.7353,2.7482,2.7549,2.7531,2.7409,2.7326,0.0,0.0,0.0,0.0,0.0,0.0,0.0,0.0,0.0,0.0,0.0,0.0,0.0,0.0,0.0,0.0,0.0,0.0,0.0,0.0,0.0,0.0,0.0,0.0,0.0,0.0,0.0,0.0,0.0,0.0,0.0,0.0,0.0,0.0,0.0,0.0,0.0,0.0,0.0,0.0,0.0,2.3818,2.3906,2.4277,0.0,0.0,0.0,0.0,2.5229,2.5498,0.0,0.0,0.0,0.0,0.0,0.0,0.0,0.0,0.0,0.0,0.0,0.0,0.0,0.0,0.0,0.0,0.0,0.0,0.0,0.0,0.0,0.0,0.0,0.0,0.0,0.0,0.0,0.0,0.0,0.0,0.0,0.0,0.0,0.0,0.0,0.0,0.0,0.0,0.0,0.0,0.0,0.0,0.0,0.0,0.0,0.0,0.0,0.0,0.0,0.0,0.0,0.0,0.0,0.0,0.0,0.0,2.7188,2.7211,2.7136,2.6923,2.7399,2.7671,2.7671,2.7707,2.7722,0.0,0.0,0.0,0.0,0.0,0.0,0.0,0.0,0.0,0.0,0.0,0.0,0.0,0.0,0.0,0.0,0.0,0.0,0.0,0.0,0.0,0.0,0.0,0.0,0.0,0.0,0.0,0.0,0.0,0.0,0.0,0.0,0.0,0.0,0.0,0.0,0.0,0.0,0.0,0.0,0.0,2.3926,2.4264,2.4717,2.5014,0.0,0.0,2.564,2.563,2.5679,0.0,0.0,0.0,0.0,0.0,0.0,0.0,0.0,0.0,0.0,0.0,0.0,0.0,0.0,0.0,0.0,0.0,0.0,0.0,0.0,0.0,0.0,0.0,0.0,0.0,0.0,0.0,0.0,0.0,0.0,0.0,0.0,0.0,0.0,0.0,0.0,0.0,0.0,0.0,0.0,0.0,0.0,0.0,0.0,0.0,0.0,0.0,0.0,0.0,0.0,0.0,0.0,0.0,0.0,0.0,2.7666,2.7495,2.7412,2.7301,2.7215,2.7328,2.7405,2.7417,2.718,2.7071,0.0,0.0,0.0,0.0,0.0,0.0,0.0,0.0,0.0,0.0,0.0,0.0,0.0,0.0,0.0,0.0,0.0,0.0,0.0,0.0,0.0,0.0,0.0,0.0,0.0,0.0,0.0,0.0,0.0,0.0,0.0,0.0,0.0,0.0,0.0,0.0,0.0,0.0,0.0,0.0,0.0,0.0,2.4564,2.4918,0.0,0.0,0.0,2.5235,2.5235,0.0,0.0,0.0,0.0,0.0,0.0,0.0,0.0,0.0,0.0,0.0,0.0,0.0,0.0,0.0,0.0,0.0,0.0,0.0,0.0,0.0,0.0,0.0,0.0,0.0,0.0,0.0,0.0,0.0,0.0,0.0,0.0,0.0,0.0,0.0,0.0,0.0,0.0,0.0,0.0,0.0,0.0,0.0,0.0,0.0,0.0,0.0,0.0,0.0,0.0,0.0,0.0,0.0,0.0,0.0,0.0,0.0,2.7569,2.7437,2.7287,2.7153,2.6981,2.6857,2.6869,2.6424,0.0,0.0,0.0,0.0,0.0,0.0,0.0,0.0,0.0,0.0,0.0,0.0,0.0,0.0,0.0,0.0,0.0,0.0,0.0,0.0,0.0,0.0,0.0,0.0,0.0,0.0,0.0,2.3101,0.0,0.0,0.0,0.0,0.0,0.0,0.0,0.0,0.0,0.0,0.0,0.0,0.0,0.0,2.4879,2.4756,2.501,2.5113,0.0,0.0,2.4892,2.4892,2.5064,2.5201,0.0,0.0,0.0,0.0,0.0,0.0,0.0,0.0,0.0,0.0,0.0,0.0,0.0,0.0,0.0,0.0,0.0,0.0,0.0,0.0,0.0,0.0,0.0,0.0,0.0,0.0,0.0,0.0,0.0,0.0,0.0,0.0,0.0,0.0,0.0,0.0,0.0,0.0,0.0,0.0,0.0,0.0,0.0,0.0,0.0,0.0,0.0,0.0,0.0,0.0,0.0,0.0,0.0,0.0,0.0,2.7261,2.7021,2.6725,2.6289,2.6093,2.5979,2.5979,2.5517,2.5306,0.0,0.0,0.0,0.0,0.0,0.0,0.0,0.0,0.0,0.0,0.0,0.0,0.0,0.0,0.0,0.0,0.0,0.0,0.0,0.0,0.0,0.0,0.0,0.0,0.0,0.0,0.0,0.0,0.0,0.0,0.0,0.0,0.0,0.0,0.0,0.0,0.0,0.0,0.0,0.0,0.0,2.4492,2.4846,2.4913,2.4907,0.0,0.0,2.4892,2.4892,2.4907,2.4932,2.4932,0.0,0.0,0.0,0.0,0.0,0.0,0.0,0.0,0.0,0.0,0.0,0.0,0.0,0.0,0.0,0.0,0.0,0.0,0.0,0.0,0.0,0.0,0.0,0.0,0.0,0.0,0.0,0.0,0.0,0.0,0.0,0.0,0.0,0.0,0.0,0.0,0.0,0.0,0.0,0.0,0.0,0.0,0.0,0.0,0.0,0.0,0.0,0.0,0.0,0.0,0.0,0.0,0.0,2.7603,2.7024,2.6385,2.5894,2.559,2.5211,2.502,2.502,2.4743,2.4572,0.0,0.0,0.0,0.0,0.0,0.0,0.0,0.0,0.0,0.0,0.0,0.0,0.0,0.0,0.0,0.0,0.0,0.0,0.0,0.0,0.0,0.0,0.0,0.0,0.0,0.0,0.0,0.0,2.4072,2.418,2.418,0.0,0.0,0.0,0.0,0.0,0.0,0.0,0.0,0.0,0.0,2.419,2.4156,2.4158,0.0,0.0,2.396,2.3994,2.3969,2.4093,2.4158,2.4158,2.4307,0.0,0.0,0.0,0.0,0.0,0.0,0.0,0.0,0.0,0.0,0.0,0.0,0.0,0.0,0.0,0.0,0.0,0.0,0.0,0.0,0.0,0.0,0.0,0.0,0.0,0.0,0.0,0.0,0.0,0.0,0.0,0.0,0.0,0.0,0.0,0.0,0.0,0.0,0.0,0.0,0.0,0.0,0.0,0.0,0.0,0.0,0.0,0.0,0.0,0.0,0.0,0.0,2.7074,2.6603,2.5878,2.5392,2.521,2.485,2.4673,2.4673,2.4474,2.4385,0.0,0.0,0.0,0.0,0.0,0.0,0.0,0.0,0.0,0.0,0.0,0.0,0.0,0.0,0.0,0.0,0.0,0.0,0.0,0.0,0.0,0.0,0.0,0.0,0.0,0.0,0.0,0.0,2.4531,2.4668,2.4771,0.0,0.0,0.0,0.0,0.0,0.0,0.0,0.0,0.0,0.0,2.3553,2.3388,2.3354,2.3279,2.3172,2.3122,2.3122,2.3122,2.336,2.3532,2.3515,0.0,0.0,0.0,0.0,0.0,0.0,0.0,0.0,0.0,0.0,0.0,0.0,0.0,0.0,0.0,0.0,0.0,0.0,0.0,0.0,0.0,0.0,0.0,0.0,0.0,0.0,0.0,0.0,0.0,0.0,0.0,0.0,0.0,0.0,0.0,0.0,0.0,0.0,0.0,0.0,0.0,0.0,0.0,0.0,0.0,0.0,0.0,0.0,0.0,0.0,0.0,0.0,0.0,2.6605,2.5938,2.5668,2.5389,2.5201,2.512,2.5052,2.5052,2.4877,2.4795,2.4775,0.0,0.0,0.0,0.0,0.0,0.0,0.0,0.0,0.0,0.0,0.0,0.0,0.0,0.0,0.0,0.0,0.0,0.0,0.0,0.0,0.0,0.0,0.0,0.0,0.0,0.0,2.443,2.4805,2.5225,0.0,0.0,0.0,0.0,0.0,0.0,0.0,0.0,0.0,0.0,2.2711,2.2535,2.251,2.2535,2.2535,2.2527,2.2518,2.251,2.2527,2.286,2.31,0.0,0.0,0.0,0.0,0.0,0.0,0.0,0.0,0.0,0.0,0.0,0.0,0.0,0.0,0.0,0.0,0.0,0.0,0.0,0.0,0.0,0.0,0.0,0.0,0.0,0.0,0.0,2.8101,2.84,0.0,0.0,0.0,0.0,0.0,0.0,0.0,0.0,0.0,0.0,0.0,2.8107,2.795,0.0,0.0,0.0,0.0,0.0,0.0,0.0,0.0,0.0,0.0,0.0,0.0,2.6635,2.6126,2.5719,2.5298,2.4924,2.4746,2.4631,2.4631,2.4585,2.4539,2.4529,0.0,0.0,0.0,0.0,0.0,0.0,0.0,0.0,0.0,0.0,0.0,0.0,0.0,0.0,0.0,0.0,0.0,0.0,0.0,0.0,0.0,0.0,0.0,0.0,0.0,2.4732,0.0,0.0,0.0,0.0,0.0,0.0,0.0,0.0,0.0,0.0,0.0,2.2207,2.2123,2.1906,2.1752,2.1752,2.1963,2.2091,0.0,0.0,0.0,0.0,0.0,0.0,0.0,0.0,0.0,0.0,0.0,0.0,0.0,0.0,2.384,2.4113,2.4175,2.4175,2.4149,0.0,0.0,0.0,0.0,0.0,0.0,0.0,0.0,0.0,0.0,0.0,0.0,0.0,0.0,0.0,0.0,2.8631,0.0,0.0,0.0,0.0,0.0,0.0,0.0,0.0,2.8015,2.7952,2.7665,2.7502,2.7656,0.0,2.7635,2.7379,0.0,0.0,0.0,0.0,0.0,0.0,0.0,0.0,2.6462,2.6111,2.5686,2.5321,2.502,2.4912,2.4849,2.4849,2.4849,2.4859,2.4849,2.4849,2.4849,0.0,0.0,0.0,0.0,0.0,0.0,0.0,0.0,0.0,0.0,0.0,0.0,0.0,0.0,0.0,0.0,0.0,0.0,0.0,0.0,0.0,0.0,0.0,2.476,0.0,0.0,0.0,0.0,0.0,0.0,0.0,0.0,0.0,2.2622,2.1856,2.133,2.1432,2.1157,2.0959,2.0959,0.0,0.0,0.0,0.0,0.0,0.0,0.0,2.1748,2.1639,2.174,2.1755,2.1672,2.1907,2.2122,2.213,0.0,0.0,2.3288,2.3401,2.3392,2.3392,2.3392,2.3459,2.3747,2.4255,2.4787,0.0,0.0,0.0,0.0,0.0,0.0,0.0,0.0,2.8998,2.8812,0.0,2.9051,0.0,0.0,0.0,0.0,0.0,0.0,0.0,0.0,2.7865,2.7635,2.7172,2.6748,2.677,2.7149,2.6759,2.6557,2.6591,2.7436,0.0,0.0,0.0,0.0,0.0,0.0,2.6097,2.5898,2.5608,2.5409,2.5419,2.5594,2.5698,2.5689,2.5689,2.5664,2.5674,2.5654,2.5698,2.5698,2.5689,0.0,0.0,0.0,0.0,0.0,0.0,0.0,0.0,0.0,0.0,0.0,0.0,0.0,0.0,0.0,0.0,0.0,0.0,0.0,0.0,2.4603,0.0,0.0,0.0,0.0,0.0,0.0,0.0,0.0,0.0,0.0,2.211,2.1186,2.0605,2.0917,0.0,0.0,0.0,0.0,2.0609,2.0632,2.089,2.113,2.113,2.1369,2.1499,2.1184,0.0,0.0,2.1268,2.143,2.1591,2.1598,2.1861,2.2231,2.2824,2.2925,2.2961,2.2961,2.2961,2.2961,2.2989,2.3465,2.3988,3.0545,0.0,0.0,0.0,0.0,3.0664,3.0429,3.0061,2.9649,2.9338,2.9162,2.8892,0.0,0.0,0.0,0.0,0.0,0.0,2.7788,2.6949,2.725,2.7151,2.6695,2.6762,2.6941,2.7188,2.6931,2.6801,2.6801,2.7058,2.6863,2.6211,0.0,0.0,0.0,0.0,2.6086,2.6057,2.5938,2.5816,2.5643,2.5674,2.5708,2.5708,2.5708,2.5708,2.5708,2.5708,2.5708,2.5708,2.5708,0.0,0.0,0.0,0.0,0.0,0.0,0.0,0.0,0.0,0.0,0.0,0.0,0.0,0.0,0.0,0.0,0.0,0.0,0.0,2.3861,2.3538,2.3379,0.0,0.0,0.0,0.0,0.0,0.0,0.0,0.0,0.0,2.112,2.0647,2.0229,0.0,0.0,1.9948,2.0132,2.0444,2.0758,2.1008,0.0,0.0,0.0,2.1239,2.1296,2.1179,2.125,2.1284,2.1218,2.1266,2.1323,2.1323,2.1364,2.1521,2.1698,2.2083,2.2334,2.2363,2.2363,2.2363,2.2392,2.2847,2.3273,3.2513,3.2365,3.1597,3.1104,3.0827,3.0699,3.0387,2.9917,2.9376,2.8991,2.8723,2.8483,2.8353,2.8364,2.8555,0.0,0.0,0.0,2.7573,2.6912,2.7194,2.72,2.7016,2.7063,2.7219,2.7415,2.7209,2.7097,2.7097,2.7097,2.6835,2.6296,0.0,0.0,2.6239,2.6155,2.6085,2.6081,2.598,2.5868,2.5708,2.5708,2.5708,2.5708,2.5708,2.5708,2.5708,2.5708,2.5708,2.5708,2.5611,2.5538,0.0,0.0,0.0,0.0,0.0,0.0,0.0,0.0,0.0,0.0,0.0,2.4892,2.4612,0.0,0.0,0.0,2.3781,2.3603,2.3308,2.2997,0.0,0.0,0.0,0.0,0.0,0.0,0.0,2.1869,2.1206,2.0735,2.0566,2.0466,2.0274,1.9977,1.9936,2.0017,2.0159,0.0,2.0768,2.0955,2.1134,2.1224,2.1224,2.1224,2.1157,2.1006,2.0893,2.0802,2.0809,2.0981,2.1152,2.118,2.1352,2.1517,2.1517,2.1797,2.1987,2.179,2.1742,2.1742,2.1742,2.2125,2.2483,3.4123,3.378,3.1954,3.0961,3.0562,3.0314,2.9901,2.9364,2.8735,2.8286,2.8,2.8037,2.8051,2.8073,2.8485,0.0,0.0,2.801,2.7823,2.7482,2.7506,2.7571,2.7738,2.7465,2.75,2.7713,2.75,2.7364,2.7364,2.7364,2.7247,2.6992,2.669,2.6534,2.6524,2.6307,2.6175,2.6175,2.5937,2.5815,2.5815,2.5791,2.5791,2.5776,2.5791,2.5767,2.5718,2.5742,2.5723,2.5693,2.5405,2.5273,2.5235,0.0,0.0,0.0,0.0,0.0,0.0,0.0,0.0,0.0,0.0,0.0,0.0,0.0,0.0,0.0,2.2946,0.0,2.3004,2.2757,0.0,0.0,0.0,2.184,2.1871,2.1643,2.1392,2.1171,0.0,0.0,2.0385,0.0,2.0624,2.041,2.0274,2.0224,2.0264,2.0544,2.074,2.0849,2.1058,2.1264,2.1314,2.1324,2.1209,2.0971,2.0551,2.0472,2.0468,2.0853,2.1149,2.1208,2.1649,2.1984,2.2004,2.197,2.1845,2.1402,2.1292,2.1285,2.1364,2.1591,2.1913,3.3618,3.3305,3.2455,3.2149,3.2195,3.1943,3.1344,3.0481,2.9904,2.9428,2.8949,2.8561,2.8369,2.838,2.8509,2.8399,2.8159,2.8159,2.7877,2.7432,2.7417,2.736,2.719,2.7114,2.7139,2.718,2.7139,2.7088,2.7078,2.7078,2.7053,2.7002,2.6933,2.6876,2.6885,2.681,2.6775,2.6785,2.6709,2.6684,2.6684,2.6693,2.6583,2.6371,2.638,2.6279,2.6025,2.6025,2.5873,2.554,2.5296,2.4995,2.4695,2.443,0.0,0.0,0.0,0.0,0.0,0.0,0.0,0.0,0.0,2.3588,2.3645,0.0,2.3091,0.0,2.2403,2.2194,2.2202,2.1937,0.0,0.0,2.1487,2.1395,2.1645,2.1431,2.1329,2.1465,2.1077,2.0759,2.0632,2.0852,2.1,2.092,2.0498,2.0364,2.0815,2.0958,2.1188,2.1571,2.1742,2.1822,2.1781,2.1822,2.1762,2.1731,2.1621,2.1602,2.1563,2.167,2.1784,2.1777,2.1877,2.1977,2.2044,2.2017,2.199,2.1857,2.1789,2.1828,2.1822,2.2066,2.2312,3.4291,3.3998,3.3297,3.3049,3.3005,3.2121,3.1133,3.0163,2.9747,2.9278,2.8782,2.8357,2.8196,2.8171,2.8171,2.8056,2.7839,2.7839,2.7712,2.7542,2.7517,2.7646,2.7861,2.7835,2.7969,2.8154,2.8154,2.8154,2.8154,2.8154,2.8164,2.8154,2.8181,2.8154,2.8115,2.7393,2.7012,2.6996,2.6884,2.6823,2.6807,2.6679,2.6474,2.6207,2.6207,2.6053,2.5752,2.5752,2.564,2.5398,2.5021,2.4681,2.4456,2.4091,2.3887,0.0,0.0,0.0,0.0,0.0,0.0,0.0,0.0,0.0,0.0,0.0,2.2574,0.0,2.1775,2.1611,2.1737,2.1514,2.1418,2.1539,2.129,2.122,2.1394,2.1303,2.12,2.1196,2.1158,2.1047,2.0913,2.1224,2.1503,2.1496,2.1184,2.1097,2.1416,2.1503,2.1623,2.1931,2.2017,2.2017,2.2017,2.2017,2.2017,2.2017,2.2017,2.2017,2.2024,2.2098,2.2178,2.2191,2.2392,2.2579,2.2585,2.2733,2.2779,2.2813,2.2813,2.2612,2.2131,2.2149,2.2274,3.5192,3.4866,3.3952,3.3433,3.3062,3.1557,3.0375,2.9517,2.9226,2.8818,2.8345,2.813,2.8028,2.8028,2.8018,2.7916,2.7675,2.7685,2.7763,2.7953,2.7936,2.8327,2.8994,2.8976,2.9199,2.9588,2.9608,2.9608,2.9608,2.9608,2.9608,2.9608,2.9608,2.9608,2.954,2.8086,2.7318,2.7266,2.7049,2.6894,2.679,2.653,2.6199,2.5875,2.5849,2.5655,2.532,2.5293,2.5265,2.5148,2.4562,2.4219,2.4175,2.3665,2.3391,0.0,2.3391,0.0,0.0,0.0,0.0,0.0,0.0,0.0,0.0,2.236,2.2017,2.1557,2.1286,2.124,2.1521,2.1329,2.1301,2.1535,2.13,2.1155,2.1232,2.1215,2.1098,2.09,2.134,2.154,2.1306,2.171,2.2044,2.2124,2.2131,2.2171,2.2211,2.2158,2.2158,2.2171,2.2191,2.2358,2.2365,2.2311,2.2318,2.2251,2.2305,2.2218,2.2318,2.2465,2.2578,2.2618,2.302,2.334,2.3345,2.3574,2.377,2.3723,2.371,2.3409,2.2572,2.2358,2.2218,3.4343,3.3963,3.2878,3.2259,3.1941,3.1146,3.0849,3.0876,3.0353,2.9821,2.9329,2.9274,2.9247,2.9247,2.9247,2.9247,2.9192,2.9192,2.9213,2.9246,2.9237,2.9324,2.9443,2.9471,2.952,2.9598,2.9608,2.9608,2.9608,2.9608,2.9608,2.9608,2.9608,2.9608,2.9588,0.0,0.0,0.0,2.8651,2.8374,2.793,2.7809,2.7427,2.6632,2.6595,0.0,2.536,2.5306,2.502,2.444,2.384,0.0,0.0,0.0,0.0,0.0,0.0,0.0,0.0,0.0,0.0,0.0,2.2379,2.2235,2.2127,2.1888,2.1677,2.1598,2.1338,2.1224,2.1281,2.1218,2.1214,2.1263,2.099,2.0988,2.1424,2.1287,2.1274,2.1694,2.1848,2.1915,2.1877,2.2124,2.2432,2.2706,2.2913,2.3166,2.3402,2.3014,2.2799,2.302,2.32,2.3429,2.3469,2.3422,2.3355,2.3469,2.3469,2.3435,2.3409,2.3455,2.3529,2.3516,2.3649,2.3723,2.3688,2.3741,2.385,2.3817,2.3823,2.3736,2.3516,2.3462,2.3469,3.3977,0.0,3.2555,3.2075,0.0,3.1311,3.1152,3.1224,3.0512,2.996,2.9598,2.9608,2.9608,2.9608,2.9608,2.9608,2.9608,2.9608,2.9608,2.9608,2.9608,2.9706,2.9883,2.9901,3.0028,3.0253,3.0225,3.0225,3.0253,3.0253,3.0253,3.0253,3.0243,3.0148,2.9976,2.9652,2.9298,2.886,2.855,2.8125,2.7537,2.7337,2.6812,2.5908,0.0,0.0,0.0,0.0,0.0,0.0,0.0,0.0,0.0,0.0,0.0,2.2015,2.1987,2.2055,2.2244,2.1956,2.1867,2.2053,2.1787,2.1686,2.1777,2.1547,2.1384,2.1406,2.1134,2.1071,2.1368,2.1249,2.1272,2.1553,2.1443,2.1484,2.174,2.1666,2.1657,2.1931,2.2111,2.2245,2.2405,2.2679,2.2979,2.3302,2.3434,2.3601,2.375,2.3549,2.3422,2.3527,2.3654,2.3803,2.381,2.381,2.3817,2.381,2.381,2.381,2.381,2.381,2.381,2.3817,2.3917,2.3981,2.3995,2.4095,2.4195,2.4195,2.4195,2.4195,2.4182,2.4017,2.381,3.3873,3.3514,3.2635,3.226,3.2231,3.1699,3.1485,3.1386,0.0,0.0,0.0,2.9823,2.9833,2.9833,2.9833,2.9823,2.9833,2.9833,2.9833,2.9833,2.9823,3.0018,3.0341,3.0351,3.0527,3.0908,3.0928,3.0928,3.0889,3.082,3.082,3.0791,3.0772,3.0548,3.0177,2.952,2.8881,2.8319,2.7929,2.742,2.6696,2.6414,2.5771,2.4792,2.4754,2.4456,2.3779,2.3771,2.3718,2.3655,2.3071,2.2751,2.2751,2.2222,2.1952,2.1929,2.1929,2.1959,2.1929,2.1668,2.1553,2.16,2.1397,2.1353,2.1513,2.1381,2.1285,2.128,2.106,2.1152,2.1622,2.1422,2.1456,2.1937,2.2017,2.2024,2.2051,2.2118,2.2204,2.2238,2.2512,2.2746,2.3027,2.3233,2.3507,2.3768,2.3834,2.3917,2.3908,2.3881,2.3884,2.3971,2.3995,2.3955,2.3935,2.3961,2.3957,2.4011,2.3955,2.3921,2.3964,2.3921,2.3921,2.3975,2.4135,2.4255,2.4295,2.4406,2.4586,2.4592,2.4592,2.4592,2.4559,2.4269,2.3968,3.4051,3.3459,3.2824,3.2525,3.2525,3.2214,3.2083,3.2004,3.1133,3.0761,3.0703,3.0703,3.0742,3.0703,3.0742,3.0732,3.0703,3.0713,3.0703,0.0,3.0703,3.0761,3.0791,3.082,3.083,3.0889,3.0928,3.0928,3.0859,3.0616,3.048,3.0431,3.0186,2.9863,2.9481,2.8659,2.788,2.7249,2.7714,2.7394,2.6251,2.6161,2.5524,2.4309,2.4209,2.3757,2.2838,2.28,2.2674,2.2386,2.1998,2.1811,2.1781,2.1516,2.1345,2.1345,2.1314,2.1345,2.1321,2.1277,2.1357,2.1593,2.1565,2.1441,2.1218,2.1427,2.1531,2.156,2.1672,2.1868,2.1929,2.189,2.1911,2.2004,2.2037,2.2084,2.2365,2.2639,2.2867,2.3066,2.3394,2.3554,2.3643,2.371,2.385,2.4068,2.4142,2.4222,2.4369,2.4295,2.4269,2.4449,2.4479,2.4479,2.4419,2.4466,2.4462,2.4479,2.4439,2.4406,2.4442,2.4442,2.4442,2.4452,2.4472,2.4506,2.4526,2.4559,2.4592,2.4592,2.4592,2.4592,2.4592,2.4492,2.4432,3.3455,3.2975,3.2573,3.2401,3.2371,3.2259,3.2198,3.2169,3.1788,3.1612,3.1622,3.1612,3.1612,3.1612,3.1582,3.1612,3.1612,3.1622,3.1582,3.1582,3.1612,3.1622,3.1582,3.1612,3.1612,3.1582,3.1363,3.1273,3.1244,3.0934,3.0684,3.0464,2.9829,2.9374,2.9182,2.8087,2.7275,2.68,2.6917,2.6341,2.5065,2.5146,2.468,2.3597,2.3689,2.3471,2.2843,2.2804,2.274,2.2611,2.2275,2.2086,2.2086,2.1809,2.1619,2.1619,2.1626,2.1626,2.1619,2.1626,2.1679,2.1822,2.1801,2.1742,2.1595,2.1722,2.1831,2.181,2.195,2.2058,2.2211,2.2398,2.2559,2.2699,2.2853,2.3041,2.3133,2.3295,2.3414,2.3554,2.3681,2.3863,2.3988,2.4008,2.4115,2.4376,2.4436,2.4459,2.4579,2.4492,2.4439,2.4566,2.4592,2.4592,2.4592,2.4592,2.4592,2.4592,2.4592,2.4592,2.4592,2.4592,2.4592,2.4592,2.4592,2.4592,2.4592,2.4592,2.4592,2.4592,2.4592,2.4592,2.4592,2.4592,2.4592,3.3103,3.2758,3.2564,3.2482,3.2482,3.2482,3.2451,3.2451,3.2451,3.2482,3.2462,3.2296,3.2198,3.2198,3.2198,3.2198,3.2198,3.2198,3.2198,3.2198,3.2198,3.2198,3.2198,3.2198,3.2168,3.2046,3.1753,3.1539,3.1356,3.1049,3.0618,3.0105,2.9141,2.8649,2.8618,2.7387,2.6528,2.6136,2.5784,2.5139,2.4118,2.4209,2.3858,2.3046,2.3155,2.3126,2.2792,2.2766,2.2766,2.2766,2.2536,2.2379,2.2379,2.2149,2.2017,2.2017,2.2017,2.2017,2.2017,2.2017,2.2011,2.2078,2.2184,2.2211,2.2285,2.2385,2.2318,2.2251,2.2278,2.2432,2.2719,2.2967,2.3201,2.3414,2.3621,2.3743,2.3797,2.3857,2.3861,2.391,2.3928,2.4075,2.4235,2.4266,2.4389,2.4526,2.4592,2.4592,2.4592,2.4592,2.4592,2.4592,2.4592,2.4592,2.4592,2.4592,2.4592,2.4592,2.4592,2.4592,2.4592,2.4592,2.4592,2.4592,2.4592,2.4592,2.4592,2.4592,2.4592,2.4592,2.4592,2.4592,2.4592,2.4592,2.4592,3.3646,3.3332,3.331,3.3301,3.331,3.331,3.3301,3.331,3.331,3.331,3.3242,3.251,3.2247,3.2198,3.2228,3.2247,3.2237,3.2208,3.2228,3.2228,3.2198,3.2198,3.2217,3.2218,3.2016,3.173,3.1627,3.1316,3.0773,3.0383,2.9747,2.8783,2.7767,2.735,2.7206,2.6288,2.5404,2.472,2.4369,2.4145,2.4016,2.3746,2.324,2.2561,2.2595,2.2445,2.2182,2.2083,2.209,2.2083,2.211,2.2063,2.207,2.1997,2.2037,2.205,2.2011,2.2017,2.2037,2.2017,2.2144,2.2365,2.2645,2.2893,2.3118,2.3462,2.3388,2.3007,2.3046,2.3245,2.3594,2.369,2.371,2.3714,2.3823,2.381,2.3877,2.4008,2.4162,2.4168,2.4356,2.4526,2.4512,2.4519,2.4546,2.4579,2.4592,2.4592,2.4592,2.4592,2.4592,2.4592,2.4592,2.4592,2.4592,2.4592,2.4592,2.4592,2.4592,2.4592,2.4592,2.4592,2.4592,2.4592,2.4592,2.4592,2.4592,2.4592,2.4592,2.4592,2.4592,2.4592,2.4592,2.4592,2.4592,3.4309,3.418,3.417,3.418,3.418,3.418,3.417,3.418,3.418,3.418,3.4108,3.3809,3.3389,3.292,3.291,3.291,3.291,3.29,3.291,3.291,3.291,3.2817,3.263,3.263,3.2339,3.1825,3.1798,3.1473,3.0721,2.9966,2.9355,2.8901,2.7911,2.7275,2.6998,2.623,2.5568,2.5035,2.4469,2.4168,2.4098,2.348,2.2903,2.2525,2.2647,2.2667,2.2573,2.2532,2.2532,2.2552,2.2672,2.2779,2.2779,2.2939,2.3074,2.3074,2.3074,2.304,2.3074,2.3074,2.3128,2.3248,2.3355,2.3496,2.3574,2.3736,2.375,2.3681,2.3621,2.3647,2.381,2.3957,2.4028,2.4048,2.4168,2.4275,2.4289,2.4346,2.4419,2.4432,2.4526,2.4592,2.4592,2.4592,2.4592,2.4592,2.4592,2.4592,2.4592,2.4592,2.4592,2.4592,2.4592,2.4592,2.4592,2.4592,2.4592,2.4592,2.4592,2.4592,2.4592,2.4592,2.4592,2.4592,2.4592,2.4592,2.4592,2.4592,2.4592,2.4592,2.4592,2.4592,2.4592,2.4592,2.4592,3.4697,3.4697,3.4697,3.4697,3.4697,3.4697,3.4697,3.4697,3.4697,3.4697,3.4697,3.4697,3.4365,3.3796,3.3769,3.3738,3.3738,3.3738,3.3706,3.3642,3.361,3.3386,3.3001,3.2946,3.255,3.1884,3.1804,3.1345,3.0395,2.9162,2.8589,2.8451,2.7532,2.6836,2.6556,2.5968,2.5483,2.5088,2.4536,2.4266,2.4093,2.35,2.3025,2.284,2.3034,2.3148,2.3148,2.3148,2.3141,2.3148,2.3333,2.3447,2.3454,2.3654,2.381,2.381,2.381,2.381,2.381,2.381,2.381,2.3817,2.387,2.3888,2.3944,2.3961,2.4095,2.4249,2.4135,2.4015,2.4035,2.4195,2.4279,2.4335,2.4486,2.4592,2.4579,2.4592,2.4586,2.4592,2.4586,2.4592,2.4592,2.4592,2.4592,2.4592,2.4592,2.4592,2.4592,2.4592,2.4592,2.4592,2.4592,2.4592,2.4592,2.4592,2.4592,2.4592,2.4592,2.4592,2.4592,2.4592,2.4592,2.4592,2.4592,2.4592,2.4592,2.4592,2.4556,2.4592,2.4556,2.4556,2.4592,2.4599,2.4599,3.4697,3.4717,3.4707,3.4746,3.4707,3.4736,3.4726,3.4795,3.4746,3.4726,3.4766,3.4746,3.4697,3.4616,3.4606,3.4606,3.4619,3.4538,3.4332,3.4079,3.4066,3.3742,3.3132,3.3099,3.2472,3.1354,3.1308,3.0641,2.9268,2.7837,2.7099,2.706,2.616,2.5539,2.549,2.5187,2.472,2.4462,2.4363,2.4186,2.3895,2.3777,2.3765,2.3723,2.3743,2.3716,2.3736,2.375,2.375,2.3756,2.377,2.3783,2.379,2.3817,2.385,2.3837,2.383,2.383,2.3843,2.3863,2.3857,2.387,2.4055,2.4182,2.4195,2.4352,2.4486,2.4559,2.4512,2.4492,2.4492,2.4492,2.4539,2.4546,2.4572,2.4592,2.4592,2.4592,2.4592,2.4592,2.4592,2.4592,2.4592,2.4592,2.4592,2.4592,2.4592,2.4592,2.4592,2.4592,2.4592,2.4592,2.4592,2.4592,2.4592,2.4592,2.4592,2.4592,2.4592,2.4599,2.4592,2.4592,2.4556,2.4525,2.4451,2.4451,2.4562,2.4556,2.4482,2.4445,2.4408,2.4408,2.4297,2.4488,2.4451,3.5547,3.5547,3.5547,3.5547,3.5547,3.5513,3.5513,3.5513,3.5537,3.5547,3.5547,3.5537,3.5412,3.5201,3.521,3.4911,3.4427,3.4388,3.4049,3.3544,3.3477,3.2979,3.2076,3.2009,3.1293,3.0199,3.0248,2.972,2.8507,2.722,2.6617,2.651,2.6006,2.5543,2.5297,2.5152,2.4861,2.4541,2.4504,2.4431,2.4309,2.4322,2.4329,2.4302,2.3997,2.381,2.381,2.381,2.381,2.381,2.3941,2.4048,2.4068,2.4222,2.4322,2.4322,2.4322,2.4322,2.4322,2.4329,2.4322,2.4299,2.4379,2.4432,2.4452,2.4539,2.4592,2.4592,2.4592,2.4592,2.4592,2.4592,2.4592,2.4592,2.4592,2.4592,2.4592,2.4592,2.4592,2.4592,2.4592,2.4592,2.4592,2.4592,2.4592,2.4592,2.4592,2.4592,2.4592,2.4592,2.4592,2.4592,2.4592,2.4592,2.4592,2.4592,2.4592,2.4592,2.4599,2.4599,2.4562,2.4267,2.4149,2.4038,2.4007,2.3822,2.3779,2.3816,2.3816,2.3853,2.3853,2.3816,2.3816,2.3816,2.3816,3.6025,3.6025,3.6025,3.6025,3.6025,3.6025,3.6025,3.6025,3.6025,3.6025,3.5991,3.5889,3.5709,3.5489,3.524,3.4671,3.3963,3.4136,3.3825,3.3007,3.2964,3.232,3.1227,3.1098,3.028,2.8994,2.8711,2.8251,2.7549,2.6495,2.6026,2.5983,2.5616,2.5293,2.5042,2.5005,2.4857,2.4636,2.4592,2.4592,2.4592,2.4592,2.4592,2.4546,2.4249,2.4048,2.4048,2.4055,2.4048,2.4075,2.4242,2.4349,2.4362,2.4492,2.4592,2.4592,2.4592,2.4592,2.4592,2.4592,2.4592,2.4592,2.4592,2.4592,2.4592,2.4592,2.4592,2.4592,2.4592,2.4592,2.4592,2.4592,2.4592,2.4592,2.4592,2.4592,2.4592,2.4592,2.4592,2.4592,2.4592,2.4592,2.4592,2.4592,2.4592,2.4592,2.4592,2.4592,2.4592,2.4592,2.4525,2.4451,2.4371,2.426,2.4149,2.4038,2.4377,2.4414,2.4297,2.4341,2.423,2.389,2.3593,2.3519,2.3333,2.311,2.2999,2.2992,2.2992,2.2992,2.3036,2.3036,2.2999,2.2992,2.2955,3.6025,3.6025,3.6025,3.6025,3.6025,3.6025,3.6025,3.6025,3.6025,3.5991,3.5923,3.5684,3.547,3.5274,3.4646,3.3944,3.3298,3.3661,3.3428,3.2551,3.2534,3.1729,3.0337,3.0249,2.9495,2.8036,2.6968,2.648,2.6392,2.5667,2.5263,2.5159,2.4894,2.4747,2.4636,2.4636,2.4636,2.4592,2.4592,2.4592,2.4592,2.4592,2.4592,2.4592,2.4546,2.4526,2.4552,2.4546,2.4519,2.4539,2.4559,2.4586,2.4566,2.4592,2.4592,2.4592,2.4592,2.4592,2.4592,2.4592,2.4592,2.4592,2.4592,2.4592,2.4592,2.4592,2.4592,2.4592,2.4592,2.4592,2.4592,2.4592,2.4592,2.4592,2.4592,2.4592,2.4592,2.4592,2.4592,2.4592,2.4592,2.4592,2.4592,2.4592,2.4592,2.4592,2.4562,2.4525,2.4482,2.4445,2.4377,2.4075,2.389,2.3735,2.3556,2.3445,2.3896,2.4193,2.3964,2.3853,2.3593,2.3259,2.2725,2.2539,2.2091,2.1873,2.1798,2.183,2.1873,2.191,2.2029,2.1997,2.191,2.183,2.1942,3.6025,3.6025,3.6025,3.6025,3.6025,3.6025,3.6025,3.6025,3.6025,3.5879,3.565,3.5538,3.5059,3.4326,3.3798,3.2876,3.1762,3.1683,3.1463,3.1145,3.111,3.0329,2.9071,2.8819,2.8179,2.6961,2.6026,2.5557,2.5483,2.5042,2.4784,2.4747,2.4673,2.4599,2.4592,2.4592,2.4592,2.4592,2.4592,2.4592,2.4592,2.4592,2.4592,2.4592,2.4592,2.4592,2.4592,2.4592,2.4592,2.4592,2.4592,2.4592,2.4592,2.4592,2.4592,2.4592,2.4592,2.4592,2.4592,2.4592,2.4592,2.4592,2.4592,2.4592,2.4592,2.4592,2.4592,2.4592,2.4592,2.4592,2.4592,2.4592,2.4592,2.4592,2.4592,2.4592,2.4592,2.4592,2.4592,2.4592,2.4592,2.4592,2.4592,2.4592,2.4556,2.4519,2.4371,2.4149,2.4156,2.3927,2.363,2.3259,2.3185,2.2955,2.2545,2.2321,2.2583,2.2955,2.2955,2.303,2.2843,2.2203,2.1712,2.1236,2.0823,2.0657,2.0614,2.0616,2.0617,2.0578,2.0551,2.0535,2.0528,2.0561,2.0633,3.6025,3.6025,3.6025,3.6025,3.6025,3.6025,3.6025,3.5991,3.5879,3.5675,3.5445,3.5024,3.4395,3.3546,3.2771,3.1718,3.0567,2.9866,2.9401,2.923,2.9473,2.8791,2.7528,2.7136,2.6706,2.599,2.5299,2.4975,2.4975,2.471,2.4599,2.4599,2.4592,2.4592,2.4592,2.4592,2.4592,2.4592,2.4592,2.4592,2.4592,2.4592,2.4592,2.4592,2.4592,2.4592,2.4592,2.4592,2.4592,2.4592,2.4592,2.4592,2.4592,2.4592,2.4592,2.4592,2.4592,2.4592,2.4592,2.4592,2.4592,2.4592,2.4592,2.4592,2.4592,2.4592,2.4592,2.4592,2.4592,2.4592,2.4592,2.4592,2.4592,2.4592,2.4592,2.4592,2.4592,2.4592,2.4592,2.4592,2.4592,2.4592,2.4592,2.4451,2.4371,2.4297,2.389,2.3556,2.3482,2.3215,2.2732,2.2321,2.2091,2.1792,2.1349,2.1236,2.1268,2.1493,2.1755,2.1904,2.1942,2.0769,1.9978,1.9536,1.9101,1.9095,1.9078,1.9147,1.916,1.9116,1.9065,1.9108,1.916,1.9139,1.918,3.6025,3.6025,3.6025,3.6025,3.6025,3.6025,3.5991,3.5923,3.565,3.5445,3.5137,3.4292,3.3511,3.2806,3.1613,3.0524,2.9588,2.8611,2.7716,2.7405,2.7543,2.7281,2.6422,2.5733,2.541,2.5189,2.4814,2.4636,2.4673,2.4636,2.4592,2.4592,2.4592,2.4592,2.4592,2.4592,2.4592,2.4592,2.4592,2.4592,2.4592,2.4592,2.4592,2.4592,2.4592,2.4592,2.4592,2.4592,2.4592,2.4592,2.4592,2.4592,2.4592,2.4592,2.4592,2.4592,2.4592,2.4592,2.4592,2.4592,2.4592,2.4592,2.4592,2.4592,2.4592,2.4592,2.4592,2.4592,2.4592,2.4592,2.4592,2.4592,2.4592,2.4562,2.4562,2.4562,2.4562,2.4525,2.4488,2.4451,2.4525,2.4519,2.4408,2.4119,2.3927,2.3742,2.3178,2.2725,2.2545,2.2166,2.1643,2.1225,2.0774,2.0355,1.9833,1.9682,1.9644,1.9677,1.9946,2.0135,2.0431,1.9389,1.8275,1.7784,1.7601,1.7613,1.7567,1.7617,1.7638,1.761,1.7643,1.7741,1.7727,1.7652,1.7677,3.6025,3.6025,3.6025,3.6025,3.6025,3.6025,3.5845,3.565,3.5538,3.499,3.4267,3.365,3.2666,3.1551,3.0559,2.9373,2.8259,2.7543,2.6677,2.5814,2.585,2.585,2.5483,2.5042,2.4784,2.4747,2.4673,2.4592,2.4592,2.4592,2.4592,2.4592,2.4592,2.4592,2.4592,2.4592,2.4592,2.4592,2.4592,2.4592,2.4592,2.4592,2.4592,2.4592,2.4592,2.4592,2.4592,2.4592,2.4592,2.4592,2.4592,2.4592,2.4592,2.4592,2.4592,2.4592,2.4592,2.4592,2.4592,2.4592,2.4592,2.4592,2.4592,2.4592,2.4592,2.4592,2.4592,2.4592,2.4592,2.4562,2.4599,2.4556,2.4445,2.426,2.4297,2.4414,2.4223,2.4149,2.4075,2.3779,2.3742,2.3704,2.363,2.337,2.3067,2.2918,2.2203,2.1406,2.1262,2.0774,2.0129,1.9563,1.911,1.8694,1.8314,1.813,1.8016,1.7897,1.794,1.7911,1.8132,1.7904,1.6877,1.6039,1.6224,1.6288,1.6139,1.6054,1.6092,1.6336,1.6275,1.634,1.6161,1.6066,1.6167,3.6025,3.6025,3.6025,3.6025,3.5991,3.5845,3.5684,3.5411,3.4956,3.4326,3.3477,3.264,3.1613,3.0461,2.9346,2.8295,2.7296,2.6546,2.5857,2.5336,2.5079,2.4968,2.4901,2.4673,2.4592,2.4592,2.4592,2.4592,2.4592,2.4592,2.4592,2.4592,2.4592,2.4592,2.4592,2.4592,2.4592,2.4592,2.4592,2.4592,2.4592,2.4592,2.4592,2.4592,2.4592,2.4592,2.4592,2.4592,2.4592,2.4592,2.4592,2.4592,2.4592,2.4592,2.4592,2.4592,2.4592,2.4592,2.4592,2.4592,2.4592,2.4592,2.4592,2.4592,2.4592,2.4599,2.4562,2.4334,2.4377,2.426,2.4119,2.4112,2.389,2.3587,2.3704,2.3816,2.3742,2.3593,2.3408,2.3185,2.2992,2.2887,2.285,2.2396,2.2129,2.1786,2.0769,2.0242,1.9865,1.9223,1.8542,1.7973,1.7555,1.7212,1.6793,1.6568,1.6519,1.6399,1.6353,1.6219,1.6233,1.6359,1.5763,1.5066,1.5042,1.5012,1.5012,1.5047,1.523,1.5342,1.5118,1.5098,1.5086,1.5039,1.5047,3.6025,3.6025,3.6025,3.5982,3.5889,3.5606,3.5411,3.5093,3.4223,3.3442,3.2701,3.1445,3.0346,2.9481,2.8114,2.7187,2.6735,2.5821,2.5343,2.5012,2.4821,2.4673,2.4673,2.4636,2.4592,2.4592,2.4592,2.4592,2.4592,2.4592,2.4592,2.4592,2.4592,2.4592,2.4592,2.4592,2.4592,2.4592,2.4592,2.4592,2.4592,2.4592,2.4592,2.4592,2.4592,2.4592,2.4592,2.4592,2.4592,2.4592,2.4592,2.4592,2.4592,2.4592,2.4592,2.4592,2.4592,2.4592,2.4592,2.4592,2.4592,2.4592,2.4562,2.4525,2.4488,2.4377,2.4186,2.3816,2.389,2.363,2.3333,2.3296,2.303,2.2694,2.2583,2.2769,2.2881,2.2769,2.262,2.2545,2.2172,2.1985,2.1761,2.1337,2.0725,2.0468,1.9445,1.8575,1.8158,1.7631,1.6945,1.6296,1.599,1.5761,1.5344,1.4968,1.4958,1.496,1.4955,1.4912,1.4817,1.4801,1.458,1.4343,1.4286,1.4316,1.4342,1.4453,1.4526,1.4493,1.4419,1.4467,1.4511,1.4434,1.4408,3.6025,3.6025,3.6025,3.5855,3.5616,3.5514,3.499,3.4154,3.3581,3.2596,3.1409,3.0195,2.9051,2.797,2.7071,2.6283,2.5747,2.5306,2.5049,2.471,2.4673,2.4592,2.4592,2.4592,2.4592,2.4592,2.4592,2.4592,2.4592,2.4592,2.4592,2.4592,2.4592,2.4592,2.4592,2.4592,2.4592,2.4592,2.4592,2.4592,2.4592,2.4592,2.4592,2.4592,2.4592,2.4592,2.4592,2.4592,2.4592,2.4592,2.4599,2.4562,2.4599,2.4592,2.4592,2.4562,2.4562,2.4599,2.4599,2.4525,2.4592,2.4488,2.4223,2.4149,2.4112,2.3816,2.3482,2.3147,2.3067,2.285,2.2439,2.2439,2.206,2.1524,2.1337,2.115,2.0812,2.1069,2.1225,2.0924,2.0586,2.0328,2.0259,1.9601,1.9148,1.8883,1.8049,1.6945,1.6449,1.6071,1.5535,1.496,1.4845,1.4695,1.4322,1.4052,1.405,1.4048,1.4013,1.4029,1.3927,1.3868,1.3922,1.3787,1.3586,1.3627,1.3881,1.3786,1.3873,1.3762,1.3769,1.3852,1.3935,1.3852,1.3852,3.6025,3.5991,3.5821,3.565,3.5445,3.4931,3.4257,3.3416,3.2535,3.1436,3.0159,2.8979,2.7905,2.6969,2.621,2.5564,2.5233,2.4968,2.4821,2.4636,2.4592,2.4592,2.4592,2.4592,2.4592,2.4592,2.4592,2.4592,2.4592,2.4592,2.4592,2.4592,2.4592,2.4592,2.4592,2.4592,2.4592,2.4592,2.4592,2.4592,2.4592,2.4592,2.4592,2.4592,2.4592,2.4592,2.4592,2.4592,2.4592,2.4562,2.4414,2.4414,2.4562,2.4599,2.4519,2.4341,2.4341,2.4193,2.4119,2.4038,2.4001,2.4001,2.3667,2.3482,2.3333,2.3073,2.2539,2.2129,2.1899,2.1755,2.1161,2.1048,2.0667,2.0097,1.9865,1.9526,1.9002,1.9375,1.9828,1.9493,1.9039,1.8769,1.8428,1.7935,1.7593,1.7402,1.6445,1.5416,1.5301,1.4883,1.4422,1.4003,1.3887,1.3663,1.3334,1.3212,1.3297,1.3378,1.3508,1.3549,1.3561,1.3541,1.3565,1.3442,1.3384,1.3401,1.3538,1.3397,1.34,1.348,1.3521,1.3441,1.3441,1.3562,1.3604,3.5982,3.5923,3.5616,3.5411,3.5093,3.4154,3.3372,3.2622,3.1409,3.0195,2.8979,2.7833,2.6969,2.6173,2.5483,2.5115,2.5012,2.4821,2.4636,2.4599,2.4592,2.4592,2.4592,2.4592,2.4592,2.4592,2.4592,2.4592,2.4592,2.4592,2.4592,2.4592,2.4592,2.4592,2.4592,2.4592,2.4592,2.4592,2.4592,2.4592,2.4592,2.4592,2.4592,2.4592,2.4482,2.4445,2.4408,2.4371,2.4334,2.4408,2.4038,2.4044,2.423,2.4377,2.423,2.3853,2.3779,2.3593,2.3296,2.3222,2.3215,2.3178,2.2769,2.2545,2.2396,2.1985,2.1337,2.0806,2.0393,2.0048,1.9531,1.9455,1.9039,1.8471,1.8238,1.7859,1.7364,1.7631,1.7783,1.8087,1.7516,1.7098,1.6831,1.6453,1.6148,1.5765,1.4845,1.4191,1.408,1.3887,1.3502,1.327,1.3197,1.3197,1.2902,1.3009,1.3008,1.3071,1.3162,1.3275,1.3356,1.3435,1.3473,1.3452,1.339,1.34,1.34,1.34,1.34,1.34,1.34,1.34,1.34,1.34,1.34,3.5855,3.5582,3.5514,3.4956,3.4084,3.3502,3.2526,3.1339,3.0373,2.9158,2.7825,2.6925,2.6136,2.5446,2.4931,2.471,2.471,2.4636,2.4592,2.4592,2.4592,2.4592,2.4592,2.4592,2.4592,2.4592,2.4592,2.4592,2.4592,2.4592,2.4592,2.4592,2.4592,2.4592,2.4592,2.4592,2.4592,2.4592,2.4592,2.4592,2.4592,2.4562,2.4519,2.4482,2.4223,2.4038,2.3964,2.3779,2.3593,2.3556,2.3222,2.3073,2.311,2.3327,2.3253,2.3067,2.2918,2.2732,2.2359,2.2327,2.2359,2.2247,2.168,2.1294,2.1112,2.0629,1.9833,1.911,1.8423,1.793,1.7816,1.7783,1.7402,1.6869,1.6564,1.6339,1.5688,1.5459,1.5722,1.6296,1.5837,1.5497,1.5382,1.5228,1.496,1.4653,1.4041,1.354,1.3425,1.3193,1.2849,1.2695,1.2656,1.2617,1.2582,1.2867,1.3005,1.3067,1.3166,1.3333,1.3386,1.339,1.34,1.34,1.34,1.34,1.34,1.34,1.34,1.34,1.34,1.34,1.34,1.34,1.34,3.565,3.5445,3.4887,3.4188,3.3407,3.2456,3.1445,3.0318,2.913,2.797,2.6961,2.6136,2.5446,2.4968,2.471,2.4592,2.4592,2.4592,2.4592,2.4592,2.4592,2.4592,2.4592,2.4592,2.4592,2.4592,2.4592,2.4592,2.4592,2.4592,2.4592,2.4592,2.4592,2.4592,2.4592,2.4592,2.4592,2.4592,2.4592,2.4599,2.4562,2.4414,2.4297,2.4149,2.3698,2.3408,2.3296,2.2999,2.2806,2.2657,2.2203,2.1936,2.183,2.1643,2.1637,2.1749,2.183,2.1568,2.108,2.0973,2.093,2.0855,2.0204,1.9822,1.9558,1.9034,1.8205,1.744,1.664,1.6143,1.6143,1.6186,1.588,1.542,1.5263,1.496,1.4464,1.4003,1.423,1.4691,1.4541,1.4387,1.4353,1.4122,1.3849,1.3502,1.3158,1.2965,1.2849,1.2695,1.2501,1.2501,1.2501,1.2501,1.2542,1.2805,1.2992,1.3067,1.321,1.3336,1.34,1.34,1.34,1.34,1.34,1.34,1.34,1.34,1.34,1.34,1.34,1.34,1.34,1.34,1.34,3.5377,3.5059,3.4084,3.3303,3.2587,3.1347,3.0203,2.9194,2.8013,2.6969,2.6143,2.552,2.5012,2.471,2.4599,2.4592,2.4592,2.4592,2.4592,2.4592,2.4592,2.4592,2.4592,2.4592,2.4592,2.4592,2.4592,2.4592,2.4592,2.4592,2.4592,2.4592,2.4592,2.4592,2.4592,2.4592,2.4592,2.4592,2.4592,2.4562,2.4377,2.4038,2.3779,2.3661,2.2918,2.2427,2.2359,2.1867,2.168,2.1418,2.0962,2.0505,2.0393,1.9757,1.9563,1.9973,2.0317,2.0059,1.9569,1.9309,1.9304,1.9299,1.8585,1.8238,1.7892,1.7321,1.6521,1.5837,1.5228,1.481,1.4849,1.4772,1.458,1.4272,1.4157,1.3964,1.3583,1.3274,1.3116,1.3347,1.3316,1.3432,1.347,1.3393,1.3193,1.3116,1.2811,1.2772,1.2656,1.2617,1.2501,1.2501,1.2501,1.2501,1.2586,1.2816,1.2952,1.3023,1.3214,1.3376,1.34,1.34,1.34,1.34,1.34,1.34,1.34,1.34,1.34,1.34,1.34,1.34,1.34,1.34,1.34,3.4896,3.3955,3.3442,3.2491,3.1233,3.031,2.9087,2.7825,2.7231,2.6399,2.5453,2.5226,2.4938,2.4673,2.4592,2.4592,2.4592,2.4592,2.4592,2.4592,2.4592,2.4592,2.4592,2.4592,2.4592,2.4592,2.4592,2.4592,2.4562,2.4562,2.4592,2.4592,2.4592,2.4599,2.4525,2.4519,2.4592,2.4556,2.4556,2.4377,2.3964,2.329,2.2955,2.262,2.1824,2.1144,2.1031,2.0511,2.0102,1.9989,1.9304,1.8921,1.8769,1.8125,1.7364,1.7398,1.7854,1.8542,1.7821,1.7669,1.7669,1.7555,1.6945,1.6564,1.622,1.5569,1.4879,1.4653,1.4122,1.3895,1.3856,1.3852,1.3621,1.3467,1.3351,1.312,1.2811,1.293,1.2733,1.2695,1.2926,1.2811,1.2811,1.2695,1.2579,1.254,1.254,1.254,1.2501,1.2501,1.2501,1.2501,1.2501,1.2501,1.2586,1.2819,1.2938,1.2996,1.322,1.3393,1.34,1.34,1.34,1.34,1.34,1.34,1.34,1.34,1.34,1.34,1.34,1.34,1.34,1.34,1.34,3.3616,3.3103,3.2281,3.1339,3.0203,2.9015,2.805,2.7158,2.6319,2.5704,2.5196,2.4931,2.4747,2.4636,2.4592,2.4592,2.4592,2.4592,2.4592,2.4592,2.4592,2.4592,2.4592,2.4592,2.4592,2.4562,2.4562,2.4414,2.4414,2.4451,2.4592,2.4556,2.4562,2.4451,2.423,2.4267,2.4119,2.3933,2.3704,2.3482,2.3104,2.2353,2.1749,2.1674,2.0355,1.9747,1.945,1.8883,1.8471,1.8319,1.7669,1.7255,1.7064,1.6492,1.5765,1.5382,1.5761,1.6105,1.6071,1.6071,1.6109,1.5956,1.5535,1.5075,1.4729,1.4195,1.3694,1.3656,1.3274,1.3081,1.3046,1.3007,1.293,1.2814,1.2811,1.2733,1.2579,1.254,1.254,1.254,1.2501,1.2501,1.2501,1.2501,1.254,1.254,1.254,1.2501,1.2501,1.2501,1.2501,1.2501,1.2501,1.2501,1.2606,1.2752,1.2935,1.304,1.3251,1.3376,1.3393,1.34,1.34,1.34,1.34,1.34,1.34,1.34,1.34,1.34,1.34,1.34,1.34,1.34,1.34,3.207,3.1639,3.0985,3.0132,2.9158,2.7861,2.7049,2.6443,2.5637,2.5159,2.5012,2.4754,2.4599,2.4592,2.4592,2.4592,2.4592,2.4592,2.4592,2.4592,2.4592,2.4592,2.4562,2.4525,2.4414,2.4414,2.423,2.4001,2.3853,2.3933,2.4075,2.4297,2.4193,2.4007,2.3779,2.363,2.3482,2.3073,2.2583,2.2353,2.2091,2.1037,2.0505,1.9903,1.9034,1.8011,1.7897,1.725,1.6831,1.6683,1.6186,1.5842,1.5684,1.5156,1.4618,1.4234,1.4345,1.4345,1.4464,1.458,1.4622,1.4545,1.4314,1.3964,1.354,1.3081,1.2965,1.3,1.2811,1.2579,1.254,1.254,1.2579,1.2579,1.2579,1.254,1.2501,1.2501,1.2501,1.2501,1.2501,1.2501,1.2501,1.2501,1.2501,1.2501,1.2501,1.2501,1.2501,1.2501,1.2501,1.2501,1.2501,1.2505,1.2583,1.2712,1.2897,1.3074,1.3282,1.3366,1.339,1.34,1.34,1.34,1.34,1.34,1.34,1.34,1.34,1.34,1.34,1.34,1.34,1.34,1.34,3.0275,2.9015,2.9632,2.9015,2.768,2.7231,2.637,2.549,2.5269,2.4975,2.471,2.4636,2.4592,2.4592,2.4592,2.4592,2.4592,2.4592,2.4592,2.4592,2.4592,2.4556,2.4414,2.423,2.4007,2.3927,2.3704,2.3333,2.2955,2.2843,2.3147,2.3408,2.337,2.3185,2.2881,2.262,2.2433,2.1979,2.1418,2.1069,2.0618,1.9714,1.8807,1.8428,1.7326,1.6334,1.6339,1.5688,1.5309,1.5309,1.4849,1.4614,1.4537,1.4083,1.3621,1.339,1.3312,1.3274,1.3235,1.3544,1.374,1.3702,1.347,1.3158,1.2849,1.2656,1.2579,1.2617,1.254,1.254,1.2501,1.2501,1.2501,1.2501,1.2501,1.2501,1.2501,1.2501,1.2501,1.2501,1.2501,1.2501,1.2501,1.2501,1.2501,1.2501,1.2501,1.2501,1.2501,1.2501,1.2501,1.2501,1.2501,1.2511,1.2539,1.2684,1.2935,1.3091,1.322,1.3332,1.3397,1.34,1.34,1.34,1.34,1.34,1.34,1.34,1.34,1.34,1.34,1.34,1.34,1.34,1.34,2.8951,2.7977,2.7796,2.7361,2.6743,2.6143,2.5637,2.5196,2.4938,2.4784,2.4592,2.4592,2.4592,2.4592,2.4592,2.4592,2.4592,2.4592,2.4599,2.4488,2.4414,2.426,2.4112,2.3816,2.3519,2.3253,2.303,2.2465,2.1749,2.168,2.1343,2.153,2.2017,2.2129,2.183,2.1225,2.0887,2.0586,1.9984,1.9526,1.918,1.8049,1.7102,1.6983,1.5876,1.5152,1.4998,1.4545,1.4318,1.4126,1.3814,1.3694,1.3617,1.3235,1.2965,1.2811,1.2772,1.2656,1.2579,1.2811,1.2926,1.2926,1.2811,1.2656,1.2501,1.2501,1.2501,1.2501,1.2501,1.2501,1.2501,1.2501,1.2501,1.2501,1.2501,1.2501,1.2501,1.2501,1.2501,1.2501,1.2501,1.2501,1.2501,1.2501,1.2501,1.2501,1.2501,1.2501,1.2501,1.2501,1.2501,1.2501,1.2501,1.2501,1.2525,1.2761,1.2986,1.3115,1.3203,1.3312,1.34,1.34,1.34,1.34,1.34,1.34,1.34,1.34,1.34,1.34,1.34,1.34,1.34,1.34,1.34,2.7833,2.6961,2.6319,2.6034,2.596,2.5453,2.5115,2.4975,2.4747,2.4592,2.4592,2.4592,2.4592,2.4592,2.4592,2.4592,2.4592,2.4599,2.4488,2.4377,2.4156,2.3853,2.3593,2.3185,2.2732,2.2396,2.2017,2.1449,2.028,2.028,1.9828,1.9714,2.0097,2.0242,2.0248,1.9531,1.9077,1.8888,1.8357,1.7897,1.7669,1.6525,1.5688,1.5531,1.4614,1.4114,1.3964,1.3621,1.3393,1.3274,1.312,1.2965,1.2811,1.2695,1.254,1.2501,1.2501,1.2501,1.2501,1.2501,1.2501,1.2617,1.2579,1.254,1.2501,1.2501,1.2501,1.2501,1.2501,1.2501,1.2501,1.2501,1.2501,1.2501,1.2501,1.2501,1.2501,1.2501,1.2501,1.2501,1.2501,1.2501,1.2501,1.2501,1.2501,1.2501,1.2501,1.2501,1.2501,1.2501,1.2501,1.2501,1.2501,1.2501,1.2515,1.2792,1.3003,1.3077,1.3169,1.3322,1.34,1.34,1.34,1.34,1.34,1.34,1.34,1.34,1.34,1.34,1.34,1.34,1.34,1.34,1.34,2.6881,2.5836,2.5403,2.5233,2.5269,2.5196,2.4975,2.471,2.4636,2.4592,2.4592,2.4592,2.4592,2.4592,2.4592,2.4592,2.4562,2.4562,2.4371,2.4119,2.3785,2.3445,2.2881,2.2353,2.168,2.1069,2.0656,1.9941,1.8656,1.8656,1.8163,1.7631,1.7745,1.8082,1.8509,1.7859,1.7478,1.7326,1.664,1.6411,1.6067,1.5113,1.4614,1.4311,1.3733,1.327,1.3193,1.2965,1.2811,1.2733,1.2695,1.2617,1.2579,1.2579,1.2501,1.2501,1.2501,1.2501,1.2501,1.2501,1.2501,1.2501,1.2501,1.2501,1.2501,1.2501,1.2501,1.2501,1.2501,1.2501,1.2501,1.2501,1.2501,1.2501,1.2501,1.2501,1.2501,1.2501,1.2501,1.2501,1.2501,1.2501,1.2501,1.2501,1.2501,1.2501,1.2501,1.2501,1.2501,1.2501,1.2501,1.2501,1.2505,1.2545,1.2593,1.2803,1.3013,1.3077,1.3152,1.3322,1.34,1.34,1.34,1.34,1.34,1.34,1.34,1.34,1.34,1.34,1.34,1.34,1.34,1.34,1.34,2.6239,2.5373,2.4968,2.4821,2.4821,2.4784,2.4717,2.4636,2.4592,2.4592,2.4592,2.4592,2.4592,2.4592,2.4599,2.4562,2.4562,2.4267,2.4044,2.389,2.3259,2.2539,2.1936,2.1225,2.043,1.9639,1.9115,1.839,1.7026,1.7064,1.6564,1.5995,1.5765,1.6029,1.6525,1.6258,1.5803,1.5727,1.5305,1.4994,1.4879,1.4076,1.354,1.3544,1.3004,1.2772,1.2772,1.2579,1.254,1.2501,1.2501,1.2501,1.2501,1.2501,1.2501,1.2501,1.2501,1.2501,1.2501,1.2501,1.2501,1.2501,1.2501,1.2501,1.2501,1.2501,1.2501,1.2501,1.2501,1.2501,1.2501,1.2501,1.2501,1.2501,1.2501,1.2501,1.2501,1.2501,1.2501,1.2501,1.2501,1.2501,1.2501,1.2501,1.2501,1.2501,1.2501,1.2501,1.2501,1.2501,1.2501,1.2501,1.2515,1.2573,1.2674,1.2847,1.3043,1.3139,1.321,1.3356,1.34,1.34,1.34,1.34,1.34,1.34,1.34,1.34,1.34,1.34,1.34,1.34,1.34,1.34,1.34,2.5593,2.4975,2.471,2.4592,2.4592,2.4592,2.4592,2.4592,2.4592,2.4592,2.4592,2.4592,2.4592,2.4562,2.4451,2.4414,2.4334,2.3816,2.3408,2.3253,2.2321,2.1449,2.0737,2.0016,1.8991,1.8163,1.7631,1.6983,1.5688,1.5573,1.5228,1.4695,1.4157,1.4464,1.4806,1.4695,1.4622,1.4503,1.423,1.4003,1.3772,1.3351,1.2926,1.2849,1.2656,1.254,1.2501,1.2501,1.2501,1.2501,1.2501,1.2501,1.2501,1.2501,1.2501,1.2501,1.2501,1.2501,1.2501,1.2501,1.2501,1.2501,1.2501,1.2501,1.2501,1.2501,1.2501,1.2501,1.2501,1.2501,1.2501,1.2501,1.2501,1.2501,1.2501,1.2501,1.2501,1.2501,1.2501,1.2501,1.2501,1.2501,1.2501,1.2501,1.2501,1.2501,1.2501,1.2501,1.2501,1.2501,1.2501,1.2501,1.2525,1.2583,1.2691,1.2851,1.3047,1.319,1.3316,1.339,1.34,1.34,1.34,1.34,1.34,1.34,1.34,1.34,1.34,1.34,1.34,1.34,1.34,1.34,1.34,2.4975,2.4629,2.4592,2.4592,2.4592,2.4592,2.4592,2.4592,2.4592,2.4592,2.4592,2.4592,2.4562,2.4488,2.4186,2.3964,2.3742,2.3104,2.262,2.2017,2.1187,2.0285,1.9423,1.8699,1.7631,1.6716,1.6109,1.5684,1.4499,1.4345,1.4041,1.3698,1.339,1.3428,1.3505,1.3617,1.3698,1.3583,1.3425,1.3235,1.312,1.2807,1.2656,1.2579,1.254,1.2501,1.2501,1.2501,1.2501,1.2501,1.2501,1.2501,1.2501,1.2501,1.2501,1.2501,1.2501,1.2501,1.2501,1.2501,1.2501,1.2501,1.2501,1.2501,1.2501,1.2501,1.2501,1.2501,1.2501,1.2501,1.2501,1.2501,1.2501,1.2501,1.2501,1.2501,1.2501,1.2501,1.2501,1.2501,1.2501,1.2501,1.2501,1.2501,1.2501,1.2501,1.2501,1.2501,1.2501,1.2501,1.2501,1.2501,1.2535,1.2596,1.2722,1.2885,1.3054,1.3258,1.3302,1.34,1.34,1.34,1.34,1.34,1.34,1.34,1.34,1.34,1.34,1.34,1.34,1.34,1.34,1.34,1.34,2.4968,2.4599,2.4592,2.4592,2.4592,2.4592,2.4592,2.4592,2.4592,2.4592,2.4592,2.4592,2.4451,2.4156,2.4038,2.363,2.303,2.239,2.1786,2.0994,1.9903,1.9039,1.8205,1.7369,1.6339,1.5573,1.496,1.4499,1.3656,1.3312,1.3116,1.2814,1.2811,1.2737,1.2772,1.2811,1.2891,1.2891,1.2772,1.2772,1.2733,1.2579,1.2501,1.2501,1.2501,1.2501,1.2501,1.2501,1.2501,1.2501,1.2501,1.2501,1.2501,1.2501,1.2501,1.2501,1.2501,1.2501,1.2501,1.2501,1.2501,1.2501,1.2501,1.2501,1.2501,1.2501,1.2501,1.2501,1.2501,1.2501,1.2501,1.2501,1.2501,1.2501,1.2501,1.2501,1.2501,1.2501,1.2501,1.2501,1.2501,1.2501,1.2501,1.2501,1.2501,1.2501,1.2501,1.2501,1.2501,1.2501,1.2501,1.2501,1.2535,1.2593,1.2773,1.2982,1.3115,1.3271,1.3349,1.34,1.34,1.34,1.34,1.34,1.34,1.34,1.34,1.34,1.34,1.34,1.34,1.34,1.34,1.34,1.34,2.4821,2.4599,2.4592,2.4592,2.4592,2.4592,2.4592,2.4592,2.4592,2.4592,2.4562,2.4414,2.423,2.3964,2.3482,2.2881,2.2241,2.1075,2.0355,1.9677,1.8428,1.7597,1.6759,1.6033,1.5075,1.4422,1.4003,1.3579,1.2965,1.2695,1.254,1.254,1.2501,1.2501,1.254,1.2579,1.254,1.2579,1.254,1.2501,1.2501,1.2501,1.2501,1.2501,1.2501,1.2501,1.2501,1.2501,1.2501,1.2501,1.2501,1.2501,1.2501,1.2501,1.2501,1.2501,1.2501,1.2501,1.2501,1.2501,1.2501,1.2501,1.2501,1.2501,1.2501,1.2501,1.2501,1.2501,1.2501,1.2501,1.2501,1.2501,1.2501,1.2501,1.2501,1.2501,1.2501,1.2501,1.2501,1.2501,1.2501,1.2501,1.2501,1.2501,1.2501,1.2501,1.2501,1.2501,1.2501,1.2501,1.2501,1.2501,1.2539,1.2593,1.2786,1.3009,1.3159,1.3261,1.3359,1.34,1.34,1.34,1.34,1.34,1.34,1.34,1.34,1.34,1.34,1.34,1.34,1.34,1.34,1.34,1.34,2.4599,2.4592,2.4592,2.4592,2.4592,2.4592,2.4592,2.4599,2.4525,2.4562,2.4451,2.4186,2.3927,2.3482,2.2732,2.1904,2.1037,1.9914,1.8926,1.8352,1.7021,1.6109,1.5535,1.4691,1.408,1.3428,1.3042,1.3004,1.2695,1.2501,1.2501,1.2501,1.2501,1.2501,1.2501,1.2501,1.2501,1.2501,1.2501,1.2501,1.2501,1.2501,1.2501,1.2501,1.2501,1.2501,1.2501,1.2501,1.2501,1.2501,1.2501,1.2501,1.2501,1.2501,1.2501,1.2501,1.2501,1.2501,1.2501,1.2501,1.2501,1.2501,1.2501,1.2501,1.2501,1.2501,1.2501,1.2501,1.2501,1.2501,1.2501,1.2501,1.2501,1.2501,1.2501,1.2501,1.2501,1.2501,1.2501,1.2501,1.2501,1.2501,1.2501,1.2501,1.2501,1.2501,1.2501,1.2501,1.2501,1.2501,1.2501,1.2501,1.2525,1.2593,1.2776,1.2989,1.3139,1.323,1.3342,1.34,1.34,1.34,1.34,1.34,1.34,1.34,1.34,1.34,1.34,1.34,1.34,1.34,1.34,1.34,1.34,2.4592,2.4592,2.4592,2.4592,2.4592,2.4592,2.4599,2.4562,2.4267,2.4156,2.4119,2.397,2.3445,2.262,2.1942,2.1037,1.9687,1.8704,1.7711,1.6835,1.565,1.5037,1.4618,1.3887,1.3351,1.3081,1.2849,1.2656,1.254,1.2501,1.2501,1.2501,1.2501,1.2501,1.2501,1.2501,1.2501,1.2501,1.2501,1.2501,1.2501,1.2501,1.2501,1.2501,1.2501,1.2501,1.2501,1.2501,1.2501,1.2501,1.2501,1.2501,1.2501,1.2501,1.2501,1.2501,1.2501,1.2501,1.2501,1.2501,1.2501,1.2501,1.2501,1.2501,1.2501,1.2501,1.2501,1.2501,1.2501,1.2501,1.2501,1.2501,1.2501,1.2501,1.2501,1.2501,1.2501,1.2501,1.2501,1.2501,1.2501,1.2501,1.2501,1.2501,1.2501,1.2501,1.2501,1.2501,1.2501,1.2501,1.2501,1.2501,1.2501,1.2586,1.2766,1.2922,1.3105,1.3203,1.3319,1.3366,1.3397,1.34,1.34,1.34,1.34,1.34,1.34,1.34,1.34,1.34,1.34,1.34,1.34,1.34,1.34,2.4592,2.4592,2.4592,2.4592,2.4592,2.4592,2.4525,2.4304,2.4075,2.3667,2.3259,2.3147,2.2694,2.1717,2.0999,1.9828,1.84,1.7374,1.6377,1.542,1.4695,1.4118,1.3579,1.3197,1.2965,1.2772,1.2656,1.254,1.2501,1.2501,1.2501,1.2501,1.2501,1.2501,1.2501,1.2501,1.2501,1.2501,1.2501,1.2501,1.2501,1.2501,1.2501,1.2501,1.2501,1.2501,1.2501,1.2501,1.2501,1.2501,1.2501,1.2501,1.2501,1.2501,1.2501,1.2501,1.2501,1.2501,1.2501,1.2501,1.2501,1.2501,1.2501,1.2501,1.2501,1.2501,1.2501,1.2501,1.2501,1.2501,1.2501,1.2501,1.2501,1.2501,1.2501,1.2501,1.2501,1.2501,1.2501,1.2501,1.2501,1.2501,1.2501,1.2501,1.2501,1.2501,1.2501,1.2501,1.2501,1.2501,1.2501,1.2501,1.2501,1.2569,1.2729,1.2878,1.3064,1.3159,1.3288,1.3356,1.34,1.34,1.34,1.34,1.34,1.34,1.34,1.34,1.34,1.34,1.34,1.34,1.34,1.34,1.34,2.4592,2.4592,2.4592,2.4592,2.4599,2.4525,2.4341,2.4038,2.3816,2.3141,2.2172,2.191,2.1599,2.0849,1.972,1.839,1.7178,1.6152,1.5117,1.4272,1.3583,1.3351,1.3081,1.2733,1.2617,1.2579,1.254,1.2501,1.2501,1.2501,1.2501,1.2501,1.2501,1.2501,1.2501,1.2501,1.2501,1.2501,1.2501,1.2501,1.2501,1.2501,1.2501,1.2501,1.2501,1.2501,1.2501,1.2501,1.2501,1.2501,1.2501,1.2501,1.2501,1.2501,1.2501,1.2501,1.2501,1.2501,1.2501,1.2501,1.2501,1.2501,1.2501,1.2501,1.2501,1.2501,1.2501,1.2501,1.2501,1.2501,1.2501,1.2501,1.2501,1.2501,1.2501,1.2501,1.2501,1.2501,1.2501,1.2501,1.2501,1.2501,1.2501,1.2501,1.2501,1.2501,1.2501,1.2501,1.2501,1.2501,1.2501,1.2501,1.2501,1.2593,1.2645,1.2844,1.303,1.3149,1.3234,1.3329,1.34,1.34,1.34,1.34,1.34,1.34,1.34,1.34,1.34,1.34,1.34,1.34,1.34,1.34,1.34,2.4592,2.4592,2.4592,2.4599,2.4562,2.426,2.4075,2.3853,2.2955,2.2209,2.1449,2.0291,1.9693,1.9579,1.8357,1.714,1.6037,1.5002,1.4157,1.3351,1.312,1.2888,1.2695,1.2579,1.254,1.2501,1.2501,1.2501,1.2501,1.2501,1.2501,1.2501,1.2501,1.2501,1.2501,1.2501,1.2501,1.2501,1.2501,1.2501,1.2501,1.2501,1.2501,1.2501,1.2501,1.2501,1.2501,1.2501,1.2501,1.2501,1.2501,1.2501,1.2501,1.2501,1.2501,1.2501,1.2501,1.2501,1.2501,1.2501,1.2501,1.2501,1.2501,1.2501,1.2501,1.2501,1.2501,1.2501,1.2501,1.2501,1.2501,1.2501,1.2501,1.2501,1.2501,1.2501,1.2501,1.2501,1.2501,1.2501,1.2501,1.2501,1.2501,1.2501,1.2501,1.2501,1.2501,1.2501,1.2501,1.2501,1.2501,1.2501,1.2501,1.2501,1.2552,1.2796,1.2999,1.3115,1.3237,1.3325,1.34,1.34,1.34,1.34,1.34,1.34,1.34,1.34,1.34,1.34,1.34,1.34,1.34,1.34,1.34]},{"header":{"parameterUnit":"m.s-1","parameterCategory":1,"la1":31.0,"la2":29.5877,"lo1":-88.7671,"lo2":-86.6584,"dy":0.0162,"dx":0.0185,"nx":115,"ny":88,"refTime":"2023-11-08T06:00:00:Z","depth":0,"parameterNumber":3,"parameterNumberName":"V-component_of_WINDS"},"data":[0.0,0.0,0.0,0.0,0.0,0.0,0.0,0.0,0.0,0.0,0.0,0.0,0.0,0.0,0.0,0.0,0.0,0.0,0.0,0.0,0.0,0.0,0.0,0.0,0.0,0.0,0.0,0.0,0.0,0.0,0.0,0.0,0.0,0.0,0.0,0.0,0.0,0.0,0.0,0.0,0.0,0.0,0.0,0.0,0.0,0.0,0.0,0.0,0.0,0.0,0.0,0.0,0.0,0.0,0.0,0.0,0.0,0.0,0.0,0.0,0.0,0.0,0.0,0.0,0.0,0.0,0.0,0.0,0.0,0.0,0.0,0.0,0.0,0.0,0.0,0.0,0.0,0.0,0.0,0.0,0.0,0.0,0.0,0.0,0.0,0.0,0.0,0.0,0.0,0.0,0.0,0.0,0.0,0.0,0.0,0.0,0.0,0.0,0.0,0.0,0.0,0.0,0.0,0.0,0.0,0.0,0.0,0.0,0.0,0.0,0.0,0.0,0.0,0.0,0.0,0.0,0.0,0.0,0.0,0.0,0.0,0.0,0.0,0.0,0.0,0.0,0.0,0.0,0.0,0.0,0.0,0.0,0.0,0.0,0.0,0.0,0.0,0.0,0.0,0.0,0.0,0.0,0.0,0.0,0.0,0.0,0.0,0.0,0.0,0.0,0.0,0.0,0.0,0.0,0.0,0.0,0.0,0.0,0.0,0.0,0.0,0.0,0.0,0.0,0.0,0.0,0.0,0.0,0.0,0.0,0.0,0.0,0.0,0.0,0.0,0.0,0.0,0.0,0.0,0.0,0.0,0.0,0.0,0.0,0.0,0.0,0.0,0.0,0.0,0.0,0.0,0.0,0.0,0.0,0.0,0.0,0.0,0.0,0.0,0.0,0.0,0.0,0.0,0.0,0.0,0.0,0.0,0.0,0.0,0.0,0.0,0.0,0.0,0.0,0.0,0.0,0.0,0.0,0.0,0.0,0.0,0.0,0.0,0.0,0.0,0.0,0.0,0.0,0.0,0.0,0.0,0.0,0.0,0.0,0.0,0.0,0.0,0.0,0.0,0.0,0.0,0.0,0.0,0.0,0.0,0.0,0.0,0.0,0.0,0.0,0.0,0.0,0.0,0.0,0.0,0.0,0.0,0.0,0.0,0.0,0.0,0.0,0.0,0.0,0.0,0.0,0.0,0.0,0.0,0.0,0.0,0.0,0.0,0.0,0.0,0.0,0.0,0.0,0.0,0.0,0.0,0.0,0.0,0.0,0.0,0.0,0.0,0.0,0.0,0.0,0.0,0.0,0.0,0.0,0.0,0.0,0.0,0.0,0.0,0.0,0.0,0.0,0.0,0.0,0.0,0.0,0.0,0.0,0.0,0.0,0.0,0.0,0.0,0.0,0.0,0.0,0.0,0.0,0.0,0.0,0.0,0.0,0.0,0.0,0.0,0.0,0.0,0.0,0.0,0.0,0.0,0.0,0.0,0.0,0.0,0.0,0.0,0.0,0.0,0.0,0.0,0.0,0.0,0.0,0.0,0.0,0.0,0.0,0.0,0.0,0.0,0.0,0.0,0.0,0.0,0.0,0.0,0.0,0.0,0.0,0.0,0.0,0.0,0.0,0.0,0.0,0.0,0.0,0.0,0.0,0.0,0.0,0.0,0.0,0.0,0.0,0.0,0.0,0.0,0.0,0.0,0.0,0.0,0.0,0.0,0.0,0.0,0.0,0.0,0.0,0.0,0.0,0.0,0.0,0.0,0.0,0.0,0.0,0.0,0.0,0.0,0.0,0.0,0.0,0.0,0.0,0.0,0.0,0.0,0.0,0.0,0.0,0.0,0.0,0.0,0.0,0.0,0.0,0.0,0.0,0.0,0.0,0.0,0.0,0.0,0.0,0.0,0.0,0.0,0.0,0.0,0.0,0.0,0.0,0.0,0.0,0.0,0.0,0.0,0.0,0.0,0.0,0.0,0.0,0.0,0.0,0.0,0.0,0.0,0.0,0.0,0.0,0.0,0.0,0.0,0.0,0.0,0.0,0.0,0.0,0.0,0.0,0.0,0.0,0.0,0.0,0.0,0.0,0.0,0.0,0.0,0.0,0.0,0.0,0.0,0.0,0.0,0.0,0.0,0.0,0.0,0.0,0.0,0.0,0.0,0.0,0.0,0.0,0.0,0.0,0.0,0.0,0.0,0.0,0.0,0.0,0.0,0.0,0.0,0.0,0.0,0.0,0.0,0.0,0.0,0.0,0.0,0.0,0.0,0.0,0.0,0.0,0.0,0.0,0.0,0.0,0.0,0.0,0.0,0.0,0.0,0.0,0.0,0.0,0.0,0.0,0.0,0.0,0.0,0.0,0.0,0.0,0.0,0.0,0.0,0.0,0.0,0.0,0.0,0.0,0.0,0.0,0.0,0.0,0.0,0.0,0.0,0.0,0.0,0.0,0.0,0.0,0.0,0.0,0.0,0.0,0.0,0.0,0.0,0.0,0.0,0.0,0.0,0.0,0.0,0.0,0.0,0.0,0.0,0.0,0.0,0.0,0.0,0.0,0.0,0.0,0.0,0.0,0.0,0.0,0.0,0.0,0.0,0.0,0.0,0.0,0.0,0.0,0.0,0.0,0.0,0.0,0.0,0.0,0.0,0.0,0.0,0.0,0.0,0.0,0.0,0.0,0.0,0.0,0.0,0.0,0.0,0.0,0.0,0.0,0.0,0.0,0.0,0.0,0.0,0.0,0.0,0.0,0.0,0.0,0.0,0.0,0.0,0.0,0.0,0.0,0.0,0.0,0.0,0.0,0.0,0.0,0.0,0.0,0.0,0.0,0.0,0.0,0.0,0.0,0.0,0.0,0.0,0.0,0.0,0.0,0.0,0.0,0.0,0.0,0.0,0.0,0.0,0.0,0.0,0.0,0.0,0.0,0.0,0.0,0.0,0.0,0.0,0.0,0.0,0.0,0.0,0.0,0.0,0.0,0.0,0.0,0.0,0.0,0.0,0.0,0.0,0.0,0.0,0.0,0.0,0.0,0.0,0.0,0.0,0.0,0.0,0.0,0.0,0.0,0.0,0.0,0.0,0.0,0.0,0.0,0.0,0.0,0.0,0.0,0.0,0.0,0.0,0.0,0.0,0.0,0.0,0.0,0.0,0.0,0.0,0.0,0.0,0.0,0.0,0.0,0.0,0.0,0.0,0.0,0.0,0.0,0.0,0.0,0.0,0.0,0.0,0.0,0.0,0.0,0.0,0.0,0.0,0.0,0.0,0.0,0.0,0.0,0.0,0.0,0.0,0.0,0.0,0.0,0.0,0.0,0.0,0.0,0.0,0.0,0.0,0.0,0.0,0.0,0.0,0.0,0.0,0.0,0.0,0.0,0.0,0.0,0.0,0.0,0.0,0.0,0.0,0.0,0.0,0.0,0.0,0.0,0.0,0.0,0.0,0.0,0.0,0.0,0.0,0.0,0.0,0.0,0.0,0.0,0.0,0.0,0.0,0.0,0.0,0.0,0.0,0.0,0.0,0.0,0.0,0.0,0.0,0.0,0.0,0.0,0.0,0.0,0.0,0.0,0.0,0.0,0.0,0.0,0.0,0.0,0.0,0.0,0.0,0.0,0.0,0.0,0.0,0.0,0.0,0.0,0.0,0.0,0.0,0.0,0.0,0.0,0.0,0.0,0.0,0.0,0.0,0.0,0.0,0.0,0.0,0.0,0.0,0.0,0.0,0.0,0.0,0.0,0.0,0.0,0.0,0.0,0.0,0.0,0.0,0.0,0.0,0.0,0.0,0.0,0.0,0.0,0.0,0.0,0.0,0.0,0.0,0.0,0.0,0.0,0.0,0.0,0.0,0.0,0.0,0.0,0.0,0.0,0.0,0.0,0.0,0.0,0.0,0.0,0.0,0.0,0.0,0.0,0.0,0.0,0.0,0.0,0.0,0.0,0.0,0.0,0.0,0.0,0.0,0.0,0.0,0.0,0.0,0.0,0.0,0.0,0.0,0.0,0.0,0.0,0.0,0.0,0.0,0.0,0.0,0.0,0.0,0.0,0.0,0.0,0.0,0.0,0.0,0.0,0.0,0.0,0.0,0.0,0.0,0.0,0.0,0.0,0.0,0.0,0.0,0.0,0.0,0.0,0.0,0.0,0.0,0.0,0.0,0.0,0.0,0.0,0.0,0.0,0.0,0.0,0.0,0.0,0.0,0.0,0.0,0.0,0.0,0.0,0.0,0.0,0.0,0.0,0.0,0.0,0.0,0.0,0.0,0.0,0.0,0.0,0.0,0.0,2.7585,0.0,0.0,0.0,0.0,0.0,0.0,0.0,0.0,0.0,0.0,0.0,0.0,0.0,0.0,0.0,0.0,0.0,0.0,0.0,0.0,0.0,0.0,0.0,0.0,0.0,0.0,0.0,0.0,0.0,0.0,0.0,0.0,0.0,0.0,0.0,0.0,0.0,0.0,0.0,0.0,0.0,0.0,0.0,0.0,0.0,0.0,0.0,0.0,0.0,0.0,0.0,0.0,0.0,0.0,0.0,0.0,0.0,0.0,0.0,0.0,0.0,0.0,0.0,0.0,0.0,0.0,0.0,0.0,0.0,0.0,0.0,0.0,0.0,0.0,0.0,0.0,0.0,0.0,0.0,0.0,0.0,0.0,0.0,0.0,0.0,0.0,0.0,0.0,0.0,0.0,0.0,0.0,0.0,0.0,0.0,0.0,0.0,0.0,0.0,0.0,0.0,0.0,0.0,0.0,0.0,0.0,0.0,0.0,0.0,0.0,2.7585,2.7585,2.7585,2.7585,2.76,0.0,0.0,0.0,0.0,0.0,0.0,0.0,0.0,0.0,0.0,0.0,0.0,0.0,0.0,0.0,0.0,0.0,0.0,0.0,0.0,0.0,0.0,0.0,0.0,0.0,0.0,0.0,0.0,0.0,0.0,0.0,0.0,0.0,0.0,0.0,0.0,0.0,0.0,0.0,0.0,0.0,0.0,0.0,0.0,0.0,0.0,0.0,0.0,0.0,0.0,0.0,0.0,0.0,0.0,0.0,0.0,0.0,0.0,0.0,0.0,0.0,0.0,0.0,0.0,0.0,0.0,0.0,0.0,0.0,0.0,0.0,0.0,0.0,0.0,0.0,0.0,0.0,0.0,0.0,0.0,0.0,0.0,0.0,0.0,0.0,0.0,0.0,0.0,0.0,0.0,0.0,0.0,0.0,0.0,0.0,0.0,0.0,0.0,0.0,0.0,0.0,0.0,0.0,0.0,0.0,0.0,0.0,0.0,0.0,0.0,0.0,0.0,2.7585,2.7585,2.7585,0.0,0.0,0.0,0.0,0.0,0.0,0.0,0.0,0.0,0.0,0.0,0.0,0.0,0.0,0.0,0.0,0.0,0.0,0.0,0.0,0.0,0.0,0.0,0.0,0.0,0.0,0.0,0.0,0.0,0.0,0.0,0.0,0.0,0.0,0.0,0.0,0.0,0.0,0.0,0.0,0.0,0.0,0.0,0.0,0.0,0.0,0.0,0.0,0.0,0.0,0.0,0.0,0.0,0.0,0.0,0.0,0.0,0.0,0.0,0.0,0.0,0.0,0.0,0.0,0.0,0.0,0.0,0.0,0.0,0.0,0.0,0.0,0.0,0.0,0.0,0.0,0.0,0.0,0.0,0.0,0.0,0.0,0.0,0.0,0.0,0.0,0.0,0.0,0.0,0.0,0.0,0.0,0.0,0.0,0.0,0.0,0.0,0.0,0.0,0.0,0.0,0.0,0.0,0.0,0.0,0.0,0.0,0.0,0.0,0.0,2.7585,2.7585,2.7585,0.0,2.7612,0.0,0.0,0.0,0.0,0.0,0.0,0.0,0.0,0.0,0.0,0.0,0.0,0.0,0.0,0.0,0.0,0.0,0.0,0.0,0.0,0.0,0.0,0.0,0.0,0.0,0.0,0.0,0.0,0.0,0.0,0.0,0.0,0.0,0.0,0.0,0.0,0.0,0.0,0.0,0.0,0.0,0.0,0.0,0.0,0.0,0.0,0.0,0.0,0.0,0.0,0.0,0.0,0.0,0.0,0.0,0.0,0.0,0.0,0.0,0.0,0.0,0.0,0.0,0.0,0.0,0.0,0.0,0.0,0.0,0.0,0.0,0.0,0.0,0.0,0.0,0.0,0.0,0.0,0.0,0.0,0.0,0.0,0.0,0.0,0.0,0.0,0.0,0.0,0.0,0.0,0.0,0.0,0.0,0.0,0.0,0.0,0.0,0.0,0.0,0.0,0.0,0.0,0.0,0.0,0.0,0.0,0.0,0.0,0.0,0.0,2.7585,2.7585,2.7585,2.7585,0.0,0.0,0.0,0.0,0.0,0.0,0.0,0.0,0.0,0.0,0.0,0.0,0.0,0.0,0.0,0.0,0.0,0.0,0.0,0.0,0.0,0.0,0.0,0.0,0.0,0.0,0.0,0.0,0.0,0.0,0.0,0.0,0.0,0.0,0.0,0.0,0.0,0.0,0.0,0.0,0.0,0.0,0.0,0.0,0.0,0.0,0.0,0.0,0.0,0.0,0.0,0.0,0.0,0.0,0.0,0.0,0.0,0.0,0.0,0.0,0.0,0.0,0.0,0.0,0.0,0.0,0.0,0.0,0.0,0.0,0.0,0.0,0.0,0.0,0.0,0.0,0.0,0.0,0.0,0.0,0.0,0.0,0.0,0.0,0.0,0.0,0.0,0.0,0.0,0.0,0.0,0.0,0.0,0.0,0.0,0.0,0.0,0.0,0.0,0.0,0.0,0.0,0.0,0.0,0.0,0.0,0.0,0.0,0.0,0.0,2.7585,2.7585,2.7585,2.7585,2.7585,2.7585,0.0,0.0,0.0,0.0,0.0,0.0,0.0,0.0,0.0,0.0,0.0,0.0,0.0,0.0,0.0,0.0,0.0,0.0,0.0,0.0,0.0,0.0,0.0,0.0,0.0,0.0,0.0,0.0,0.0,0.0,0.0,0.0,0.0,0.0,0.0,0.0,0.0,0.0,0.0,0.0,0.0,0.0,0.0,0.0,0.0,0.0,0.0,0.0,0.0,0.0,0.0,0.0,0.0,0.0,0.0,0.0,0.0,0.0,0.0,0.0,0.0,0.0,0.0,0.0,0.0,0.0,0.0,0.0,0.0,0.0,0.0,0.0,0.0,0.0,0.0,0.0,0.0,0.0,0.0,0.0,0.0,0.0,0.0,0.0,0.0,0.0,0.0,0.0,0.0,0.0,0.0,0.0,0.0,0.0,0.0,0.0,0.0,0.0,0.0,0.0,0.0,0.0,0.0,0.0,0.0,0.0,0.0,0.0,2.7585,2.7585,2.7585,2.7585,2.7585,2.76,0.0,0.0,0.0,0.0,0.0,0.0,0.0,0.0,0.0,0.0,0.0,0.0,0.0,0.0,0.0,0.0,0.0,0.0,0.0,0.0,0.0,0.0,0.0,0.0,0.0,0.0,0.0,0.0,0.0,0.0,0.0,0.0,0.0,0.0,0.0,0.0,0.0,0.0,0.0,0.0,0.0,0.0,0.0,0.0,0.0,0.0,0.0,0.0,0.0,0.0,0.0,0.0,0.0,0.0,0.0,0.0,0.0,0.0,0.0,0.0,0.0,0.0,0.0,0.0,0.0,0.0,0.0,0.0,0.0,0.0,0.0,0.0,0.0,0.0,0.0,0.0,0.0,0.0,0.0,0.0,0.0,0.0,0.0,0.0,0.0,0.0,0.0,0.0,0.0,0.0,0.0,0.0,0.0,0.0,0.0,0.0,0.0,0.0,0.0,0.0,0.0,0.0,0.0,0.0,0.0,0.0,0.0,0.0,0.0,2.7585,2.7585,2.7585,2.7585,2.7585,2.7794,0.0,0.0,0.0,0.0,0.0,0.0,0.0,0.0,0.0,0.0,0.0,0.0,0.0,0.0,0.0,0.0,0.0,0.0,0.0,0.0,0.0,0.0,0.0,0.0,0.0,0.0,0.0,0.0,0.0,0.0,0.0,0.0,0.0,0.0,0.0,0.0,0.0,0.0,0.0,0.0,0.0,0.0,0.0,0.0,0.0,0.0,0.0,0.0,0.0,0.0,0.0,0.0,0.0,0.0,0.0,0.0,0.0,0.0,0.0,0.0,0.0,0.0,0.0,0.0,0.0,0.0,0.0,0.0,0.0,0.0,0.0,0.0,0.0,0.0,0.0,0.0,0.0,0.0,0.0,0.0,0.0,0.0,0.0,0.0,0.0,0.0,0.0,0.0,0.0,0.0,0.0,0.0,0.0,0.0,0.0,0.0,0.0,0.0,0.0,0.0,0.0,0.0,0.0,0.0,0.0,0.0,0.0,0.0,0.0,2.7585,0.0,2.7585,2.7612,2.7809,2.8141,0.0,0.0,0.0,0.0,0.0,0.0,0.0,0.0,0.0,0.0,0.0,0.0,0.0,0.0,0.0,0.0,0.0,0.0,0.0,0.0,0.0,0.0,0.0,0.0,0.0,0.0,0.0,0.0,0.0,0.0,0.0,0.0,0.0,0.0,0.0,0.0,0.0,0.0,0.0,0.0,0.0,0.0,0.0,0.0,0.0,0.0,0.0,0.0,0.0,0.0,0.0,0.0,0.0,0.0,0.0,0.0,0.0,0.0,0.0,0.0,0.0,0.0,0.0,0.0,0.0,0.0,0.0,0.0,0.0,0.0,0.0,0.0,0.0,0.0,0.0,0.0,0.0,0.0,0.0,0.0,0.0,0.0,0.0,0.0,0.0,0.0,0.0,0.0,0.0,0.0,0.0,0.0,0.0,0.0,0.0,0.0,0.0,0.0,0.0,0.0,0.0,0.0,0.0,0.0,0.0,0.0,0.0,0.0,2.7627,2.7585,2.7615,2.7645,2.7615,2.8261,2.8622,0.0,0.0,0.0,0.0,0.0,0.0,0.0,0.0,0.0,0.0,0.0,0.0,0.0,0.0,0.0,0.0,0.0,0.0,0.0,0.0,0.0,0.0,0.0,0.0,0.0,0.0,0.0,0.0,0.0,0.0,0.0,0.0,0.0,0.0,0.0,0.0,0.0,0.0,0.0,0.0,0.0,0.0,0.0,0.0,0.0,0.0,0.0,0.0,0.0,0.0,0.0,0.0,0.0,0.0,0.0,0.0,0.0,0.0,0.0,0.0,0.0,0.0,0.0,0.0,0.0,0.0,0.0,0.0,0.0,0.0,0.0,0.0,0.0,0.0,0.0,0.0,0.0,0.0,0.0,0.0,0.0,0.0,0.0,0.0,0.0,0.0,0.0,0.0,0.0,0.0,0.0,0.0,0.0,0.0,0.0,0.0,0.0,0.0,0.0,0.0,0.0,0.0,0.0,0.0,0.0,0.0,0.0,0.0,0.0,2.763,2.8051,2.8278,2.8306,2.8949,2.9475,0.0,0.0,0.0,0.0,0.0,0.0,0.0,0.0,0.0,0.0,0.0,0.0,0.0,0.0,0.0,0.0,0.0,0.0,0.0,0.0,0.0,0.0,0.0,0.0,0.0,0.0,0.0,0.0,0.0,0.0,0.0,0.0,0.0,0.0,0.0,0.0,0.0,0.0,0.0,0.0,0.0,0.0,0.0,0.0,0.0,0.0,0.0,0.0,0.0,0.0,0.0,0.0,0.0,0.0,0.0,0.0,0.0,0.0,0.0,0.0,0.0,0.0,0.0,0.0,0.0,0.0,0.0,0.0,0.0,0.0,0.0,0.0,0.0,0.0,0.0,0.0,0.0,0.0,0.0,0.0,0.0,0.0,0.0,0.0,0.0,0.0,0.0,0.0,0.0,0.0,0.0,0.0,0.0,0.0,0.0,0.0,0.0,0.0,0.0,0.0,0.0,0.0,0.0,0.0,0.0,0.0,0.0,0.0,0.0,2.8378,2.8755,2.8966,2.8951,2.9594,3.0103,3.0492,0.0,0.0,0.0,0.0,0.0,0.0,0.0,0.0,0.0,0.0,0.0,0.0,0.0,0.0,0.0,0.0,0.0,0.0,0.0,0.0,0.0,0.0,0.0,0.0,0.0,0.0,0.0,0.0,0.0,0.0,0.0,0.0,0.0,0.0,0.0,0.0,0.0,0.0,0.0,0.0,0.0,0.0,0.0,0.0,0.0,0.0,0.0,0.0,0.0,0.0,0.0,0.0,0.0,0.0,0.0,0.0,0.0,0.0,0.0,0.0,0.0,0.0,0.0,0.0,0.0,0.0,0.0,0.0,0.0,0.0,0.0,0.0,0.0,0.0,0.0,0.0,0.0,0.0,0.0,0.0,0.0,0.0,0.0,0.0,0.0,0.0,0.0,0.0,0.0,0.0,0.0,0.0,0.0,0.0,0.0,0.0,0.0,0.0,0.0,0.0,0.0,0.0,0.0,0.0,0.0,0.0,0.0,0.0,2.9666,2.9698,2.9683,2.9681,3.0238,3.0553,0.0,0.0,0.0,0.0,0.0,0.0,0.0,0.0,0.0,0.0,0.0,0.0,0.0,0.0,0.0,0.0,0.0,0.0,0.0,0.0,0.0,0.0,0.0,0.0,0.0,0.0,0.0,0.0,0.0,0.0,0.0,0.0,0.0,0.0,0.0,0.0,0.0,0.0,0.0,0.0,0.0,0.0,0.0,0.0,0.0,0.0,0.0,0.0,0.0,0.0,0.0,0.0,0.0,0.0,0.0,0.0,0.0,0.0,0.0,0.0,0.0,0.0,0.0,0.0,0.0,0.0,0.0,0.0,0.0,0.0,0.0,0.0,0.0,0.0,0.0,0.0,0.0,0.0,0.0,0.0,0.0,0.0,0.0,0.0,0.0,0.0,0.0,0.0,0.0,0.0,0.0,0.0,0.0,0.0,0.0,0.0,0.0,0.0,0.0,0.0,0.0,0.0,0.0,0.0,0.0,0.0,0.0,0.0,0.0,3.0283,3.0747,3.0777,3.0313,3.0897,3.1241,0.0,0.0,0.0,0.0,0.0,0.0,0.0,0.0,0.0,0.0,0.0,0.0,0.0,0.0,0.0,0.0,0.0,0.0,0.0,0.0,0.0,0.0,0.0,0.0,0.0,0.0,0.0,0.0,0.0,0.0,0.0,0.0,0.0,0.0,0.0,0.0,0.0,0.0,0.0,0.0,0.0,0.0,0.0,0.0,0.0,0.0,0.0,0.0,0.0,0.0,0.0,0.0,0.0,0.0,0.0,0.0,0.0,0.0,0.0,0.0,0.0,0.0,0.0,0.0,0.0,0.0,0.0,0.0,0.0,0.0,0.0,0.0,0.0,0.0,0.0,0.0,0.0,0.0,0.0,0.0,0.0,0.0,0.0,0.0,0.0,0.0,0.0,0.0,0.0,0.0,0.0,0.0,0.0,0.0,0.0,0.0,0.0,0.0,0.0,0.0,0.0,0.0,0.0,0.0,0.0,0.0,0.0,0.0,3.0927,3.0927,3.1301,3.1316,3.0942,3.1286,3.1496,0.0,0.0,0.0,0.0,0.0,0.0,0.0,0.0,0.0,0.0,0.0,0.0,0.0,0.0,0.0,0.0,0.0,0.0,0.0,0.0,0.0,0.0,0.0,0.0,0.0,0.0,0.0,0.0,0.0,0.0,0.0,0.0,0.0,0.0,0.0,0.0,0.0,0.0,0.0,0.0,0.0,0.0,0.0,0.0,0.0,0.0,0.0,0.0,0.0,0.0,0.0,0.0,0.0,0.0,0.0,0.0,0.0,0.0,0.0,0.0,0.0,0.0,0.0,0.0,0.0,0.0,0.0,0.0,0.0,0.0,0.0,0.0,0.0,0.0,0.0,0.0,0.0,0.0,0.0,0.0,0.0,0.0,0.0,0.0,0.0,0.0,0.0,0.0,0.0,0.0,0.0,0.0,0.0,0.0,0.0,0.0,0.0,0.0,0.0,0.0,0.0,0.0,0.0,0.0,0.0,0.0,0.0,0.0,3.1496,3.1496,3.1496,3.1496,3.1496,3.1496,3.1496,0.0,0.0,0.0,0.0,0.0,0.0,0.0,0.0,0.0,0.0,0.0,0.0,0.0,0.0,0.0,0.0,0.0,0.0,0.0,0.0,0.0,0.0,0.0,0.0,0.0,0.0,0.0,0.0,0.0,0.0,0.0,0.0,0.0,0.0,0.0,0.0,0.0,0.0,0.0,0.0,0.0,0.0,0.0,0.0,0.0,0.0,0.0,0.0,0.0,0.0,0.0,0.0,0.0,0.0,0.0,0.0,0.0,0.0,0.0,0.0,0.0,0.0,0.0,0.0,0.0,0.0,0.0,0.0,0.0,0.0,0.0,0.0,0.0,0.0,0.0,0.0,0.0,0.0,0.0,0.0,0.0,0.0,0.0,0.0,0.0,0.0,0.0,0.0,0.0,0.0,0.0,0.0,0.0,0.0,0.0,0.0,0.0,0.0,0.0,0.0,0.0,0.0,0.0,0.0,0.0,0.0,0.0,0.0,3.1496,3.1496,3.1496,3.1496,3.1496,3.1496,3.1496,0.0,0.0,0.0,0.0,0.0,0.0,0.0,0.0,0.0,0.0,0.0,0.0,0.0,0.0,0.0,0.0,0.0,0.0,0.0,0.0,0.0,0.0,0.0,0.0,0.0,0.0,0.0,0.0,0.0,0.0,0.0,0.0,0.0,0.0,0.0,0.0,0.0,0.0,0.0,0.0,0.0,0.0,0.0,0.0,0.0,0.0,0.0,0.0,4.0865,0.0,0.0,0.0,0.0,0.0,0.0,0.0,0.0,0.0,0.0,0.0,0.0,0.0,0.0,0.0,0.0,0.0,0.0,0.0,0.0,0.0,0.0,0.0,0.0,0.0,0.0,0.0,0.0,0.0,0.0,0.0,0.0,0.0,0.0,0.0,0.0,0.0,0.0,0.0,0.0,0.0,0.0,0.0,0.0,0.0,0.0,0.0,0.0,0.0,0.0,0.0,0.0,0.0,0.0,0.0,0.0,0.0,0.0,0.0,3.1496,3.1496,3.1496,3.1496,3.1496,3.1496,3.1496,0.0,0.0,0.0,0.0,0.0,0.0,0.0,0.0,0.0,0.0,0.0,0.0,0.0,0.0,0.0,0.0,0.0,0.0,0.0,0.0,0.0,0.0,0.0,0.0,0.0,0.0,0.0,0.0,0.0,0.0,0.0,0.0,0.0,0.0,0.0,0.0,0.0,0.0,0.0,0.0,0.0,0.0,0.0,0.0,0.0,0.0,0.0,0.0,0.0,0.0,0.0,0.0,0.0,0.0,0.0,0.0,0.0,0.0,0.0,0.0,0.0,0.0,0.0,0.0,0.0,0.0,0.0,0.0,0.0,0.0,0.0,0.0,0.0,0.0,0.0,0.0,0.0,0.0,0.0,0.0,0.0,0.0,0.0,0.0,0.0,0.0,0.0,0.0,0.0,0.0,0.0,0.0,0.0,0.0,0.0,0.0,0.0,0.0,0.0,0.0,0.0,0.0,0.0,0.0,0.0,0.0,0.0,3.1496,3.1496,3.1511,3.16,3.1645,3.166,3.1764,3.1838,3.1853,0.0,0.0,0.0,0.0,0.0,0.0,0.0,0.0,0.0,0.0,0.0,0.0,0.0,0.0,0.0,0.0,0.0,0.0,0.0,0.0,0.0,0.0,0.0,0.0,0.0,0.0,0.0,0.0,0.0,0.0,0.0,0.0,0.0,0.0,0.0,0.0,0.0,0.0,4.0113,4.0113,0.0,0.0,0.0,0.0,0.0,0.0,0.0,0.0,4.2066,0.0,0.0,0.0,0.0,0.0,0.0,0.0,0.0,0.0,0.0,0.0,0.0,0.0,0.0,0.0,0.0,0.0,0.0,0.0,0.0,0.0,0.0,0.0,0.0,0.0,0.0,0.0,0.0,0.0,0.0,0.0,0.0,0.0,0.0,0.0,0.0,0.0,0.0,0.0,0.0,0.0,0.0,0.0,0.0,0.0,0.0,0.0,0.0,0.0,0.0,0.0,0.0,0.0,0.0,0.0,0.0,3.1496,3.1496,3.1496,3.1511,3.2034,3.2347,3.2347,3.3036,3.3427,3.3382,0.0,0.0,0.0,0.0,0.0,0.0,0.0,0.0,0.0,0.0,0.0,0.0,0.0,0.0,0.0,0.0,0.0,0.0,0.0,0.0,0.0,0.0,0.0,0.0,0.0,0.0,0.0,0.0,0.0,0.0,0.0,0.0,0.0,0.0,0.0,0.0,0.0,0.0,0.0,4.0113,4.0113,0.0,0.0,0.0,0.0,0.0,0.0,0.0,0.0,4.344,0.0,0.0,0.0,0.0,0.0,0.0,0.0,0.0,0.0,0.0,0.0,0.0,0.0,0.0,0.0,0.0,0.0,0.0,0.0,0.0,0.0,0.0,0.0,0.0,0.0,0.0,0.0,0.0,0.0,0.0,0.0,0.0,0.0,0.0,0.0,0.0,0.0,0.0,0.0,0.0,0.0,0.0,0.0,0.0,0.0,0.0,0.0,0.0,0.0,0.0,0.0,0.0,0.0,0.0,0.0,3.2195,3.2584,3.2779,3.2809,3.3125,3.3276,3.3291,3.3758,3.4,0.0,0.0,0.0,0.0,0.0,0.0,0.0,0.0,0.0,0.0,0.0,0.0,0.0,0.0,0.0,0.0,0.0,0.0,0.0,0.0,0.0,0.0,0.0,0.0,0.0,0.0,0.0,0.0,0.0,0.0,0.0,0.0,0.0,0.0,0.0,0.0,0.0,0.0,0.0,0.0,4.0422,4.0675,4.0675,0.0,0.0,0.0,0.0,0.0,0.0,4.3744,4.4161,0.0,0.0,0.0,0.0,0.0,0.0,0.0,0.0,0.0,0.0,0.0,0.0,0.0,0.0,0.0,0.0,0.0,0.0,0.0,0.0,0.0,0.0,0.0,0.0,0.0,0.0,0.0,0.0,0.0,0.0,0.0,0.0,0.0,0.0,0.0,0.0,0.0,0.0,0.0,0.0,0.0,0.0,0.0,0.0,0.0,0.0,0.0,0.0,0.0,0.0,0.0,0.0,0.0,0.0,0.0,3.3108,3.3712,3.406,3.412,3.4242,3.4288,3.4303,3.4574,3.474,0.0,0.0,0.0,0.0,0.0,0.0,0.0,0.0,0.0,0.0,0.0,0.0,0.0,0.0,0.0,0.0,0.0,0.0,0.0,0.0,0.0,0.0,0.0,0.0,0.0,0.0,0.0,0.0,0.0,0.0,0.0,0.0,0.0,0.0,0.0,0.0,0.0,0.0,0.0,0.0,0.0,4.1255,4.1407,4.2049,0.0,0.0,0.0,0.0,4.3643,4.4164,0.0,0.0,0.0,0.0,0.0,0.0,0.0,0.0,0.0,0.0,0.0,0.0,0.0,0.0,0.0,0.0,0.0,0.0,0.0,0.0,0.0,0.0,0.0,0.0,0.0,0.0,0.0,0.0,0.0,0.0,0.0,0.0,0.0,0.0,0.0,0.0,0.0,0.0,0.0,0.0,0.0,0.0,0.0,0.0,0.0,0.0,0.0,0.0,0.0,0.0,0.0,0.0,0.0,0.0,0.0,0.0,3.4027,3.4133,3.4268,3.446,3.503,3.5338,3.5338,3.615,3.6581,0.0,0.0,0.0,0.0,0.0,0.0,0.0,0.0,0.0,0.0,0.0,0.0,0.0,0.0,0.0,0.0,0.0,0.0,0.0,0.0,0.0,0.0,0.0,0.0,0.0,0.0,0.0,0.0,0.0,0.0,0.0,0.0,0.0,0.0,0.0,0.0,0.0,0.0,0.0,0.0,0.0,4.1441,4.208,4.2811,4.3271,0.0,0.0,4.4465,4.4448,4.4533,0.0,0.0,0.0,0.0,0.0,0.0,0.0,0.0,0.0,0.0,0.0,0.0,0.0,0.0,0.0,0.0,0.0,0.0,0.0,0.0,0.0,0.0,0.0,0.0,0.0,0.0,0.0,0.0,0.0,0.0,0.0,0.0,0.0,0.0,0.0,0.0,0.0,0.0,0.0,0.0,0.0,0.0,0.0,0.0,0.0,0.0,0.0,0.0,0.0,0.0,0.0,0.0,0.0,0.0,0.0,3.482,3.4955,3.5564,3.5944,3.6034,3.6389,3.6575,3.6591,3.7154,3.7475,0.0,0.0,0.0,0.0,0.0,0.0,0.0,0.0,0.0,0.0,0.0,0.0,0.0,0.0,0.0,0.0,0.0,0.0,0.0,0.0,0.0,0.0,0.0,0.0,0.0,0.0,0.0,0.0,0.0,0.0,0.0,0.0,0.0,0.0,0.0,0.0,0.0,0.0,0.0,0.0,0.0,0.0,4.3033,4.3708,0.0,0.0,0.0,4.4831,4.4831,0.0,0.0,0.0,0.0,0.0,0.0,0.0,0.0,0.0,0.0,0.0,0.0,0.0,0.0,0.0,0.0,0.0,0.0,0.0,0.0,0.0,0.0,0.0,0.0,0.0,0.0,0.0,0.0,0.0,0.0,0.0,0.0,0.0,0.0,0.0,0.0,0.0,0.0,0.0,0.0,0.0,0.0,0.0,0.0,0.0,0.0,0.0,0.0,0.0,0.0,0.0,0.0,0.0,0.0,0.0,0.0,0.0,3.601,3.6868,3.7343,3.7416,3.7565,3.7653,3.7669,3.7958,0.0,0.0,0.0,0.0,0.0,0.0,0.0,0.0,0.0,0.0,0.0,0.0,0.0,0.0,0.0,0.0,0.0,0.0,0.0,0.0,0.0,0.0,0.0,0.0,0.0,0.0,0.0,4.0113,0.0,0.0,0.0,0.0,0.0,0.0,0.0,0.0,0.0,0.0,0.0,0.0,0.0,0.0,4.364,4.398,4.4487,4.4899,0.0,0.0,4.5022,4.5022,4.4927,4.4828,0.0,0.0,0.0,0.0,0.0,0.0,0.0,0.0,0.0,0.0,0.0,0.0,0.0,0.0,0.0,0.0,0.0,0.0,0.0,0.0,0.0,0.0,0.0,0.0,0.0,0.0,0.0,0.0,0.0,0.0,0.0,0.0,0.0,0.0,0.0,0.0,0.0,0.0,0.0,0.0,0.0,0.0,0.0,0.0,0.0,0.0,0.0,0.0,0.0,0.0,0.0,0.0,0.0,0.0,0.0,3.7265,3.7535,3.7771,3.8028,3.8234,3.8335,3.8335,3.8597,3.8736,0.0,0.0,0.0,0.0,0.0,0.0,0.0,0.0,0.0,0.0,0.0,0.0,0.0,0.0,0.0,0.0,0.0,0.0,0.0,0.0,0.0,0.0,0.0,0.0,0.0,0.0,0.0,0.0,0.0,0.0,0.0,0.0,0.0,0.0,0.0,0.0,0.0,0.0,0.0,0.0,0.0,4.4128,4.4824,4.4944,4.4991,0.0,0.0,4.5022,4.5022,4.4991,4.4978,4.4978,0.0,0.0,0.0,0.0,0.0,0.0,0.0,0.0,0.0,0.0,0.0,0.0,0.0,0.0,0.0,0.0,0.0,0.0,0.0,0.0,0.0,0.0,0.0,0.0,0.0,0.0,0.0,0.0,0.0,0.0,0.0,0.0,0.0,0.0,0.0,0.0,0.0,0.0,0.0,0.0,0.0,0.0,0.0,0.0,0.0,0.0,0.0,0.0,0.0,0.0,0.0,0.0,0.0,3.7134,3.7582,3.8033,3.8345,3.8525,3.8775,3.8898,3.8898,3.9121,3.9228,0.0,0.0,0.0,0.0,0.0,0.0,0.0,0.0,0.0,0.0,0.0,0.0,0.0,0.0,0.0,0.0,0.0,0.0,0.0,0.0,0.0,0.0,0.0,0.0,0.0,0.0,0.0,0.0,4.1694,4.188,4.188,0.0,0.0,0.0,0.0,0.0,0.0,0.0,0.0,0.0,0.0,4.496,4.5311,4.5376,0.0,0.0,4.5481,4.5485,4.5498,4.5432,4.5376,4.5376,4.5296,0.0,0.0,0.0,0.0,0.0,0.0,0.0,0.0,0.0,0.0,0.0,0.0,0.0,0.0,0.0,0.0,0.0,0.0,0.0,0.0,0.0,0.0,0.0,0.0,0.0,0.0,0.0,0.0,0.0,0.0,0.0,0.0,0.0,0.0,0.0,0.0,0.0,0.0,0.0,0.0,0.0,0.0,0.0,0.0,0.0,0.0,0.0,0.0,0.0,0.0,0.0,0.0,3.7522,3.7905,3.8638,3.9146,3.9287,3.9769,4.0017,4.0017,4.0184,4.0284,0.0,0.0,0.0,0.0,0.0,0.0,0.0,0.0,0.0,0.0,0.0,0.0,0.0,0.0,0.0,0.0,0.0,0.0,0.0,0.0,0.0,0.0,0.0,0.0,0.0,0.0,0.0,0.0,4.2489,4.2726,4.2959,0.0,0.0,0.0,0.0,0.0,0.0,0.0,0.0,0.0,0.0,4.5671,4.5778,4.5773,4.5811,4.5909,4.5935,4.5935,4.5935,4.6033,4.6121,4.6151,0.0,0.0,0.0,0.0,0.0,0.0,0.0,0.0,0.0,0.0,0.0,0.0,0.0,0.0,0.0,0.0,0.0,0.0,0.0,0.0,0.0,0.0,0.0,0.0,0.0,0.0,0.0,0.0,0.0,0.0,0.0,0.0,0.0,0.0,0.0,0.0,0.0,0.0,0.0,0.0,0.0,0.0,0.0,0.0,0.0,0.0,0.0,0.0,0.0,0.0,0.0,0.0,0.0,3.7951,3.841,3.9526,4.0191,4.0379,4.1346,4.1797,4.1797,4.197,4.2041,4.2008,0.0,0.0,0.0,0.0,0.0,0.0,0.0,0.0,0.0,0.0,0.0,0.0,0.0,0.0,0.0,0.0,0.0,0.0,0.0,0.0,0.0,0.0,0.0,0.0,0.0,0.0,4.2367,4.2963,4.369,0.0,0.0,0.0,0.0,0.0,0.0,0.0,0.0,0.0,0.0,4.6117,4.6204,4.6216,4.6204,4.6268,4.6251,4.6233,4.6216,4.6251,4.6871,4.7362,0.0,0.0,0.0,0.0,0.0,0.0,0.0,0.0,0.0,0.0,0.0,0.0,0.0,0.0,0.0,0.0,0.0,0.0,0.0,0.0,0.0,0.0,0.0,0.0,0.0,0.0,0.0,3.3938,3.4299,0.0,0.0,0.0,0.0,0.0,0.0,0.0,0.0,0.0,0.0,0.0,3.7855,3.8647,0.0,0.0,0.0,0.0,0.0,0.0,0.0,0.0,0.0,0.0,0.0,0.0,3.9211,4.023,4.0861,4.1283,4.1533,4.1957,4.2183,4.2183,4.221,4.2236,4.222,0.0,0.0,0.0,0.0,0.0,0.0,0.0,0.0,0.0,0.0,0.0,0.0,0.0,0.0,0.0,0.0,0.0,0.0,0.0,0.0,0.0,0.0,0.0,0.0,0.0,4.4105,0.0,0.0,0.0,0.0,0.0,0.0,0.0,0.0,0.0,0.0,0.0,4.6362,4.6381,4.7044,4.7524,4.7524,4.7986,4.8335,0.0,0.0,0.0,0.0,0.0,0.0,0.0,0.0,0.0,0.0,0.0,0.0,0.0,0.0,4.9911,4.8562,4.829,4.829,4.8304,0.0,0.0,0.0,0.0,0.0,0.0,0.0,0.0,0.0,0.0,0.0,0.0,0.0,0.0,0.0,0.0,3.5674,0.0,0.0,0.0,0.0,0.0,0.0,0.0,0.0,3.8648,3.9007,3.9235,4.0015,4.024,0.0,4.0256,3.9697,0.0,0.0,0.0,0.0,0.0,0.0,0.0,0.0,4.0361,4.1283,4.1916,4.2297,4.2476,4.2878,4.3095,4.3095,4.3095,4.3112,4.3095,4.3095,4.3095,0.0,0.0,0.0,0.0,0.0,0.0,0.0,0.0,0.0,0.0,0.0,0.0,0.0,0.0,0.0,0.0,0.0,0.0,0.0,0.0,0.0,0.0,0.0,4.5073,0.0,0.0,0.0,0.0,0.0,0.0,0.0,0.0,0.0,4.6639,4.7003,4.7351,4.7648,4.8368,4.8858,4.8858,0.0,0.0,0.0,0.0,0.0,0.0,0.0,4.9943,4.999,5.0223,5.0408,5.0444,5.1066,5.1568,5.1586,0.0,0.0,5.0085,4.9687,4.9669,4.9669,4.9669,4.9811,5.028,5.0145,5.0124,0.0,0.0,0.0,0.0,0.0,0.0,0.0,0.0,3.6131,3.6303,0.0,3.7184,0.0,0.0,0.0,0.0,0.0,0.0,0.0,0.0,4.012,4.0303,4.0569,4.0943,4.0929,4.0631,4.096,4.1091,4.1045,4.0485,0.0,0.0,0.0,0.0,0.0,0.0,4.1361,4.1647,4.2671,4.3244,4.3261,4.4108,4.4567,4.455,4.455,4.4564,4.4581,4.4547,4.4567,4.4567,4.455,0.0,0.0,0.0,0.0,0.0,0.0,0.0,0.0,0.0,0.0,0.0,0.0,0.0,0.0,0.0,0.0,0.0,0.0,0.0,0.0,4.5136,0.0,0.0,0.0,0.0,0.0,0.0,0.0,0.0,0.0,0.0,4.7961,4.8291,4.8839,4.9577,0.0,0.0,0.0,0.0,5.0064,5.0119,4.9969,4.9932,4.9932,5.0573,5.1112,5.1222,0.0,0.0,5.2475,5.3125,5.3608,5.3626,5.4278,5.4255,5.218,5.1794,5.1799,5.1799,5.1799,5.1799,5.1787,5.1637,5.159,3.6402,0.0,0.0,0.0,0.0,3.7116,3.7284,3.7581,3.7907,3.8148,3.8307,3.878,0.0,0.0,0.0,0.0,0.0,0.0,4.015,4.0764,4.1268,4.166,4.1953,4.2673,4.2907,4.2728,4.289,4.2995,4.2995,4.2833,4.2217,4.1243,0.0,0.0,0.0,0.0,4.2725,4.3473,4.3816,4.4047,4.4193,4.4468,4.4584,4.4584,4.4584,4.4584,4.4584,4.4584,4.4584,4.4584,4.4584,0.0,0.0,0.0,0.0,0.0,0.0,0.0,0.0,0.0,0.0,0.0,0.0,0.0,0.0,0.0,0.0,0.0,0.0,0.0,4.5533,4.5701,4.576,0.0,0.0,0.0,0.0,0.0,0.0,0.0,0.0,0.0,5.0212,4.9922,4.9756,0.0,0.0,5.138,5.1938,5.2487,5.3035,5.3588,0.0,0.0,0.0,5.3833,5.3978,5.4024,5.4206,5.4381,5.4386,5.4598,5.4744,5.4744,5.4937,5.4897,5.4386,5.4062,5.4001,5.3989,5.3989,5.3989,5.3977,5.3743,5.3603,3.9135,3.9131,3.7992,3.769,3.7942,3.7995,3.8245,3.8639,3.9027,3.9314,3.9534,4.0116,4.0399,4.0415,4.0686,0.0,0.0,0.0,4.1757,4.2602,4.3048,4.3529,4.4033,4.4599,4.4801,4.4682,4.4784,4.4875,4.4875,4.4875,4.444,4.3602,0.0,0.0,4.3294,4.3368,4.3683,4.4276,4.4381,4.4468,4.4584,4.4584,4.4584,4.4584,4.4584,4.4584,4.4584,4.4584,4.4584,4.4584,4.464,4.4682,0.0,0.0,0.0,0.0,0.0,0.0,0.0,0.0,0.0,0.0,0.0,4.5022,4.5154,0.0,0.0,0.0,4.5927,4.626,4.6431,4.6891,0.0,0.0,0.0,0.0,0.0,0.0,0.0,4.9847,5.0493,5.1321,5.2293,5.229,5.2134,5.1872,5.2619,5.3361,5.3829,0.0,5.4727,5.522,5.5235,5.5201,5.5201,5.5201,5.5206,5.5263,5.5327,5.5361,5.538,5.5837,5.6294,5.6367,5.6824,5.7263,5.7263,5.7156,5.6539,5.5316,5.502,5.502,5.502,5.4846,5.4785,4.1857,4.1808,3.9241,3.8361,3.868,3.88,3.9144,3.9548,4.0008,4.0303,4.0597,4.1517,4.1932,4.1964,4.2581,0.0,0.0,4.3338,4.399,4.5122,4.5107,4.5547,4.6336,4.6453,4.6455,4.6351,4.6455,4.6513,4.6513,4.6513,4.6604,4.6752,4.5141,4.4325,4.4308,4.4438,4.4492,4.4492,4.4699,4.477,4.477,4.4784,4.4784,4.4815,4.4784,4.4798,4.4826,4.4812,4.4778,4.4727,4.4847,4.4899,4.4831,0.0,0.0,0.0,0.0,0.0,0.0,0.0,0.0,0.0,0.0,0.0,0.0,0.0,0.0,0.0,4.7046,0.0,4.7561,4.8457,0.0,0.0,0.0,4.9561,4.9633,4.9775,5.0245,5.1269,0.0,0.0,5.4162,0.0,5.5345,5.459,5.5141,5.5658,5.5768,5.5687,5.5656,5.5949,5.5766,5.5667,5.5982,5.5915,5.598,5.609,5.5892,5.615,5.6235,5.7196,5.8107,5.8168,5.938,6.0297,6.0352,6.0157,5.9412,5.6304,5.574,5.5721,5.5837,5.5792,5.5897,4.2264,4.2437,4.2058,4.185,4.1815,4.2008,4.2456,4.308,4.3459,4.3783,4.4101,4.4563,4.48,4.4817,4.4966,4.5174,4.5393,4.5393,4.5658,4.6109,4.6141,4.6333,4.6682,4.6727,4.6712,4.6665,4.6712,4.6741,4.6724,4.6724,4.6739,4.6769,4.6357,4.6142,4.6159,4.6203,4.6201,4.6217,4.6261,4.6276,4.6276,4.6293,4.6334,4.6432,4.6449,4.6507,4.665,4.665,4.6377,4.578,4.587,4.5679,4.513,4.523,0.0,0.0,0.0,0.0,0.0,0.0,0.0,0.0,0.0,4.5983,4.6721,0.0,4.7345,0.0,4.8665,4.8911,4.8929,4.9198,0.0,0.0,5.0162,5.0943,5.1538,5.2303,5.3124,5.3974,5.4462,5.4793,5.5091,5.6427,5.7308,5.7088,5.6223,5.6044,5.7189,5.7386,5.7822,5.8867,5.9033,5.915,5.904,5.915,5.9088,5.9204,5.9203,5.9251,5.9245,5.9538,5.985,5.9832,6.0107,6.0382,6.0462,6.0389,6.0212,5.9345,5.9162,5.9168,5.915,5.9018,5.8988,4.4638,4.4862,4.536,4.5541,4.5428,4.4211,4.4103,4.4771,4.5049,4.5355,4.5672,4.5937,4.6012,4.6028,4.6028,4.6121,4.6275,4.6275,4.6579,4.711,4.7125,4.7524,4.8257,4.8272,4.8443,4.8765,4.8765,4.8765,4.8765,4.8765,4.8781,4.8765,4.8749,4.8765,4.8697,4.7445,4.6786,4.6817,4.6859,4.6871,4.6903,4.6976,4.7092,4.7218,4.7218,4.7304,4.7491,4.7491,4.7285,4.6838,4.6996,4.6911,4.6544,4.6712,4.6817,0.0,0.0,0.0,0.0,0.0,0.0,0.0,0.0,0.0,0.0,0.0,4.8478,0.0,4.9782,5.03,5.0671,5.1148,5.1548,5.192,5.2529,5.3105,5.354,5.408,5.4603,5.5128,5.5937,5.6479,5.6591,5.8017,5.9079,5.9061,5.8302,5.8063,5.8841,5.9079,5.941,6.0254,6.0389,6.0389,6.0389,6.0389,6.0389,6.0389,6.0389,6.0389,6.0407,6.0713,6.0933,6.097,6.152,6.2034,6.2053,6.2352,6.2585,6.2572,6.2572,6.2022,6.0701,6.0341,6.0274,4.7506,4.777,4.8376,4.876,4.8729,4.6186,4.5406,4.5945,4.6153,4.6456,4.6768,4.6875,4.6936,4.6936,4.6919,4.698,4.71,4.7117,4.7546,4.8294,4.8326,4.9003,5.0219,5.0252,5.0574,5.1184,5.1218,5.1218,5.1218,5.1218,5.1218,5.1218,5.1218,5.1218,5.11,4.8646,4.7376,4.7405,4.7507,4.7595,4.7654,4.7799,4.8003,4.8156,4.817,4.8186,4.8252,4.8266,4.8149,4.7989,4.8205,4.8312,4.8225,4.8521,4.8697,0.0,4.8697,0.0,0.0,0.0,0.0,0.0,0.0,0.0,0.0,4.9565,4.9889,5.0174,5.1074,5.1917,5.2604,5.3461,5.4249,5.4933,5.513,5.529,5.5491,5.5539,5.5688,5.5992,5.7266,5.8192,5.834,5.9648,6.0566,6.0682,6.0805,6.0915,6.1025,6.0878,6.0774,6.0811,6.097,6.1429,6.1343,6.1196,6.1215,6.1135,6.1282,6.1043,6.1215,6.1722,6.2138,6.2248,6.3246,6.4127,6.4249,6.4769,6.5196,6.5068,6.5031,6.4206,6.2016,6.1325,6.1043,4.8147,4.8392,4.9089,4.9498,4.9657,4.9423,4.9309,4.9292,4.9593,4.9938,5.0228,5.026,5.0276,5.0276,5.0276,5.0276,5.0308,5.0308,5.0408,5.0592,5.0575,5.0728,5.0997,5.0981,5.1066,5.1201,5.1218,5.1218,5.1218,5.1218,5.1218,5.1218,5.1218,5.1218,5.1184,0.0,0.0,0.0,5.064,5.0796,5.1041,5.1085,5.1313,5.1709,5.1706,0.0,5.1213,5.1175,5.0597,4.9424,4.9564,0.0,0.0,0.0,0.0,0.0,0.0,0.0,0.0,0.0,0.0,0.0,5.2563,5.1988,5.0587,5.188,5.3152,5.3879,5.4256,5.4489,5.4635,5.4827,5.4995,5.5123,5.5311,5.5855,5.711,5.7411,5.7957,5.9301,5.9723,5.9906,6.0003,6.0786,6.163,6.2279,6.2952,6.3649,6.4187,6.3123,6.264,6.3246,6.3741,6.4261,6.4371,6.4242,6.4059,6.4371,6.4371,6.4279,6.4206,6.4334,6.4536,6.4499,6.4866,6.5068,6.5081,6.5228,6.5417,6.5325,6.5343,6.5105,6.4499,6.4352,6.4371,4.9902,0.0,5.0795,5.1145,0.0,5.1662,5.1781,5.1646,5.1095,5.099,5.1201,5.1218,5.1218,5.1218,5.1218,5.1218,5.1218,5.1218,5.1218,5.1218,5.1218,5.1387,5.1758,5.1725,5.1945,5.2334,5.235,5.235,5.2334,5.2334,5.2334,5.2334,5.2317,5.235,5.2448,5.261,5.2316,5.1599,5.1771,5.2003,5.2339,5.2443,5.2692,5.312,0.0,0.0,0.0,0.0,0.0,0.0,0.0,0.0,0.0,0.0,0.0,5.2102,5.2114,5.2276,5.2642,5.2762,5.3201,5.4074,5.4266,5.3928,5.29,5.3836,5.4636,5.5047,5.5235,5.5615,5.64,5.655,5.6895,5.7645,5.7832,5.8234,5.893,5.9124,5.9501,6.0254,6.075,6.1117,6.1557,6.231,6.3135,6.3912,6.4383,6.4842,6.5141,6.4591,6.4242,6.464,6.4989,6.5288,6.5307,6.5307,6.5325,6.5307,6.5307,6.5307,6.5307,6.5307,6.5307,6.5325,6.56,6.5888,6.5925,6.62,6.6476,6.6476,6.6476,6.6476,6.6439,6.5875,6.5307,5.2036,5.2291,5.2867,5.3097,5.3115,5.3479,5.3651,5.355,0.0,0.0,0.0,5.159,5.1607,5.1607,5.1607,5.159,5.1607,5.1607,5.1607,5.1607,5.159,5.1928,5.2486,5.2503,5.2875,5.3467,5.3501,5.3501,5.3501,5.3517,5.3517,5.3534,5.3568,5.3651,5.3816,5.4157,5.3681,5.243,5.2595,5.2884,5.3253,5.3416,5.3729,5.4166,5.4162,5.4211,5.4363,5.4345,5.4304,5.4161,5.4434,5.4589,5.4589,5.4828,5.4936,5.4967,5.4967,5.4955,5.4967,5.5007,5.5157,5.5453,5.5741,5.5716,5.532,5.5517,5.5721,5.5891,5.6141,5.6857,5.812,5.836,5.8951,6.0272,6.0389,6.0407,6.0584,6.0768,6.0903,6.1098,6.1851,6.2493,6.316,6.3833,6.4585,6.5301,6.5485,6.56,6.5687,6.5613,6.5508,6.5747,6.5925,6.5815,6.576,6.5833,6.571,6.5857,6.5815,6.5723,6.5729,6.5723,6.5723,6.587,6.6311,6.6641,6.6751,6.7168,6.7664,6.7682,6.7682,6.7682,6.759,6.6678,6.5852,5.4033,5.4401,5.4832,5.501,5.501,5.5238,5.536,5.5224,5.3788,5.3146,5.3179,5.3179,5.3179,5.3179,5.3179,5.3162,5.3179,5.3196,5.3179,0.0,5.3179,5.3213,5.3331,5.3315,5.3399,5.3501,5.3501,5.3501,5.3517,5.3635,5.3667,5.3718,5.3833,5.4013,5.4156,5.4617,5.4866,5.4877,5.4687,5.487,5.5426,5.5468,5.5764,5.6326,5.6348,5.6137,5.5737,5.5731,5.5424,5.4803,5.4876,5.493,5.4942,5.5151,5.5154,5.5154,5.5166,5.5154,5.5184,5.5159,5.5819,5.7276,5.8162,5.802,5.6561,5.7025,5.7779,5.8539,5.9142,5.9778,6.0047,6.004,6.0199,6.0456,6.0444,6.0676,6.1447,6.2095,6.2719,6.3374,6.4273,6.4714,6.4848,6.5031,6.5417,6.6127,6.6329,6.6549,6.6953,6.6751,6.6678,6.7173,6.737,6.737,6.7205,6.7333,6.721,6.737,6.726,6.7168,6.7155,6.7155,6.7155,6.7297,6.7352,6.7444,6.7499,6.759,6.7682,6.7682,6.7682,6.7682,6.7682,6.7407,6.7242,5.4862,5.5152,5.5435,5.5559,5.5576,5.5664,5.5699,5.5648,5.4989,5.4684,5.4701,5.4684,5.4684,5.4684,5.4702,5.4684,5.4684,5.4701,5.4702,5.4702,5.4684,5.4701,5.4702,5.4684,5.4684,5.4702,5.4805,5.4856,5.4873,5.5026,5.5143,5.5243,5.5588,5.583,5.5909,5.6488,5.6863,5.7067,5.6039,5.5772,5.6379,5.6812,5.7272,5.7769,5.8174,5.8368,5.8176,5.817,5.8007,5.7679,5.7747,5.782,5.782,5.7946,5.8017,5.8017,5.8035,5.8035,5.8017,5.8035,5.837,5.915,5.9594,5.9533,5.8734,5.8979,5.9375,5.982,6.0205,6.0603,6.1025,6.1435,6.1875,6.2365,6.2787,6.3196,6.3558,6.3894,6.4328,6.4714,6.5063,6.5453,6.5907,6.5962,6.6256,6.6971,6.7136,6.7315,6.7645,6.7407,6.726,6.7609,6.7682,6.7682,6.7682,6.7682,6.7682,6.7682,6.7682,6.7682,6.7682,6.7682,6.7682,6.7682,6.7682,6.7682,6.7682,6.7682,6.7682,6.7682,6.7682,6.7682,6.7682,6.7682,6.7682,5.578,5.5961,5.6119,5.6189,5.6189,5.6189,5.6207,5.6207,5.6207,5.6189,5.6155,5.5868,5.5699,5.5699,5.5699,5.5699,5.5699,5.5699,5.5699,5.5699,5.5699,5.5699,5.5699,5.5699,5.5716,5.5786,5.5909,5.603,5.6133,5.6303,5.6538,5.6769,5.727,5.754,5.7555,5.8151,5.8548,5.8617,5.7405,5.6965,5.7426,5.8087,5.859,5.8977,5.9543,5.9952,6.0059,6.009,6.009,6.009,6.0176,6.0256,6.0256,6.0341,6.0389,6.0389,6.0389,6.0389,6.0389,6.0389,6.0474,6.0658,6.0848,6.1025,6.1227,6.1398,6.1318,6.1031,6.1208,6.163,6.242,6.2994,6.3637,6.4328,6.4897,6.5123,6.527,6.5435,6.5558,6.5582,6.5742,6.6145,6.6586,6.6783,6.7008,6.7499,6.7682,6.7682,6.7682,6.7682,6.7682,6.7682,6.7682,6.7682,6.7682,6.7682,6.7682,6.7682,6.7682,6.7682,6.7682,6.7682,6.7682,6.7682,6.7682,6.7682,6.7682,6.7682,6.7682,6.7682,6.7682,6.7682,6.7682,6.7682,6.7682,5.7478,5.766,5.7695,5.7679,5.7695,5.7695,5.7679,5.7695,5.7695,5.7695,5.7577,5.6308,5.5783,5.5699,5.575,5.5783,5.5767,5.5716,5.575,5.575,5.5699,5.5699,5.5801,5.5733,5.5804,5.6012,5.6115,5.6423,5.6677,5.6842,5.7068,5.7494,5.797,5.8319,5.8343,5.8784,5.9129,5.9313,5.9289,5.9296,5.9348,5.952,5.9761,6.0042,6.0133,6.0231,6.0432,6.0365,6.0383,6.0365,6.0438,6.0413,6.0432,6.0438,6.0444,6.0481,6.0474,6.0389,6.0444,6.0389,6.0841,6.1447,6.2218,6.2897,6.3625,6.4352,6.415,6.3105,6.3319,6.3974,6.4824,6.4976,6.5031,6.5154,6.5343,6.5307,6.549,6.5962,6.6384,6.6402,6.6916,6.7499,6.7462,6.748,6.7554,6.7645,6.7682,6.7682,6.7682,6.7682,6.7682,6.7682,6.7682,6.7682,6.7682,6.7682,6.7682,6.7682,6.7682,6.7682,6.7682,6.7682,6.7682,6.7682,6.7682,6.7682,6.7682,6.7682,6.7682,6.7682,6.7682,6.7682,6.7682,6.7682,6.7682,5.9126,5.9201,5.9184,5.9201,5.9201,5.9201,5.9184,5.9201,5.9201,5.9201,5.9152,5.8558,5.7831,5.7019,5.7002,5.7002,5.7002,5.6985,5.7002,5.7002,5.7002,5.7056,5.7163,5.7163,5.7305,5.7637,5.8186,5.8651,5.9093,5.9938,6.0522,6.0762,6.1245,6.153,6.1631,6.1983,6.2301,6.2454,6.272,6.2857,6.2675,6.1469,6.0852,6.1056,6.1489,6.1752,6.1808,6.1802,6.1802,6.1857,6.2291,6.2585,6.2585,6.3025,6.3288,6.3288,6.3288,6.3301,6.3288,6.3288,6.3435,6.3765,6.4059,6.4444,6.4769,6.5105,6.5141,6.5063,6.4897,6.4971,6.5307,6.571,6.6017,6.6072,6.6402,6.6696,6.6733,6.7003,6.7205,6.7242,6.7499,6.7682,6.7682,6.7682,6.7682,6.7682,6.7682,6.7682,6.7682,6.7682,6.7682,6.7682,6.7682,6.7682,6.7682,6.7682,6.7682,6.7682,6.7682,6.7682,6.7682,6.7682,6.7682,6.7682,6.7682,6.7682,6.7682,6.7682,6.7682,6.7682,6.7682,6.7682,6.7682,6.7682,6.7682,6.0097,6.0097,6.0097,6.0097,6.0097,6.0097,6.0097,6.0097,6.0097,6.0097,6.0097,6.0097,5.9522,5.861,5.849,5.8509,5.8509,5.8509,5.8527,5.8564,5.8582,5.871,5.8927,5.898,5.9178,5.965,6.029,6.0859,6.1382,6.2539,6.3189,6.3251,6.3699,6.3996,6.4112,6.4374,6.4588,6.4722,6.4975,6.5118,6.487,6.3381,6.2516,6.2646,6.3178,6.349,6.349,6.349,6.3472,6.349,6.4108,6.442,6.4439,6.4989,6.5307,6.5307,6.5307,6.5307,6.5307,6.5307,6.5307,6.5325,6.5472,6.5632,6.5674,6.5833,6.62,6.6623,6.6311,6.598,6.6035,6.6476,6.6819,6.6861,6.7388,6.7682,6.7645,6.7682,6.7664,6.7682,6.7664,6.7682,6.7682,6.7682,6.7682,6.7682,6.7682,6.7682,6.7682,6.7682,6.7682,6.7682,6.7682,6.7682,6.7682,6.7682,6.7682,6.7682,6.7682,6.7682,6.7682,6.7682,6.7682,6.7682,6.7682,6.7682,6.7682,6.7682,6.7696,6.7682,6.7696,6.7696,6.7682,6.77,6.77,6.0097,6.0131,6.0114,6.0182,6.0114,6.0165,6.0148,6.0266,6.0182,6.0148,6.0216,6.0182,6.0097,6.0032,6.0015,6.0015,5.9962,5.9896,5.9992,6.0158,6.0211,6.0482,6.0863,6.0881,6.1151,6.1535,6.1777,6.222,6.2856,6.3545,6.3842,6.3943,6.4443,6.4629,6.4711,6.4872,6.4926,6.5211,6.5269,6.5231,6.5317,6.5215,6.5073,6.5068,6.5123,6.505,6.5105,6.5141,6.5141,6.516,6.5196,6.5233,6.5251,6.5325,6.5417,6.538,6.5362,6.5362,6.5398,6.5453,6.5435,6.5472,6.609,6.6439,6.6476,6.7021,6.7388,6.759,6.7462,6.7407,6.7407,6.7407,6.7535,6.7554,6.7627,6.7682,6.7682,6.7682,6.7682,6.7682,6.7682,6.7682,6.7682,6.7682,6.7682,6.7682,6.7682,6.7682,6.7682,6.7682,6.7682,6.7682,6.7682,6.7682,6.7682,6.7682,6.7682,6.7682,6.7682,6.77,6.7682,6.7682,6.7696,6.7727,6.7754,6.7754,6.7714,6.7696,6.7722,6.7736,6.7749,6.7749,6.7789,6.7741,6.7754,6.1569,6.1569,6.1569,6.1569,6.1569,6.1588,6.1588,6.1588,6.1552,6.1569,6.1569,6.1552,6.1646,6.1745,6.1762,6.1236,6.0387,6.032,6.0489,6.0749,6.0785,6.1057,6.1536,6.1571,6.1916,6.2522,6.3062,6.3916,6.4979,6.5613,6.5881,6.5924,6.6125,6.6326,6.6441,6.6496,6.6605,6.6745,6.6758,6.6785,6.6788,6.6824,6.6843,6.6769,6.582,6.5307,6.5307,6.5307,6.5307,6.5307,6.5778,6.6072,6.6127,6.6549,6.6824,6.6824,6.6824,6.6824,6.6824,6.6843,6.6824,6.6874,6.7095,6.7242,6.7297,6.7535,6.7682,6.7682,6.7682,6.7682,6.7682,6.7682,6.7682,6.7682,6.7682,6.7682,6.7682,6.7682,6.7682,6.7682,6.7682,6.7682,6.7682,6.7682,6.7682,6.7682,6.7682,6.7682,6.7682,6.7682,6.7682,6.7682,6.7682,6.7682,6.7682,6.7682,6.7682,6.7682,6.77,6.77,6.7714,6.782,6.7842,6.7881,6.7913,6.7978,6.7972,6.7959,6.7959,6.7946,6.7946,6.7959,6.7959,6.7959,6.7959,6.2398,6.2398,6.2398,6.2398,6.2398,6.2398,6.2398,6.2398,6.2398,6.2398,6.2417,6.2476,6.2557,6.2727,6.2845,6.2468,6.1588,6.1425,6.1575,6.1995,6.1996,6.2334,6.2889,6.2974,6.3306,6.3992,6.4675,6.5559,6.6407,6.6939,6.7144,6.714,6.728,6.7424,6.7538,6.7552,6.7606,6.7687,6.7682,6.7682,6.7682,6.7682,6.7682,6.7554,6.6623,6.6072,6.6072,6.609,6.6072,6.6145,6.6604,6.6898,6.6935,6.7407,6.7682,6.7682,6.7682,6.7682,6.7682,6.7682,6.7682,6.7682,6.7682,6.7682,6.7682,6.7682,6.7682,6.7682,6.7682,6.7682,6.7682,6.7682,6.7682,6.7682,6.7682,6.7682,6.7682,6.7682,6.7682,6.7682,6.7682,6.7682,6.7682,6.7682,6.7682,6.7682,6.7682,6.7682,6.7682,6.7682,6.7727,6.7754,6.7762,6.7802,6.7842,6.7881,6.7781,6.7767,6.7789,6.7794,6.7834,6.7933,6.8037,6.8063,6.8127,6.8203,6.824,6.8222,6.8222,6.8222,6.8228,6.8228,6.824,6.8222,6.8234,6.2398,6.2398,6.2398,6.2398,6.2398,6.2398,6.2398,6.2398,6.2398,6.2417,6.2457,6.2593,6.2693,6.2825,6.3152,6.3421,6.3542,6.3307,6.3452,6.3884,6.3937,6.434,6.4965,6.4963,6.5287,6.5948,6.6645,6.6903,6.7001,6.7303,6.7456,6.7515,6.7593,6.7647,6.7687,6.7687,6.7687,6.7682,6.7682,6.7682,6.7682,6.7682,6.7682,6.7682,6.7554,6.7499,6.7572,6.7554,6.748,6.7535,6.759,6.7664,6.7609,6.7682,6.7682,6.7682,6.7682,6.7682,6.7682,6.7682,6.7682,6.7682,6.7682,6.7682,6.7682,6.7682,6.7682,6.7682,6.7682,6.7682,6.7682,6.7682,6.7682,6.7682,6.7682,6.7682,6.7682,6.7682,6.7682,6.7682,6.7682,6.7682,6.7682,6.7682,6.7682,6.7682,6.7714,6.7727,6.7722,6.7736,6.7781,6.7868,6.7933,6.7967,6.805,6.8088,6.7952,6.7847,6.7907,6.7946,6.8037,6.8152,6.829,6.8352,6.8498,6.8589,6.8613,6.8582,6.8589,6.8577,6.856,6.859,6.8577,6.8582,6.8546,6.2398,6.2398,6.2398,6.2398,6.2398,6.2398,6.2398,6.2398,6.2398,6.2459,6.2613,6.2654,6.2923,6.3304,6.3565,6.4003,6.4585,6.4602,6.4688,6.4841,6.4858,6.5227,6.5776,6.5887,6.6184,6.6732,6.7144,6.7345,6.7373,6.7538,6.7633,6.7647,6.7674,6.77,6.7682,6.7682,6.7682,6.7682,6.7682,6.7682,6.7682,6.7682,6.7682,6.7682,6.7682,6.7682,6.7682,6.7682,6.7682,6.7682,6.7682,6.7682,6.7682,6.7682,6.7682,6.7682,6.7682,6.7682,6.7682,6.7682,6.7682,6.7682,6.7682,6.7682,6.7682,6.7682,6.7682,6.7682,6.7682,6.7682,6.7682,6.7682,6.7682,6.7682,6.7682,6.7682,6.7682,6.7682,6.7682,6.7682,6.7682,6.7682,6.7682,6.7682,6.7696,6.7709,6.7762,6.7842,6.786,6.792,6.8024,6.8152,6.8177,6.8234,6.8371,6.8444,6.8358,6.8234,6.8234,6.8209,6.8272,6.8462,6.8599,6.8789,6.8915,6.9046,6.9039,6.9181,6.9323,6.9192,6.9241,6.9185,6.9024,6.9136,6.9379,6.2398,6.2398,6.2398,6.2398,6.2398,6.2398,6.2398,6.2417,6.2459,6.2576,6.2729,6.2943,6.3266,6.3676,6.4057,6.4585,6.518,6.544,6.565,6.5748,6.5618,6.592,6.6458,6.664,6.6834,6.7158,6.7442,6.7584,6.7584,6.766,6.77,6.77,6.7682,6.7682,6.7682,6.7682,6.7682,6.7682,6.7682,6.7682,6.7682,6.7682,6.7682,6.7682,6.7682,6.7682,6.7682,6.7682,6.7682,6.7682,6.7682,6.7682,6.7682,6.7682,6.7682,6.7682,6.7682,6.7682,6.7682,6.7682,6.7682,6.7682,6.7682,6.7682,6.7682,6.7682,6.7682,6.7682,6.7682,6.7682,6.7682,6.7682,6.7682,6.7682,6.7682,6.7682,6.7682,6.7682,6.7682,6.7682,6.7682,6.7682,6.7682,6.7754,6.7762,6.7789,6.7933,6.805,6.8075,6.8146,6.8309,6.8444,6.8498,6.8594,6.8754,6.8789,6.8758,6.8688,6.8606,6.8558,6.8546,6.887,6.9103,6.9413,6.9614,7.0041,7.0127,7.0533,7.0732,7.042,7.0232,7.0544,7.0732,7.0657,7.0808,6.2398,6.2398,6.2398,6.2398,6.2398,6.2398,6.2417,6.2457,6.2613,6.2729,6.2902,6.3322,6.3695,6.4039,6.4636,6.5179,6.5588,6.5999,6.6401,6.6572,6.6494,6.6581,6.6968,6.7257,6.74,6.7483,6.7601,6.7687,6.7674,6.7687,6.7682,6.7682,6.7682,6.7682,6.7682,6.7682,6.7682,6.7682,6.7682,6.7682,6.7682,6.7682,6.7682,6.7682,6.7682,6.7682,6.7682,6.7682,6.7682,6.7682,6.7682,6.7682,6.7682,6.7682,6.7682,6.7682,6.7682,6.7682,6.7682,6.7682,6.7682,6.7682,6.7682,6.7682,6.7682,6.7682,6.7682,6.7682,6.7682,6.7682,6.7682,6.7682,6.7682,6.7714,6.7714,6.7714,6.7714,6.7727,6.7741,6.7754,6.7727,6.7709,6.7749,6.7873,6.792,6.7985,6.8159,6.829,6.8371,6.8474,6.8641,6.8751,6.8889,6.8993,6.9166,6.9209,6.9219,6.919,6.9133,6.9078,6.9113,6.9474,6.9876,7.0184,7.0593,7.0972,7.1285,7.1655,7.1911,7.1797,7.193,7.2329,7.2272,7.1968,7.1902,6.2398,6.2398,6.2398,6.2398,6.2398,6.2398,6.2479,6.2613,6.2654,6.2962,6.3358,6.3621,6.4111,6.4688,6.5163,6.5684,6.6172,6.6494,6.6867,6.7247,6.7233,6.7233,6.7373,6.7538,6.7633,6.7647,6.7674,6.7682,6.7682,6.7682,6.7682,6.7682,6.7682,6.7682,6.7682,6.7682,6.7682,6.7682,6.7682,6.7682,6.7682,6.7682,6.7682,6.7682,6.7682,6.7682,6.7682,6.7682,6.7682,6.7682,6.7682,6.7682,6.7682,6.7682,6.7682,6.7682,6.7682,6.7682,6.7682,6.7682,6.7682,6.7682,6.7682,6.7682,6.7682,6.7682,6.7682,6.7682,6.7682,6.7714,6.77,6.7696,6.7736,6.7802,6.7789,6.7767,6.7815,6.7842,6.7868,6.7972,6.7985,6.7998,6.8024,6.8114,6.8197,6.8247,6.8462,6.8675,6.874,6.8889,6.906,6.9222,6.9349,6.9462,6.9563,6.9632,6.9661,6.9672,6.9681,6.9728,6.9954,7.0335,7.0809,7.1244,7.1883,7.2349,7.2423,7.2602,7.2773,7.3119,7.3033,7.3138,7.2898,7.2659,7.2737,6.2398,6.2398,6.2398,6.2398,6.2417,6.2479,6.2593,6.2748,6.2981,6.3304,6.3713,6.4146,6.4636,6.523,6.5718,6.6156,6.6617,6.6961,6.7251,6.7428,6.7524,6.7565,6.7611,6.7674,6.7682,6.7682,6.7682,6.7682,6.7682,6.7682,6.7682,6.7682,6.7682,6.7682,6.7682,6.7682,6.7682,6.7682,6.7682,6.7682,6.7682,6.7682,6.7682,6.7682,6.7682,6.7682,6.7682,6.7682,6.7682,6.7682,6.7682,6.7682,6.7682,6.7682,6.7682,6.7682,6.7682,6.7682,6.7682,6.7682,6.7682,6.7682,6.7682,6.7682,6.7682,6.77,6.7714,6.7776,6.7781,6.7802,6.7873,6.7855,6.7933,6.8018,6.7998,6.7959,6.7985,6.8037,6.8101,6.8177,6.8222,6.8278,6.829,6.842,6.8486,6.8575,6.887,6.9027,6.9136,6.9317,6.9503,6.9652,6.9759,6.9844,6.9946,7.0019,7.0152,7.0159,7.0832,7.0782,7.102,7.1392,7.1846,7.2434,7.3117,7.3582,7.3582,7.3754,7.4235,7.4371,7.4098,7.4003,7.3945,7.3716,7.3754,6.2398,6.2398,6.2398,6.24,6.2476,6.2615,6.2748,6.2904,6.336,6.3731,6.4093,6.474,6.5262,6.5636,6.6233,6.6661,6.6907,6.7265,6.7446,6.757,6.762,6.7674,6.7674,6.7687,6.7682,6.7682,6.7682,6.7682,6.7682,6.7682,6.7682,6.7682,6.7682,6.7682,6.7682,6.7682,6.7682,6.7682,6.7682,6.7682,6.7682,6.7682,6.7682,6.7682,6.7682,6.7682,6.7682,6.7682,6.7682,6.7682,6.7682,6.7682,6.7682,6.7682,6.7682,6.7682,6.7682,6.7682,6.7682,6.7682,6.7682,6.7682,6.7714,6.7727,6.7741,6.7781,6.7828,6.7959,6.7933,6.8024,6.8127,6.8139,6.8209,6.8321,6.8358,6.8297,6.8259,6.8297,6.8346,6.8371,6.8493,6.8553,6.8624,6.8717,6.8863,6.896,6.9235,6.9474,6.9584,6.9739,6.9909,7.0063,7.0134,7.0186,7.0298,7.0419,7.0561,7.076,7.1898,7.2286,7.2425,7.2748,7.3091,7.3576,7.4144,7.4516,7.465,7.5007,7.539,7.5437,7.5053,7.5302,7.5533,7.513,7.4996,6.2398,6.2398,6.2398,6.2496,6.2632,6.269,6.2962,6.3397,6.3658,6.4146,6.4757,6.5311,6.5828,6.6294,6.6688,6.7044,6.7293,6.746,6.7556,6.766,6.7674,6.7682,6.7682,6.7682,6.7682,6.7682,6.7682,6.7682,6.7682,6.7682,6.7682,6.7682,6.7682,6.7682,6.7682,6.7682,6.7682,6.7682,6.7682,6.7682,6.7682,6.7682,6.7682,6.7682,6.7682,6.7682,6.7682,6.7682,6.7682,6.7682,6.77,6.7714,6.77,6.7682,6.7682,6.7714,6.7714,6.77,6.77,6.7727,6.7682,6.7741,6.7815,6.7842,6.7855,6.7959,6.8075,6.819,6.8197,6.829,6.8426,6.8426,6.8529,6.8658,6.8717,6.8774,6.8877,6.8779,6.8751,6.8843,6.8945,6.9042,6.9083,6.9211,6.9338,6.9411,6.9632,6.9909,7.0027,7.0135,7.0256,7.0381,7.0405,7.0456,7.0593,7.0846,7.1245,7.1643,7.2725,7.3676,7.3795,7.3925,7.4213,7.4616,7.5129,7.536,7.5353,7.5529,7.5772,7.5871,7.591,7.5894,7.5879,7.5894,7.5894,6.2398,6.2417,6.2515,6.2613,6.2729,6.3017,6.3341,6.3767,6.4199,6.4722,6.5327,6.5859,6.6343,6.675,6.7073,6.7363,6.7488,6.7565,6.762,6.7687,6.7682,6.7682,6.7682,6.7682,6.7682,6.7682,6.7682,6.7682,6.7682,6.7682,6.7682,6.7682,6.7682,6.7682,6.7682,6.7682,6.7682,6.7682,6.7682,6.7682,6.7682,6.7682,6.7682,6.7682,6.7682,6.7682,6.7682,6.7682,6.7682,6.7714,6.7767,6.7767,6.7714,6.77,6.7709,6.7794,6.7794,6.7847,6.7873,6.7881,6.7894,6.7894,6.8011,6.8075,6.8127,6.8215,6.8352,6.8486,6.854,6.8606,6.8812,6.8846,6.8941,6.9089,6.9136,6.9233,6.9399,6.9275,6.9147,6.9262,6.9388,6.9442,6.9533,6.9662,6.9749,6.9797,7.0008,7.0262,7.0287,7.0397,7.0493,7.0597,7.062,7.0703,7.0866,7.1286,7.1965,7.2626,7.3555,7.4461,7.4994,7.5117,7.5252,7.5512,7.5661,7.5757,7.5812,7.5976,7.5995,7.5962,7.5954,7.5988,7.5988,7.5947,7.5939,6.24,6.2457,6.2632,6.2748,6.2904,6.3397,6.3768,6.4111,6.4757,6.5311,6.5859,6.6373,6.675,6.7087,6.7373,6.7511,6.757,6.762,6.7687,6.77,6.7682,6.7682,6.7682,6.7682,6.7682,6.7682,6.7682,6.7682,6.7682,6.7682,6.7682,6.7682,6.7682,6.7682,6.7682,6.7682,6.7682,6.7682,6.7682,6.7682,6.7682,6.7682,6.7682,6.7682,6.7722,6.7736,6.7749,6.7762,6.7776,6.7749,6.7881,6.7899,6.7834,6.7781,6.7834,6.7946,6.7972,6.8037,6.8139,6.8165,6.8146,6.8159,6.8297,6.8371,6.842,6.8553,6.8717,6.8859,6.8982,6.9063,6.9251,6.9273,6.9388,6.9542,6.9583,6.9681,6.9806,6.9739,6.9701,6.9622,6.9768,6.9872,6.9937,7.0047,7.0118,7.0205,7.0405,7.054,7.0582,7.062,7.0695,7.0739,7.0772,7.0772,7.0906,7.1939,7.2613,7.3197,7.4173,7.5046,7.5745,7.5712,7.5685,7.5808,7.5938,7.5995,7.5995,7.5995,7.5995,7.5995,7.5995,7.5995,7.5995,7.5995,7.5995,6.2496,6.2652,6.269,6.2981,6.3434,6.3677,6.4182,6.4791,6.5228,6.578,6.6355,6.6746,6.7101,6.7387,6.7579,6.766,6.766,6.7687,6.7682,6.7682,6.7682,6.7682,6.7682,6.7682,6.7682,6.7682,6.7682,6.7682,6.7682,6.7682,6.7682,6.7682,6.7682,6.7682,6.7682,6.7682,6.7682,6.7682,6.7682,6.7682,6.7682,6.7714,6.7709,6.7722,6.7815,6.7881,6.7907,6.7972,6.8037,6.805,6.8165,6.8215,6.8203,6.8108,6.8133,6.8197,6.8247,6.8309,6.8432,6.8463,6.8432,6.8468,6.863,6.8709,6.8786,6.8953,6.9166,6.9349,6.9514,6.9643,6.9672,6.9701,6.9797,6.9928,7.0,7.0073,7.0222,7.0273,7.0194,7.0063,7.0168,7.0264,7.029,7.0323,7.0381,7.0445,7.059,7.0687,7.0709,7.0753,7.0836,7.0864,7.0871,7.0878,7.0904,7.2281,7.3288,7.3635,7.443,7.5373,7.5918,7.5938,7.5995,7.5995,7.5995,7.5995,7.5995,7.5995,7.5995,7.5995,7.5995,7.5995,7.5995,7.5995,7.5995,6.2613,6.2729,6.3019,6.3378,6.375,6.4217,6.474,6.5297,6.5814,6.6294,6.6732,6.7101,6.7387,6.7565,6.766,6.7682,6.7682,6.7682,6.7682,6.7682,6.7682,6.7682,6.7682,6.7682,6.7682,6.7682,6.7682,6.7682,6.7682,6.7682,6.7682,6.7682,6.7682,6.7682,6.7682,6.7682,6.7682,6.7682,6.7682,6.77,6.7714,6.7767,6.7789,6.7842,6.798,6.8101,6.8139,6.824,6.8284,6.8334,6.8462,6.8528,6.8582,6.8641,6.8623,6.8587,6.8582,6.8665,6.8816,6.8869,6.8862,6.8885,6.9038,6.9128,6.9203,6.9369,6.9612,6.9787,6.9982,7.0099,7.0099,7.0109,7.0179,7.0281,7.0296,7.0381,7.0504,7.0597,7.0532,7.0437,7.0488,7.052,7.0547,7.0593,7.0628,7.0695,7.0779,7.0815,7.0836,7.0864,7.0898,7.0898,7.0898,7.0898,7.1129,7.2392,7.3449,7.3873,7.468,7.563,7.5995,7.5995,7.5995,7.5995,7.5995,7.5995,7.5995,7.5995,7.5995,7.5995,7.5995,7.5995,7.5995,7.5995,7.5995,6.2768,6.2923,6.3434,6.3804,6.4129,6.4809,6.5328,6.5764,6.6297,6.675,6.7119,6.7359,6.757,6.766,6.77,6.7682,6.7682,6.7682,6.7682,6.7682,6.7682,6.7682,6.7682,6.7682,6.7682,6.7682,6.7682,6.7682,6.7682,6.7682,6.7682,6.7682,6.7682,6.7682,6.7682,6.7682,6.7682,6.7682,6.7682,6.7714,6.7781,6.7881,6.7972,6.7993,6.8247,6.8389,6.8432,6.857,6.863,6.8712,6.8832,6.8949,6.8982,6.9187,6.9222,6.9085,6.9005,6.91,6.9241,6.9334,6.9315,6.9296,6.9511,6.9583,6.9653,6.9797,6.999,7.0168,7.0323,7.0432,7.0424,7.044,7.048,7.0543,7.0566,7.0605,7.0699,7.0758,7.0767,7.0724,7.077,7.0748,7.074,7.0755,7.0753,7.0767,7.0843,7.085,7.0871,7.0878,7.0898,7.0898,7.0898,7.0898,7.1379,7.2449,7.3219,7.3623,7.47,7.5861,7.5995,7.5995,7.5995,7.5995,7.5995,7.5995,7.5995,7.5995,7.5995,7.5995,7.5995,7.5995,7.5995,7.5995,7.5995,6.3036,6.3526,6.3731,6.4199,6.4843,6.5279,6.5812,6.6355,6.6664,6.7019,6.7405,6.747,6.7597,6.7674,6.7682,6.7682,6.7682,6.7682,6.7682,6.7682,6.7682,6.7682,6.7682,6.7682,6.7682,6.7682,6.7682,6.7682,6.7714,6.7714,6.7682,6.7682,6.7682,6.77,6.7727,6.7709,6.7682,6.7696,6.7696,6.7781,6.7907,6.8121,6.8234,6.8346,6.8563,6.8756,6.879,6.8968,6.9108,6.9141,6.9315,6.94,6.9442,6.9613,6.9806,6.9778,6.9662,6.9503,6.9691,6.973,6.973,6.9759,6.9909,7.0,7.0081,7.0228,7.0378,7.0445,7.0593,7.0658,7.0666,7.0647,7.0692,7.0721,7.0743,7.0787,7.0843,7.0841,7.0857,7.0864,7.0822,7.0843,7.0843,7.0864,7.0885,7.0891,7.0891,7.0891,7.0898,7.0898,7.0898,7.0898,7.0898,7.0898,7.1379,7.2469,7.3142,7.3469,7.4738,7.5957,7.5995,7.5995,7.5995,7.5995,7.5995,7.5995,7.5995,7.5995,7.5995,7.5995,7.5995,7.5995,7.5995,7.5995,7.5995,6.364,6.393,6.4305,6.4791,6.5328,6.5844,6.6282,6.6694,6.703,6.7289,6.7502,6.7579,6.7647,6.7687,6.7682,6.7682,6.7682,6.7682,6.7682,6.7682,6.7682,6.7682,6.7682,6.7682,6.7682,6.7714,6.7714,6.7767,6.7767,6.7754,6.7682,6.7696,6.7714,6.7754,6.7834,6.782,6.7873,6.7939,6.7998,6.8075,6.8184,6.8413,6.8587,6.8611,6.8993,6.915,6.9254,6.9411,6.9542,6.9582,6.973,6.9853,6.99,7.0038,7.0205,7.029,7.0186,7.0107,7.0135,7.0135,7.0126,7.0161,7.0256,7.0356,7.0429,7.0559,7.0658,7.0665,7.0758,7.0794,7.082,7.0827,7.0841,7.0862,7.0843,7.0857,7.0885,7.0891,7.0891,7.0891,7.0898,7.0898,7.0898,7.0898,7.0891,7.0891,7.0891,7.0898,7.0898,7.0898,7.0898,7.0898,7.0898,7.0898,7.1495,7.2322,7.3122,7.3719,7.4911,7.5861,7.5957,7.5995,7.5995,7.5995,7.5995,7.5995,7.5995,7.5995,7.5995,7.5995,7.5995,7.5995,7.5995,7.5995,7.5995,6.4411,6.4602,6.4961,6.5361,6.578,6.634,6.6738,6.7023,6.7335,6.7515,6.757,6.7665,6.77,6.7682,6.7682,6.7682,6.7682,6.7682,6.7682,6.7682,6.7682,6.7682,6.7714,6.7727,6.7767,6.7767,6.7834,6.7894,6.7946,6.7939,6.7868,6.7789,6.7847,6.7913,6.7972,6.8024,6.8075,6.8215,6.8358,6.8413,6.8498,6.8809,6.8949,6.9125,6.9369,6.9642,6.9672,6.9834,6.9937,6.9992,7.0109,7.0187,7.0203,7.0359,7.0472,7.0551,7.0508,7.0508,7.0504,7.048,7.0491,7.0507,7.0555,7.0605,7.0687,7.0794,7.0815,7.0789,7.0843,7.0885,7.0891,7.0891,7.0885,7.0885,7.0885,7.0891,7.0898,7.0898,7.0898,7.0898,7.0898,7.0898,7.0898,7.0898,7.0898,7.0898,7.0898,7.0898,7.0898,7.0898,7.0898,7.0898,7.0898,7.0918,7.136,7.2091,7.2911,7.3911,7.5084,7.5803,7.5938,7.5995,7.5995,7.5995,7.5995,7.5995,7.5995,7.5995,7.5995,7.5995,7.5995,7.5995,7.5995,7.5995,7.5995,6.5295,6.5844,6.5589,6.5844,6.6416,6.6664,6.7052,6.7391,6.7474,6.7584,6.766,6.7687,6.7682,6.7682,6.7682,6.7682,6.7682,6.7682,6.7682,6.7682,6.7682,6.7696,6.7767,6.7834,6.7913,6.792,6.7998,6.8127,6.8234,6.8272,6.819,6.8101,6.8114,6.8177,6.8259,6.8346,6.8408,6.8534,6.8712,6.8779,6.8915,6.9179,6.9431,6.9533,6.9816,7.0054,7.0073,7.0222,7.0325,7.0325,7.0424,7.0453,7.0469,7.0601,7.0692,7.0736,7.075,7.0758,7.0765,7.0707,7.0688,7.0696,7.074,7.0779,7.0836,7.0871,7.0885,7.0878,7.0891,7.0891,7.0898,7.0898,7.0898,7.0898,7.0898,7.0898,7.0898,7.0898,7.0898,7.0898,7.0898,7.0898,7.0898,7.0898,7.0898,7.0898,7.0898,7.0898,7.0898,7.0898,7.0898,7.0898,7.0898,7.0956,7.111,7.1937,7.3122,7.4007,7.4976,7.5611,7.5976,7.5995,7.5995,7.5995,7.5995,7.5995,7.5995,7.5995,7.5995,7.5995,7.5995,7.5995,7.5995,7.5995,7.5995,6.5893,6.6312,6.6388,6.6569,6.682,6.7119,6.7335,6.7502,6.7597,6.7633,6.7682,6.7682,6.7682,6.7682,6.7682,6.7682,6.7682,6.7682,6.77,6.7741,6.7767,6.7802,6.7855,6.7959,6.8063,6.8133,6.8209,6.8377,6.8587,6.863,6.8735,6.8677,6.8522,6.8486,6.8582,6.8751,6.8855,6.8945,6.9122,6.9233,6.9309,6.9632,6.9891,6.99,7.016,7.034,7.0372,7.0507,7.0574,7.0613,7.0654,7.0658,7.0673,7.0765,7.0815,7.0843,7.085,7.0871,7.0885,7.0843,7.0822,7.0822,7.0843,7.0871,7.0898,7.0898,7.0898,7.0898,7.0898,7.0898,7.0898,7.0898,7.0898,7.0898,7.0898,7.0898,7.0898,7.0898,7.0898,7.0898,7.0898,7.0898,7.0898,7.0898,7.0898,7.0898,7.0898,7.0898,7.0898,7.0898,7.0898,7.0898,7.0898,7.0898,7.1033,7.2142,7.3411,7.4142,7.488,7.5495,7.5995,7.5995,7.5995,7.5995,7.5995,7.5995,7.5995,7.5995,7.5995,7.5995,7.5995,7.5995,7.5995,7.5995,7.5995,6.6373,6.6732,6.703,6.7162,6.719,6.7405,6.7511,6.7584,6.7647,6.7682,6.7682,6.7682,6.7682,6.7682,6.7682,6.7682,6.7682,6.77,6.7741,6.7781,6.786,6.7946,6.8037,6.8177,6.8309,6.842,6.8522,6.8682,6.9016,6.9016,6.9147,6.9179,6.9089,6.9027,6.9045,6.9251,6.9378,6.943,6.9572,6.9672,6.973,7.0009,7.0222,7.0237,7.0453,7.0555,7.0605,7.0692,7.0755,7.0758,7.0787,7.0815,7.0843,7.0864,7.0891,7.0898,7.0898,7.0898,7.0898,7.0898,7.0898,7.0878,7.0885,7.0891,7.0898,7.0898,7.0898,7.0898,7.0898,7.0898,7.0898,7.0898,7.0898,7.0898,7.0898,7.0898,7.0898,7.0898,7.0898,7.0898,7.0898,7.0898,7.0898,7.0898,7.0898,7.0898,7.0898,7.0898,7.0898,7.0898,7.0898,7.0898,7.0898,7.0898,7.0975,7.2315,7.3507,7.393,7.4687,7.5553,7.5995,7.5995,7.5995,7.5995,7.5995,7.5995,7.5995,7.5995,7.5995,7.5995,7.5995,7.5995,7.5995,7.5995,7.5995,6.6743,6.7196,6.7382,6.7488,6.7474,6.7502,6.7584,6.766,6.7687,6.7682,6.7682,6.7682,6.7682,6.7682,6.7682,6.7682,6.7714,6.7714,6.7762,6.7873,6.7991,6.8088,6.8259,6.8413,6.863,6.8779,6.8904,6.9114,6.9472,6.9472,6.9603,6.9739,6.971,6.9604,6.9532,6.9681,6.9778,6.9816,6.9982,7.0036,7.0116,7.0348,7.0453,7.0535,7.065,7.0739,7.0753,7.0815,7.0843,7.0857,7.0864,7.0878,7.0885,7.0885,7.0898,7.0898,7.0898,7.0898,7.0898,7.0898,7.0898,7.0898,7.0898,7.0898,7.0898,7.0898,7.0898,7.0898,7.0898,7.0898,7.0898,7.0898,7.0898,7.0898,7.0898,7.0898,7.0898,7.0898,7.0898,7.0898,7.0898,7.0898,7.0898,7.0898,7.0898,7.0898,7.0898,7.0898,7.0898,7.0898,7.0898,7.0898,7.0918,7.1148,7.1418,7.261,7.3565,7.393,7.4591,7.5553,7.5995,7.5995,7.5995,7.5995,7.5995,7.5995,7.5995,7.5995,7.5995,7.5995,7.5995,7.5995,7.5995,7.5995,7.5995,6.704,6.7414,6.7565,6.762,6.762,6.7633,6.7679,6.7687,6.7682,6.7682,6.7682,6.7682,6.7682,6.7682,6.77,6.7714,6.7714,6.782,6.7899,6.7933,6.8152,6.8352,6.8528,6.8751,6.8971,6.9201,6.9367,6.9543,6.991,6.99,7.0,7.0153,7.0205,7.0125,7.0009,7.0072,7.0196,7.0213,7.0306,7.0353,7.0378,7.0563,7.0687,7.0707,7.0808,7.085,7.085,7.0885,7.0891,7.0898,7.0898,7.0898,7.0898,7.0898,7.0898,7.0898,7.0898,7.0898,7.0898,7.0898,7.0898,7.0898,7.0898,7.0898,7.0898,7.0898,7.0898,7.0898,7.0898,7.0898,7.0898,7.0898,7.0898,7.0898,7.0898,7.0898,7.0898,7.0898,7.0898,7.0898,7.0898,7.0898,7.0898,7.0898,7.0898,7.0898,7.0898,7.0898,7.0898,7.0898,7.0898,7.0898,7.0975,7.1302,7.1879,7.286,7.3738,7.4276,7.4918,7.5745,7.5995,7.5995,7.5995,7.5995,7.5995,7.5995,7.5995,7.5995,7.5995,7.5995,7.5995,7.5995,7.5995,7.5995,7.5995,6.7331,6.7584,6.766,6.7682,6.7682,6.7682,6.7682,6.7682,6.7682,6.7682,6.7682,6.7682,6.7682,6.7714,6.7754,6.7767,6.7776,6.7959,6.8101,6.8133,6.8444,6.8682,6.89,6.9093,6.9361,6.9603,6.9739,6.99,7.0222,7.0247,7.0323,7.0456,7.0566,7.0504,7.0413,7.0456,7.0491,7.0496,7.0532,7.0597,7.0643,7.0743,7.0822,7.0836,7.0871,7.0891,7.0898,7.0898,7.0898,7.0898,7.0898,7.0898,7.0898,7.0898,7.0898,7.0898,7.0898,7.0898,7.0898,7.0898,7.0898,7.0898,7.0898,7.0898,7.0898,7.0898,7.0898,7.0898,7.0898,7.0898,7.0898,7.0898,7.0898,7.0898,7.0898,7.0898,7.0898,7.0898,7.0898,7.0898,7.0898,7.0898,7.0898,7.0898,7.0898,7.0898,7.0898,7.0898,7.0898,7.0898,7.0898,7.0898,7.1033,7.136,7.1975,7.2879,7.3757,7.4565,7.5277,7.5938,7.5995,7.5995,7.5995,7.5995,7.5995,7.5995,7.5995,7.5995,7.5995,7.5995,7.5995,7.5995,7.5995,7.5995,7.5995,6.7584,6.7669,6.7682,6.7682,6.7682,6.7682,6.7682,6.7682,6.7682,6.7682,6.7682,6.7682,6.7714,6.7741,6.7828,6.7907,6.7985,6.8184,6.8346,6.8522,6.8763,6.9034,6.9302,6.9481,6.9739,6.9964,7.0126,7.0203,7.0477,7.0508,7.059,7.0677,7.0736,7.0729,7.0714,7.0673,7.0677,7.0699,7.0709,7.0765,7.0787,7.0824,7.0871,7.0885,7.0891,7.0898,7.0898,7.0898,7.0898,7.0898,7.0898,7.0898,7.0898,7.0898,7.0898,7.0898,7.0898,7.0898,7.0898,7.0898,7.0898,7.0898,7.0898,7.0898,7.0898,7.0898,7.0898,7.0898,7.0898,7.0898,7.0898,7.0898,7.0898,7.0898,7.0898,7.0898,7.0898,7.0898,7.0898,7.0898,7.0898,7.0898,7.0898,7.0898,7.0898,7.0898,7.0898,7.0898,7.0898,7.0898,7.0898,7.0898,7.1091,7.1437,7.2149,7.3072,7.4034,7.495,7.5438,7.5995,7.5995,7.5995,7.5995,7.5995,7.5995,7.5995,7.5995,7.5995,7.5995,7.5995,7.5995,7.5995,7.5995,7.5995,7.5995,6.7565,6.77,6.7682,6.7682,6.7682,6.7682,6.7682,6.7682,6.7682,6.7682,6.7682,6.7682,6.7754,6.786,6.7881,6.8024,6.8209,6.8401,6.8575,6.8802,6.9125,6.9388,6.9612,6.9825,7.0073,7.0247,7.0381,7.0477,7.0665,7.075,7.0767,7.0862,7.0843,7.0876,7.085,7.0843,7.0848,7.0848,7.085,7.085,7.0857,7.0885,7.0898,7.0898,7.0898,7.0898,7.0898,7.0898,7.0898,7.0898,7.0898,7.0898,7.0898,7.0898,7.0898,7.0898,7.0898,7.0898,7.0898,7.0898,7.0898,7.0898,7.0898,7.0898,7.0898,7.0898,7.0898,7.0898,7.0898,7.0898,7.0898,7.0898,7.0898,7.0898,7.0898,7.0898,7.0898,7.0898,7.0898,7.0898,7.0898,7.0898,7.0898,7.0898,7.0898,7.0898,7.0898,7.0898,7.0898,7.0898,7.0898,7.0898,7.1091,7.1418,7.2437,7.3392,7.438,7.5265,7.5707,7.5995,7.5995,7.5995,7.5995,7.5995,7.5995,7.5995,7.5995,7.5995,7.5995,7.5995,7.5995,7.5995,7.5995,7.5995,7.5995,6.762,6.77,6.7682,6.7682,6.7682,6.7682,6.7682,6.7682,6.7682,6.7682,6.7714,6.7767,6.7834,6.7907,6.8075,6.8259,6.845,6.8797,6.8993,6.919,6.9533,6.9768,6.9974,7.0144,7.0356,7.0493,7.0597,7.068,7.0815,7.0864,7.0891,7.0891,7.0898,7.0898,7.0891,7.0885,7.0891,7.0885,7.0891,7.0898,7.0898,7.0898,7.0898,7.0898,7.0898,7.0898,7.0898,7.0898,7.0898,7.0898,7.0898,7.0898,7.0898,7.0898,7.0898,7.0898,7.0898,7.0898,7.0898,7.0898,7.0898,7.0898,7.0898,7.0898,7.0898,7.0898,7.0898,7.0898,7.0898,7.0898,7.0898,7.0898,7.0898,7.0898,7.0898,7.0898,7.0898,7.0898,7.0898,7.0898,7.0898,7.0898,7.0898,7.0898,7.0898,7.0898,7.0898,7.0898,7.0898,7.0898,7.0898,7.0898,7.111,7.1418,7.2514,7.3546,7.4392,7.5207,7.5765,7.5995,7.5995,7.5995,7.5995,7.5995,7.5995,7.5995,7.5995,7.5995,7.5995,7.5995,7.5995,7.5995,7.5995,7.5995,7.5995,6.77,6.7682,6.7682,6.7682,6.7682,6.7682,6.7682,6.77,6.7727,6.7714,6.7754,6.7828,6.792,6.8075,6.8309,6.8558,6.8809,6.9163,6.9419,6.9553,6.9891,7.0126,7.0256,7.0437,7.0582,7.0729,7.0801,7.0808,7.0864,7.0898,7.0898,7.0898,7.0898,7.0898,7.0898,7.0898,7.0898,7.0898,7.0898,7.0898,7.0898,7.0898,7.0898,7.0898,7.0898,7.0898,7.0898,7.0898,7.0898,7.0898,7.0898,7.0898,7.0898,7.0898,7.0898,7.0898,7.0898,7.0898,7.0898,7.0898,7.0898,7.0898,7.0898,7.0898,7.0898,7.0898,7.0898,7.0898,7.0898,7.0898,7.0898,7.0898,7.0898,7.0898,7.0898,7.0898,7.0898,7.0898,7.0898,7.0898,7.0898,7.0898,7.0898,7.0898,7.0898,7.0898,7.0898,7.0898,7.0898,7.0898,7.0898,7.0898,7.1033,7.1418,7.2456,7.343,7.4276,7.5034,7.5668,7.5995,7.5995,7.5995,7.5995,7.5995,7.5995,7.5995,7.5995,7.5995,7.5995,7.5995,7.5995,7.5995,7.5995,7.5995,7.5995,6.7682,6.7682,6.7682,6.7682,6.7682,6.7682,6.77,6.7714,6.782,6.786,6.7873,6.7926,6.8088,6.8346,6.8546,6.8809,6.9228,6.95,6.9739,6.9956,7.023,7.0364,7.0472,7.062,7.0743,7.0794,7.0836,7.0871,7.0891,7.0898,7.0898,7.0898,7.0898,7.0898,7.0898,7.0898,7.0898,7.0898,7.0898,7.0898,7.0898,7.0898,7.0898,7.0898,7.0898,7.0898,7.0898,7.0898,7.0898,7.0898,7.0898,7.0898,7.0898,7.0898,7.0898,7.0898,7.0898,7.0898,7.0898,7.0898,7.0898,7.0898,7.0898,7.0898,7.0898,7.0898,7.0898,7.0898,7.0898,7.0898,7.0898,7.0898,7.0898,7.0898,7.0898,7.0898,7.0898,7.0898,7.0898,7.0898,7.0898,7.0898,7.0898,7.0898,7.0898,7.0898,7.0898,7.0898,7.0898,7.0898,7.0898,7.0898,7.0898,7.1379,7.2399,7.3283,7.4084,7.488,7.5534,7.5803,7.5976,7.5995,7.5995,7.5995,7.5995,7.5995,7.5995,7.5995,7.5995,7.5995,7.5995,7.5995,7.5995,7.5995,7.5995,6.7682,6.7682,6.7682,6.7682,6.7682,6.7682,6.7727,6.7807,6.7868,6.8011,6.8152,6.819,6.8321,6.8618,6.882,6.9147,6.9581,6.9844,7.0064,7.0281,7.0456,7.0574,7.068,7.0772,7.0815,7.085,7.0871,7.0891,7.0898,7.0898,7.0898,7.0898,7.0898,7.0898,7.0898,7.0898,7.0898,7.0898,7.0898,7.0898,7.0898,7.0898,7.0898,7.0898,7.0898,7.0898,7.0898,7.0898,7.0898,7.0898,7.0898,7.0898,7.0898,7.0898,7.0898,7.0898,7.0898,7.0898,7.0898,7.0898,7.0898,7.0898,7.0898,7.0898,7.0898,7.0898,7.0898,7.0898,7.0898,7.0898,7.0898,7.0898,7.0898,7.0898,7.0898,7.0898,7.0898,7.0898,7.0898,7.0898,7.0898,7.0898,7.0898,7.0898,7.0898,7.0898,7.0898,7.0898,7.0898,7.0898,7.0898,7.0898,7.0898,7.1283,7.2187,7.3033,7.3853,7.463,7.5361,7.5745,7.5995,7.5995,7.5995,7.5995,7.5995,7.5995,7.5995,7.5995,7.5995,7.5995,7.5995,7.5995,7.5995,7.5995,7.5995,6.7682,6.7682,6.7682,6.7682,6.77,6.7727,6.7794,6.7881,6.7959,6.8171,6.8493,6.8577,6.8635,6.8866,6.9198,6.9543,6.9872,7.0137,7.0367,7.0543,7.0699,7.0743,7.0794,7.0857,7.0878,7.0885,7.0891,7.0898,7.0898,7.0898,7.0898,7.0898,7.0898,7.0898,7.0898,7.0898,7.0898,7.0898,7.0898,7.0898,7.0898,7.0898,7.0898,7.0898,7.0898,7.0898,7.0898,7.0898,7.0898,7.0898,7.0898,7.0898,7.0898,7.0898,7.0898,7.0898,7.0898,7.0898,7.0898,7.0898,7.0898,7.0898,7.0898,7.0898,7.0898,7.0898,7.0898,7.0898,7.0898,7.0898,7.0898,7.0898,7.0898,7.0898,7.0898,7.0898,7.0898,7.0898,7.0898,7.0898,7.0898,7.0898,7.0898,7.0898,7.0898,7.0898,7.0898,7.0898,7.0898,7.0898,7.0898,7.0898,7.0898,7.1418,7.1944,7.2841,7.3661,7.4334,7.5053,7.5592,7.5995,7.5995,7.5995,7.5995,7.5995,7.5995,7.5995,7.5995,7.5995,7.5995,7.5995,7.5995,7.5995,7.5995,7.5995,6.7682,6.7682,6.7682,6.77,6.7714,6.7802,6.7868,6.7946,6.8234,6.8481,6.8682,6.9053,6.9246,6.9278,6.9572,6.9882,7.0163,7.0392,7.0566,7.0743,7.0787,7.0829,7.0864,7.0885,7.0891,7.0898,7.0898,7.0898,7.0898,7.0898,7.0898,7.0898,7.0898,7.0898,7.0898,7.0898,7.0898,7.0898,7.0898,7.0898,7.0898,7.0898,7.0898,7.0898,7.0898,7.0898,7.0898,7.0898,7.0898,7.0898,7.0898,7.0898,7.0898,7.0898,7.0898,7.0898,7.0898,7.0898,7.0898,7.0898,7.0898,7.0898,7.0898,7.0898,7.0898,7.0898,7.0898,7.0898,7.0898,7.0898,7.0898,7.0898,7.0898,7.0898,7.0898,7.0898,7.0898,7.0898,7.0898,7.0898,7.0898,7.0898,7.0898,7.0898,7.0898,7.0898,7.0898,7.0898,7.0898,7.0898,7.0898,7.0898,7.0898,7.0898,7.1187,7.2572,7.3488,7.4142,7.4834,7.5572,7.5995,7.5995,7.5995,7.5995,7.5995,7.5995,7.5995,7.5995,7.5995,7.5995,7.5995,7.5995,7.5995,7.5995,7.5995]}]]